<?xml version='1.0' encoding='UTF-8'?><gpx version="1.1" creator="JPX - https://github.com/jenetics/jpx" xmlns="http://www.topografix.com/GPX/1/1"><trk><trkseg><trkpt lat="45.59456074272012" lon="10.13455655082622"><ele>163.66666666666666</ele><time>2026-03-31T15:47:16Z</time></trkpt><trkpt lat="45.59445396191446" lon="10.134530104587565"><ele>163.33333333333331</ele><time>2026-03-31T15:47:38.999Z</time></trkpt><trkpt lat="45.59444690754818" lon="10.134630383509439"><ele>163.0</ele><time>2026-03-31T15:48:01.999Z</time></trkpt><trkpt lat="45.59445787369818" lon="10.134732470267325"><ele>162.66666666666666</ele><time>2026-03-31T15:48:04.999Z</time></trkpt><trkpt lat="45.59445809264181" lon="10.13482886909237"><ele>162.33333333333334</ele><time>2026-03-31T15:48:07.999Z</time></trkpt><trkpt lat="45.59443354649823" lon="10.134941954787308"><ele>162.0</ele><time>2026-03-31T15:48:11.999Z</time></trkpt><trkpt lat="45.594427772422335" lon="10.135044593614452"><ele>162.0</ele><time>2026-03-31T15:48:14.999Z</time></trkpt><trkpt lat="45.59443674742577" lon="10.135142014833333"><ele>162.0</ele><time>2026-03-31T15:48:17.999Z</time></trkpt><trkpt lat="45.59444974378551" lon="10.135233167879893"><ele>162.0</ele><time>2026-03-31T15:48:21.999Z</time></trkpt><trkpt lat="45.594464136826645" lon="10.13532967009847"><ele>162.0</ele><time>2026-03-31T15:48:24.999Z</time></trkpt><trkpt lat="45.59447895459224" lon="10.13543357110335"><ele>162.0</ele><time>2026-03-31T15:48:27.999Z</time></trkpt><trkpt lat="45.59449229481013" lon="10.135538959828231"><ele>162.0</ele><time>2026-03-31T15:48:30.999Z</time></trkpt><trkpt lat="45.5945110558741" lon="10.135652838146202"><ele>162.0</ele><time>2026-03-31T15:48:33.999Z</time></trkpt><trkpt lat="45.594526799319034" lon="10.13574849037277"><ele>162.28571428571428</ele><time>2026-03-31T15:48:36.999Z</time></trkpt><trkpt lat="45.59454537242972" lon="10.135856025004692"><ele>162.57142857142856</ele><time>2026-03-31T15:48:39.999Z</time></trkpt><trkpt lat="45.59456714545029" lon="10.135962105465946"><ele>162.85714285714283</ele><time>2026-03-31T15:48:42.999Z</time></trkpt><trkpt lat="45.59458157660839" lon="10.13607207445199"><ele>163.14285714285714</ele><time>2026-03-31T15:48:45.999Z</time></trkpt><trkpt lat="45.59459265011377" lon="10.136177787374551"><ele>163.42857142857142</ele><time>2026-03-31T15:48:48.999Z</time></trkpt><trkpt lat="45.594609755671485" lon="10.136270329749918"><ele>163.7142857142857</ele><time>2026-03-31T15:48:51.999Z</time></trkpt><trkpt lat="45.59461737543463" lon="10.136363449168348"><ele>164.0</ele><time>2026-03-31T15:48:54.999Z</time></trkpt><trkpt lat="45.59463275411746" lon="10.136464551017795"><ele>163.7142857142857</ele><time>2026-03-31T15:48:57.999Z</time></trkpt><trkpt lat="45.59464762924957" lon="10.136553158780394"><ele>163.42857142857142</ele><time>2026-03-31T15:49:00.999Z</time></trkpt><trkpt lat="45.59466921804507" lon="10.136638239079645"><ele>163.14285714285714</ele><time>2026-03-31T15:49:03.999Z</time></trkpt><trkpt lat="45.59473520495002" lon="10.136682389359676"><ele>162.85714285714283</ele><time>2026-03-31T15:49:06.999Z</time></trkpt><trkpt lat="45.594800793526524" lon="10.136693435097595"><ele>162.57142857142856</ele><time>2026-03-31T15:49:09.999Z</time></trkpt><trkpt lat="45.59487902419835" lon="10.136714042141904"><ele>162.28571428571428</ele><time>2026-03-31T15:49:13.999Z</time></trkpt><trkpt lat="45.59494244196762" lon="10.136717746961756"><ele>162.0</ele><time>2026-03-31T15:49:16.999Z</time></trkpt><trkpt lat="45.59500953797702" lon="10.136710829330422"><ele>162.0</ele><time>2026-03-31T15:49:19.999Z</time></trkpt><trkpt lat="45.59508560894971" lon="10.136711590991663"><ele>162.0</ele><time>2026-03-31T15:49:22.999Z</time></trkpt><trkpt lat="45.595154939871875" lon="10.136727453300296"><ele>162.0</ele><time>2026-03-31T15:49:25.999Z</time></trkpt><trkpt lat="45.59522755073592" lon="10.136732244371501"><ele>162.0</ele><time>2026-03-31T15:49:28.999Z</time></trkpt><trkpt lat="45.595282104110616" lon="10.136807490986449"><ele>162.0</ele><time>2026-03-31T15:49:31.999Z</time></trkpt><trkpt lat="45.59526867278189" lon="10.136905359997092"><ele>162.0</ele><time>2026-03-31T15:49:34.999Z</time></trkpt><trkpt lat="45.595261718874355" lon="10.137017725520007"><ele>162.0</ele><time>2026-03-31T15:49:38.999Z</time></trkpt><trkpt lat="45.595250241888834" lon="10.137119436143657"><ele>162.0</ele><time>2026-03-31T15:49:41.999Z</time></trkpt><trkpt lat="45.595234924551306" lon="10.137232012958826"><ele>162.0</ele><time>2026-03-31T15:49:45.999Z</time></trkpt><trkpt lat="45.59521233932464" lon="10.137344220562193"><ele>162.0</ele><time>2026-03-31T15:49:49.999Z</time></trkpt><trkpt lat="45.5951997002233" lon="10.137441308809784"><ele>162.0</ele><time>2026-03-31T15:49:52.999Z</time></trkpt><trkpt lat="45.595194403473826" lon="10.137544732441288"><ele>162.0</ele><time>2026-03-31T15:49:55.999Z</time></trkpt><trkpt lat="45.59519622987884" lon="10.13766762593296"><ele>162.0</ele><time>2026-03-31T15:49:58.999Z</time></trkpt><trkpt lat="45.59519893381441" lon="10.137767329542465"><ele>162.0</ele><time>2026-03-31T15:50:01.999Z</time></trkpt><trkpt lat="45.5952215345948" lon="10.137878562294853"><ele>162.0</ele><time>2026-03-31T15:50:05.999Z</time></trkpt><trkpt lat="45.59519031483064" lon="10.137976360830326"><ele>162.0</ele><time>2026-03-31T15:50:10.999Z</time></trkpt><trkpt lat="45.59522915376987" lon="10.138051650356882"><ele>162.0</ele><time>2026-03-31T15:50:13.999Z</time></trkpt><trkpt lat="45.59522433992821" lon="10.138170001246294"><ele>162.0</ele><time>2026-03-31T15:50:16.999Z</time></trkpt><trkpt lat="45.595228021976034" lon="10.138285105810963"><ele>162.0</ele><time>2026-03-31T15:50:19.999Z</time></trkpt><trkpt lat="45.595257231895324" lon="10.13838292500441"><ele>161.83333333333334</ele><time>2026-03-31T15:50:22.999Z</time></trkpt><trkpt lat="45.59529225079042" lon="10.138474894126952"><ele>161.66666666666666</ele><time>2026-03-31T15:50:25.999Z</time></trkpt><trkpt lat="45.595316718403694" lon="10.138585462548633"><ele>161.5</ele><time>2026-03-31T15:50:28.999Z</time></trkpt><trkpt lat="45.59534971362534" lon="10.138690499969666"><ele>161.33333333333331</ele><time>2026-03-31T15:50:31.999Z</time></trkpt><trkpt lat="45.59537001588639" lon="10.138807695440704"><ele>161.16666666666666</ele><time>2026-03-31T15:50:34.999Z</time></trkpt><trkpt lat="45.59536766047897" lon="10.138924138878469"><ele>161.0</ele><time>2026-03-31T15:50:37.999Z</time></trkpt><trkpt lat="45.59537627033977" lon="10.139030161216267"><ele>161.66666666666666</ele><time>2026-03-31T15:50:40.999Z</time></trkpt><trkpt lat="45.59538214450422" lon="10.139148268322463"><ele>162.33333333333331</ele><time>2026-03-31T15:50:43.999Z</time></trkpt><trkpt lat="45.59539029226929" lon="10.13924103991739"><ele>163.0</ele><time>2026-03-31T15:50:45.999Z</time></trkpt><trkpt lat="45.5953969356437" lon="10.139359135523959"><ele>163.66666666666666</ele><time>2026-03-31T15:50:48.999Z</time></trkpt><trkpt lat="45.59539883887063" lon="10.139482475994766"><ele>164.33333333333334</ele><time>2026-03-31T15:50:51.999Z</time></trkpt><trkpt lat="45.59539803946655" lon="10.139595443498722"><ele>165.0</ele><time>2026-03-31T15:50:54.999Z</time></trkpt><trkpt lat="45.595371797135705" lon="10.139706263117626"><ele>164.83333333333334</ele><time>2026-03-31T15:50:57.999Z</time></trkpt><trkpt lat="45.5953324326058" lon="10.139797106431725"><ele>164.66666666666666</ele><time>2026-03-31T15:51:00.999Z</time></trkpt><trkpt lat="45.59534112467743" lon="10.139924974040847"><ele>164.5</ele><time>2026-03-31T15:51:03.999Z</time></trkpt><trkpt lat="45.595337099492916" lon="10.140035003346414"><ele>164.33333333333331</ele><time>2026-03-31T15:51:06.999Z</time></trkpt><trkpt lat="45.595336342527965" lon="10.140155025737982"><ele>164.16666666666666</ele><time>2026-03-31T15:51:09.999Z</time></trkpt><trkpt lat="45.59534039988965" lon="10.14026697249193"><ele>164.0</ele><time>2026-03-31T15:51:12.999Z</time></trkpt><trkpt lat="45.59534633451222" lon="10.140376233746672"><ele>163.99999999999997</ele><time>2026-03-31T15:51:15.999Z</time></trkpt><trkpt lat="45.595357406127626" lon="10.140484931781362"><ele>164.0</ele><time>2026-03-31T15:51:18.999Z</time></trkpt><trkpt lat="45.595367063174784" lon="10.14058952478216"><ele>164.0</ele><time>2026-03-31T15:51:21.999Z</time></trkpt><trkpt lat="45.59539010938002" lon="10.140685887885205"><ele>164.0</ele><time>2026-03-31T15:51:24.999Z</time></trkpt><trkpt lat="45.595419107045906" lon="10.140781271117062"><ele>164.0</ele><time>2026-03-31T15:51:27.999Z</time></trkpt><trkpt lat="45.59544920994339" lon="10.14088079957334"><ele>163.99999999999997</ele><time>2026-03-31T15:51:30.999Z</time></trkpt><trkpt lat="45.59547109820637" lon="10.140977719893533"><ele>164.0</ele><time>2026-03-31T15:51:33.999Z</time></trkpt><trkpt lat="45.59550150409014" lon="10.141081102917841"><ele>164.33333333333331</ele><time>2026-03-31T15:51:36.999Z</time></trkpt><trkpt lat="45.59553983282864" lon="10.141172946498234"><ele>164.66666666666666</ele><time>2026-03-31T15:51:39.999Z</time></trkpt><trkpt lat="45.59556980113146" lon="10.141268402285824"><ele>165.0</ele><time>2026-03-31T15:51:42.999Z</time></trkpt><trkpt lat="45.595601327161674" lon="10.141363241763756"><ele>165.33333333333334</ele><time>2026-03-31T15:51:45.999Z</time></trkpt><trkpt lat="45.59562126103777" lon="10.141470190910027"><ele>165.66666666666669</ele><time>2026-03-31T15:51:48.999Z</time></trkpt><trkpt lat="45.59564127304222" lon="10.141574673371712"><ele>166.0</ele><time>2026-03-31T15:51:51.999Z</time></trkpt><trkpt lat="45.59566512559298" lon="10.141677050019414"><ele>166.16666666666669</ele><time>2026-03-31T15:51:54.999Z</time></trkpt><trkpt lat="45.59568068470607" lon="10.141795567811503"><ele>166.33333333333334</ele><time>2026-03-31T15:51:57.999Z</time></trkpt><trkpt lat="45.595689553899234" lon="10.141903547479561"><ele>166.5</ele><time>2026-03-31T15:52:00.999Z</time></trkpt><trkpt lat="45.59569228243155" lon="10.14201447892815"><ele>166.66666666666666</ele><time>2026-03-31T15:52:03.999Z</time></trkpt><trkpt lat="45.595694076834064" lon="10.14211005712706"><ele>166.83333333333331</ele><time>2026-03-31T15:52:06.999Z</time></trkpt><trkpt lat="45.595688372323245" lon="10.142223633810614"><ele>167.0</ele><time>2026-03-31T15:52:09.999Z</time></trkpt><trkpt lat="45.59568476267947" lon="10.142322403870173"><ele>167.28571428571428</ele><time>2026-03-31T15:52:12.999Z</time></trkpt><trkpt lat="45.59568607018541" lon="10.142428038501098"><ele>167.57142857142858</ele><time>2026-03-31T15:52:15.999Z</time></trkpt><trkpt lat="45.595678372739194" lon="10.142539286412259"><ele>167.85714285714286</ele><time>2026-03-31T15:52:18.999Z</time></trkpt><trkpt lat="45.59566953255206" lon="10.142635427179611"><ele>168.14285714285714</ele><time>2026-03-31T15:52:21.999Z</time></trkpt><trkpt lat="45.595656250222135" lon="10.142741054614621"><ele>168.42857142857142</ele><time>2026-03-31T15:52:24.999Z</time></trkpt><trkpt lat="45.595651389768896" lon="10.142839769319142"><ele>168.71428571428572</ele><time>2026-03-31T15:52:27.999Z</time></trkpt><trkpt lat="45.595632539226116" lon="10.142951801996611"><ele>169.0</ele><time>2026-03-31T15:52:31.999Z</time></trkpt><trkpt lat="45.595631232046415" lon="10.143058125689166"><ele>169.0</ele><time>2026-03-31T15:52:34.999Z</time></trkpt><trkpt lat="45.59561528973742" lon="10.143160813673129"><ele>169.0</ele><time>2026-03-31T15:52:37.999Z</time></trkpt><trkpt lat="45.59559292227243" lon="10.143253239571518"><ele>169.0</ele><time>2026-03-31T15:52:40.999Z</time></trkpt><trkpt lat="45.59556933547097" lon="10.14334424983585"><ele>169.0</ele><time>2026-03-31T15:52:43.999Z</time></trkpt><trkpt lat="45.595542215767246" lon="10.14344685329215"><ele>169.0</ele><time>2026-03-31T15:52:46.999Z</time></trkpt><trkpt lat="45.595516789027016" lon="10.143538160962475"><ele>169.0</ele><time>2026-03-31T15:52:49.999Z</time></trkpt><trkpt lat="45.59548606489128" lon="10.143632222256278"><ele>169.0</ele><time>2026-03-31T15:52:52.999Z</time></trkpt><trkpt lat="45.595463483051" lon="10.143731190767403"><ele>169.14285714285714</ele><time>2026-03-31T15:52:55.999Z</time></trkpt><trkpt lat="45.59543921535797" lon="10.143824668951957"><ele>169.28571428571428</ele><time>2026-03-31T15:52:58.999Z</time></trkpt><trkpt lat="45.59542015135089" lon="10.143917835250257"><ele>169.42857142857144</ele><time>2026-03-31T15:53:01.999Z</time></trkpt><trkpt lat="45.59539851225258" lon="10.144022138321233"><ele>169.57142857142856</ele><time>2026-03-31T15:53:04.999Z</time></trkpt><trkpt lat="45.59538330944015" lon="10.144127852931875"><ele>169.7142857142857</ele><time>2026-03-31T15:53:07.999Z</time></trkpt><trkpt lat="45.59535886657061" lon="10.144218296916918"><ele>169.85714285714286</ele><time>2026-03-31T15:53:10.999Z</time></trkpt><trkpt lat="45.59533183980866" lon="10.144318718542682"><ele>170.0</ele><time>2026-03-31T15:53:13.999Z</time></trkpt><trkpt lat="45.59530785140747" lon="10.144426198595761"><ele>170.0</ele><time>2026-03-31T15:53:16.999Z</time></trkpt><trkpt lat="45.59527818230673" lon="10.144532312313151"><ele>170.0</ele><time>2026-03-31T15:53:19.999Z</time></trkpt><trkpt lat="45.595264900234255" lon="10.144634289026081"><ele>170.0</ele><time>2026-03-31T15:53:22.999Z</time></trkpt><trkpt lat="45.595249002084586" lon="10.144739075397595"><ele>170.0</ele><time>2026-03-31T15:53:25.999Z</time></trkpt><trkpt lat="45.59522563059845" lon="10.144842104186594"><ele>170.0</ele><time>2026-03-31T15:53:28.999Z</time></trkpt><trkpt lat="45.595208686547934" lon="10.14494184006115"><ele>170.0</ele><time>2026-03-31T15:53:31.999Z</time></trkpt><trkpt lat="45.59519174832319" lon="10.145036385311395"><ele>170.0</ele><time>2026-03-31T15:53:34.999Z</time></trkpt><trkpt lat="45.59519098759113" lon="10.145132956459374"><ele>170.2857142857143</ele><time>2026-03-31T15:53:37.999Z</time></trkpt><trkpt lat="45.595180237170325" lon="10.145232511597271"><ele>170.57142857142856</ele><time>2026-03-31T15:53:40.999Z</time></trkpt><trkpt lat="45.595172371212314" lon="10.145333437481675"><ele>170.85714285714286</ele><time>2026-03-31T15:53:43.999Z</time></trkpt><trkpt lat="45.59516501598731" lon="10.145431633771137"><ele>171.14285714285717</ele><time>2026-03-31T15:53:46.999Z</time></trkpt><trkpt lat="45.59516700437348" lon="10.145523699800817"><ele>171.42857142857144</ele><time>2026-03-31T15:53:49.999Z</time></trkpt><trkpt lat="45.59517516885325" lon="10.145626371015071"><ele>171.71428571428572</ele><time>2026-03-31T15:53:52.999Z</time></trkpt><trkpt lat="45.595174593125826" lon="10.145718175205792"><ele>172.0</ele><time>2026-03-31T15:53:55.999Z</time></trkpt><trkpt lat="45.59517450900821" lon="10.145842771735039"><ele>172.57142857142858</ele><time>2026-03-31T15:53:59.999Z</time></trkpt><trkpt lat="45.59517749110074" lon="10.145964898349726"><ele>173.14285714285714</ele><time>2026-03-31T15:54:03.999Z</time></trkpt><trkpt lat="45.59518806742048" lon="10.146055278424425"><ele>173.71428571428572</ele><time>2026-03-31T15:54:06.999Z</time></trkpt><trkpt lat="45.595191186371075" lon="10.14615223572927"><ele>174.28571428571428</ele><time>2026-03-31T15:54:09.999Z</time></trkpt><trkpt lat="45.59519927945941" lon="10.1462514487148"><ele>174.85714285714286</ele><time>2026-03-31T15:54:12.999Z</time></trkpt><trkpt lat="45.59520880247744" lon="10.146348015154096"><ele>175.42857142857144</ele><time>2026-03-31T15:54:15.999Z</time></trkpt><trkpt lat="45.59521422984506" lon="10.146440840785418"><ele>176.0</ele><time>2026-03-31T15:54:18.999Z</time></trkpt><trkpt lat="45.59521835209825" lon="10.146535913205694"><ele>176.85714285714286</ele><time>2026-03-31T15:54:21.999Z</time></trkpt><trkpt lat="45.59522372726477" lon="10.146637397872668"><ele>177.71428571428572</ele><time>2026-03-31T15:54:24.999Z</time></trkpt><trkpt lat="45.59522921170097" lon="10.146731019539518"><ele>178.57142857142856</ele><time>2026-03-31T15:54:27.999Z</time></trkpt><trkpt lat="45.59523269196148" lon="10.146828185196716"><ele>179.42857142857144</ele><time>2026-03-31T15:54:30.999Z</time></trkpt><trkpt lat="45.595230040842964" lon="10.146918508447786"><ele>180.28571428571428</ele><time>2026-03-31T15:54:33.999Z</time></trkpt><trkpt lat="45.59524501121674" lon="10.147015388288414"><ele>181.14285714285714</ele><time>2026-03-31T15:54:36.999Z</time></trkpt><trkpt lat="45.59524732840598" lon="10.147118838948952"><ele>182.0</ele><time>2026-03-31T15:54:39.999Z</time></trkpt><trkpt lat="45.595249749202985" lon="10.147212261042679"><ele>182.0</ele><time>2026-03-31T15:54:42.999Z</time></trkpt><trkpt lat="45.595228080165995" lon="10.147299923560512"><ele>182.0</ele><time>2026-03-31T15:54:45.999Z</time></trkpt><trkpt lat="45.595157300556586" lon="10.147329895826648"><ele>182.0</ele><time>2026-03-31T15:54:48.999Z</time></trkpt><trkpt lat="45.59509326607161" lon="10.147329961406065"><ele>182.0</ele><time>2026-03-31T15:54:51.999Z</time></trkpt><trkpt lat="45.5950139491253" lon="10.147330792091958"><ele>182.0</ele><time>2026-03-31T15:54:55.999Z</time></trkpt><trkpt lat="45.59494172703589" lon="10.147328482778805"><ele>182.0</ele><time>2026-03-31T15:54:58.999Z</time></trkpt><trkpt lat="45.59487753999449" lon="10.1473362840436"><ele>182.0</ele><time>2026-03-31T15:55:01.999Z</time></trkpt><trkpt lat="45.594803681114946" lon="10.147323028158041"><ele>182.0</ele><time>2026-03-31T15:55:04.999Z</time></trkpt><trkpt lat="45.59472601620356" lon="10.147312676272739"><ele>182.0</ele><time>2026-03-31T15:55:07.999Z</time></trkpt><trkpt lat="45.5946513997647" lon="10.147300299676285"><ele>182.0</ele><time>2026-03-31T15:55:10.999Z</time></trkpt><trkpt lat="45.594567939784284" lon="10.147274800728209"><ele>182.0</ele><time>2026-03-31T15:55:14.999Z</time></trkpt><trkpt lat="45.5945027339215" lon="10.147261851147004"><ele>182.0</ele><time>2026-03-31T15:55:17.999Z</time></trkpt><trkpt lat="45.594432074766566" lon="10.147332600984086"><ele>182.0</ele><time>2026-03-31T15:55:21.999Z</time></trkpt><trkpt lat="45.59441156709296" lon="10.147426714414648"><ele>183.28571428571428</ele><time>2026-03-31T15:55:25Z</time></trkpt><trkpt lat="45.59439863541405" lon="10.147515561618238"><ele>184.57142857142856</ele><time>2026-03-31T15:55:28Z</time></trkpt><trkpt lat="45.59439505730737" lon="10.147614325226295"><ele>185.85714285714286</ele><time>2026-03-31T15:55:31Z</time></trkpt><trkpt lat="45.59438886654527" lon="10.147704724513806"><ele>187.14285714285714</ele><time>2026-03-31T15:55:34Z</time></trkpt><trkpt lat="45.59438431869808" lon="10.14779981124248"><ele>188.42857142857142</ele><time>2026-03-31T15:55:37Z</time></trkpt><trkpt lat="45.59437853031887" lon="10.14789869605197"><ele>189.71428571428572</ele><time>2026-03-31T15:55:40Z</time></trkpt><trkpt lat="45.59436786836006" lon="10.148016645262237"><ele>191.0</ele><time>2026-03-31T15:55:44Z</time></trkpt><trkpt lat="45.59434974496763" lon="10.14813835629775"><ele>190.2857142857143</ele><time>2026-03-31T15:55:48Z</time></trkpt><trkpt lat="45.59434841409416" lon="10.148239589695471"><ele>189.57142857142856</ele><time>2026-03-31T15:55:51Z</time></trkpt><trkpt lat="45.59434013578651" lon="10.148334742381339"><ele>188.85714285714286</ele><time>2026-03-31T15:55:54Z</time></trkpt><trkpt lat="45.594333593900984" lon="10.148436011414972"><ele>188.14285714285717</ele><time>2026-03-31T15:55:57Z</time></trkpt><trkpt lat="45.594326680019726" lon="10.148550112722189"><ele>187.42857142857144</ele><time>2026-03-31T15:56:01Z</time></trkpt><trkpt lat="45.594312974470874" lon="10.148662958743904"><ele>186.71428571428572</ele><time>2026-03-31T15:56:05Z</time></trkpt><trkpt lat="45.59429785710443" lon="10.148757083218944"><ele>186.0</ele><time>2026-03-31T15:56:08Z</time></trkpt><trkpt lat="45.59428445839785" lon="10.148846124269875"><ele>186.00000000000003</ele><time>2026-03-31T15:56:11Z</time></trkpt><trkpt lat="45.59427068961671" lon="10.148948568978685"><ele>186.0</ele><time>2026-03-31T15:56:14Z</time></trkpt><trkpt lat="45.59424969865261" lon="10.149061687787492"><ele>186.0</ele><time>2026-03-31T15:56:18Z</time></trkpt><trkpt lat="45.594209423424715" lon="10.149142727055375"><ele>186.0</ele><time>2026-03-31T15:56:21Z</time></trkpt><trkpt lat="45.59416827541921" lon="10.149218458501242"><ele>186.0</ele><time>2026-03-31T15:56:24Z</time></trkpt><trkpt lat="45.594120626862946" lon="10.149293195770008"><ele>186.00000000000003</ele><time>2026-03-31T15:56:27Z</time></trkpt><trkpt lat="45.59408072575933" lon="10.149370835893665"><ele>186.0</ele><time>2026-03-31T15:56:30Z</time></trkpt><trkpt lat="45.59404661940792" lon="10.14944820849077"><ele>185.71428571428572</ele><time>2026-03-31T15:56:33Z</time></trkpt><trkpt lat="45.59400784912236" lon="10.149523705772314"><ele>185.42857142857144</ele><time>2026-03-31T15:56:36Z</time></trkpt><trkpt lat="45.59398068419548" lon="10.149611022938434"><ele>185.14285714285717</ele><time>2026-03-31T15:56:39Z</time></trkpt><trkpt lat="45.59395725675823" lon="10.149702104517624"><ele>184.85714285714286</ele><time>2026-03-31T15:56:42Z</time></trkpt><trkpt lat="45.59392854413576" lon="10.149792534315985"><ele>184.57142857142856</ele><time>2026-03-31T15:56:45Z</time></trkpt><trkpt lat="45.593906457583145" lon="10.149877973127795"><ele>184.2857142857143</ele><time>2026-03-31T15:56:48Z</time></trkpt><trkpt lat="45.59388948045089" lon="10.149965289601775"><ele>184.0</ele><time>2026-03-31T15:56:51Z</time></trkpt><trkpt lat="45.59386341426498" lon="10.150076896757836"><ele>183.71428571428572</ele><time>2026-03-31T15:56:55Z</time></trkpt><trkpt lat="45.5938418422451" lon="10.15017352827106"><ele>183.42857142857142</ele><time>2026-03-31T15:56:58Z</time></trkpt><trkpt lat="45.59382237969017" lon="10.150274744083445"><ele>183.14285714285714</ele><time>2026-03-31T15:57:01Z</time></trkpt><trkpt lat="45.59380229554717" lon="10.150367826061471"><ele>182.85714285714286</ele><time>2026-03-31T15:57:04Z</time></trkpt><trkpt lat="45.593784437896936" lon="10.150471742332925"><ele>182.57142857142856</ele><time>2026-03-31T15:57:07Z</time></trkpt><trkpt lat="45.59376794827523" lon="10.150572405832312"><ele>182.28571428571428</ele><time>2026-03-31T15:57:10Z</time></trkpt><trkpt lat="45.59375191667924" lon="10.150668977587223"><ele>182.0</ele><time>2026-03-31T15:57:13Z</time></trkpt><trkpt lat="45.59372317336653" lon="10.150755704053871"><ele>181.71428571428572</ele><time>2026-03-31T15:57:16Z</time></trkpt><trkpt lat="45.5936989814864" lon="10.150844891167653"><ele>181.42857142857144</ele><time>2026-03-31T15:57:19Z</time></trkpt><trkpt lat="45.59366937563997" lon="10.150931502633645"><ele>181.14285714285714</ele><time>2026-03-31T15:57:22Z</time></trkpt><trkpt lat="45.59363172145807" lon="10.15102336797396"><ele>180.85714285714286</ele><time>2026-03-31T15:57:25Z</time></trkpt><trkpt lat="45.5936076722723" lon="10.151109998182637"><ele>180.57142857142858</ele><time>2026-03-31T15:57:28Z</time></trkpt><trkpt lat="45.59358901110512" lon="10.151207472222078"><ele>180.28571428571428</ele><time>2026-03-31T15:57:31Z</time></trkpt><trkpt lat="45.59358619304413" lon="10.151302407806257"><ele>180.0</ele><time>2026-03-31T15:57:34Z</time></trkpt><trkpt lat="45.59357593465875" lon="10.151391256194884"><ele>180.0</ele><time>2026-03-31T15:57:37Z</time></trkpt><trkpt lat="45.59356850229053" lon="10.151512503140165"><ele>180.0</ele><time>2026-03-31T15:57:41Z</time></trkpt><trkpt lat="45.59353880935209" lon="10.151596090517211"><ele>180.0</ele><time>2026-03-31T15:57:44Z</time></trkpt><trkpt lat="45.59350212233657" lon="10.151700322153689"><ele>180.0</ele><time>2026-03-31T15:57:48Z</time></trkpt><trkpt lat="45.59347969494878" lon="10.151799389149064"><ele>180.0</ele><time>2026-03-31T15:57:51Z</time></trkpt><trkpt lat="45.593460604503434" lon="10.151896185914358"><ele>180.0</ele><time>2026-03-31T15:57:54Z</time></trkpt><trkpt lat="45.593424505262995" lon="10.15197533831402"><ele>180.0</ele><time>2026-03-31T15:57:57Z</time></trkpt><trkpt lat="45.593370529206595" lon="10.152030433126852"><ele>180.0</ele><time>2026-03-31T15:58:01Z</time></trkpt><trkpt lat="45.59331995720969" lon="10.152086190044121"><ele>180.0</ele><time>2026-03-31T15:58:04Z</time></trkpt><trkpt lat="45.59326989939995" lon="10.152150161137607"><ele>180.0</ele><time>2026-03-31T15:58:06Z</time></trkpt><trkpt lat="45.593228555192596" lon="10.152220875480872"><ele>180.0</ele><time>2026-03-31T15:58:08Z</time></trkpt><trkpt lat="45.593183123568025" lon="10.152301817090615"><ele>180.0</ele><time>2026-03-31T15:58:11Z</time></trkpt><trkpt lat="45.593134911891454" lon="10.152386284946603"><ele>180.0</ele><time>2026-03-31T15:58:14Z</time></trkpt><trkpt lat="45.59310508655574" lon="10.152475925294866"><ele>180.0</ele><time>2026-03-31T15:58:19Z</time></trkpt><trkpt lat="45.593028644573316" lon="10.15252147468828"><ele>180.14285714285714</ele><time>2026-03-31T15:58:23Z</time></trkpt><trkpt lat="45.592965937484806" lon="10.152537213756966"><ele>180.2857142857143</ele><time>2026-03-31T15:58:26Z</time></trkpt><trkpt lat="45.59288951934035" lon="10.152544298006646"><ele>180.42857142857144</ele><time>2026-03-31T15:58:29Z</time></trkpt><trkpt lat="45.592809573938794" lon="10.152539318520871"><ele>180.57142857142856</ele><time>2026-03-31T15:58:32Z</time></trkpt><trkpt lat="45.59274219841442" lon="10.152571732782633"><ele>180.71428571428572</ele><time>2026-03-31T15:58:35Z</time></trkpt><trkpt lat="45.59267558911931" lon="10.152570784311287"><ele>180.85714285714286</ele><time>2026-03-31T15:58:38Z</time></trkpt><trkpt lat="45.59260577035982" lon="10.152560704408591"><ele>181.0</ele><time>2026-03-31T15:58:41Z</time></trkpt><trkpt lat="45.59253090353545" lon="10.152564059181246"><ele>181.0</ele><time>2026-03-31T15:58:44Z</time></trkpt><trkpt lat="45.59245838186707" lon="10.152569749396253"><ele>181.0</ele><time>2026-03-31T15:58:47Z</time></trkpt><trkpt lat="45.59238280222394" lon="10.152568870552836"><ele>181.0</ele><time>2026-03-31T15:58:50Z</time></trkpt><trkpt lat="45.59232301146377" lon="10.152522475419497"><ele>181.0</ele><time>2026-03-31T15:58:53Z</time></trkpt><trkpt lat="45.592307608392936" lon="10.15241826562639"><ele>181.0</ele><time>2026-03-31T15:58:56Z</time></trkpt><trkpt lat="45.59227702732064" lon="10.152331573948532"><ele>181.0</ele><time>2026-03-31T15:58:59Z</time></trkpt><trkpt lat="45.59220432302529" lon="10.15228643690707"><ele>181.0</ele><time>2026-03-31T15:59:02Z</time></trkpt><trkpt lat="45.59213312887178" lon="10.152295822672029"><ele>182.0</ele><time>2026-03-31T15:59:05Z</time></trkpt><trkpt lat="45.59206022249174" lon="10.15228899366113"><ele>183.0</ele><time>2026-03-31T15:59:08Z</time></trkpt><trkpt lat="45.591991414409016" lon="10.152265534112493"><ele>184.0</ele><time>2026-03-31T15:59:11Z</time></trkpt><trkpt lat="45.59192687570425" lon="10.152215171947018"><ele>185.0</ele><time>2026-03-31T15:59:14Z</time></trkpt><trkpt lat="45.5918572058919" lon="10.152178595885868"><ele>186.0</ele><time>2026-03-31T15:59:17Z</time></trkpt><trkpt lat="45.59179241545349" lon="10.152108346652147"><ele>187.0</ele><time>2026-03-31T15:59:20Z</time></trkpt><trkpt lat="45.591726443906246" lon="10.152039007400994"><ele>187.0</ele><time>2026-03-31T15:59:23Z</time></trkpt><trkpt lat="45.59165442269088" lon="10.151987790711841"><ele>187.0</ele><time>2026-03-31T15:59:26Z</time></trkpt><trkpt lat="45.59158096238593" lon="10.151992960958955"><ele>187.0</ele><time>2026-03-31T15:59:29Z</time></trkpt><trkpt lat="45.59150925699483" lon="10.151989472127518"><ele>187.0</ele><time>2026-03-31T15:59:32Z</time></trkpt><trkpt lat="45.59144053757182" lon="10.1519931100192"><ele>187.0</ele><time>2026-03-31T15:59:35Z</time></trkpt><trkpt lat="45.591372530596" lon="10.151998778971134"><ele>187.0</ele><time>2026-03-31T15:59:38Z</time></trkpt><trkpt lat="45.59130614389725" lon="10.152014433056763"><ele>187.0</ele><time>2026-03-31T15:59:41Z</time></trkpt><trkpt lat="45.59122981528676" lon="10.15196463153517"><ele>186.57142857142856</ele><time>2026-03-31T15:59:44Z</time></trkpt><trkpt lat="45.5911674002886" lon="10.151951206465105"><ele>186.14285714285717</ele><time>2026-03-31T15:59:46Z</time></trkpt><trkpt lat="45.59109965760126" lon="10.151940381678545"><ele>185.71428571428572</ele><time>2026-03-31T15:59:49Z</time></trkpt><trkpt lat="45.59102167233948" lon="10.1519253790859"><ele>185.28571428571428</ele><time>2026-03-31T15:59:52Z</time></trkpt><trkpt lat="45.59095180637142" lon="10.151895875862907"><ele>184.85714285714283</ele><time>2026-03-31T15:59:55Z</time></trkpt><trkpt lat="45.59088896358166" lon="10.151849546680342"><ele>184.42857142857144</ele><time>2026-03-31T15:59:58Z</time></trkpt><trkpt lat="45.59082358297026" lon="10.151820513998727"><ele>184.0</ele><time>2026-03-31T16:00:01Z</time></trkpt><trkpt lat="45.59076298687992" lon="10.151769584868504"><ele>184.0</ele><time>2026-03-31T16:00:04Z</time></trkpt><trkpt lat="45.59070444499279" lon="10.151722777377486"><ele>184.0</ele><time>2026-03-31T16:00:07Z</time></trkpt><trkpt lat="45.59063490084971" lon="10.151706720187043"><ele>184.0</ele><time>2026-03-31T16:00:10Z</time></trkpt><trkpt lat="45.59057169359887" lon="10.151688423151105"><ele>184.0</ele><time>2026-03-31T16:00:13Z</time></trkpt><trkpt lat="45.59049510986716" lon="10.151674536486565"><ele>184.0</ele><time>2026-03-31T16:00:16Z</time></trkpt><trkpt lat="45.59042759178785" lon="10.151639997478151"><ele>184.0</ele><time>2026-03-31T16:00:19Z</time></trkpt><trkpt lat="45.59037762972478" lon="10.151573298114075"><ele>184.0</ele><time>2026-03-31T16:00:22Z</time></trkpt><trkpt lat="45.590321854096125" lon="10.151516873922878"><ele>183.71428571428572</ele><time>2026-03-31T16:00:25Z</time></trkpt><trkpt lat="45.59025504233355" lon="10.151476782773164"><ele>183.42857142857142</ele><time>2026-03-31T16:00:28Z</time></trkpt><trkpt lat="45.59019804397254" lon="10.151423474098305"><ele>183.14285714285714</ele><time>2026-03-31T16:00:31Z</time></trkpt><trkpt lat="45.590144944909156" lon="10.151358703409537"><ele>182.85714285714286</ele><time>2026-03-31T16:00:34Z</time></trkpt><trkpt lat="45.59009181815508" lon="10.151300675960375"><ele>182.57142857142856</ele><time>2026-03-31T16:00:37Z</time></trkpt><trkpt lat="45.590039530000126" lon="10.151247131136206"><ele>182.28571428571428</ele><time>2026-03-31T16:00:40Z</time></trkpt><trkpt lat="45.58996545607484" lon="10.151182755433974"><ele>182.0</ele><time>2026-03-31T16:00:44Z</time></trkpt><trkpt lat="45.58991535154369" lon="10.151106814804168"><ele>182.0</ele><time>2026-03-31T16:00:47Z</time></trkpt><trkpt lat="45.5898923133348" lon="10.151013268444645"><ele>182.0</ele><time>2026-03-31T16:00:50Z</time></trkpt><trkpt lat="45.58986208975017" lon="10.15091807992936"><ele>182.0</ele><time>2026-03-31T16:00:53Z</time></trkpt><trkpt lat="45.589854971534535" lon="10.150818115936259"><ele>182.0</ele><time>2026-03-31T16:00:56Z</time></trkpt><trkpt lat="45.58983929066654" lon="10.15071182896967"><ele>182.0</ele><time>2026-03-31T16:00:59Z</time></trkpt><trkpt lat="45.58979769400072" lon="10.150629652333226"><ele>182.0</ele><time>2026-03-31T16:01:02Z</time></trkpt><trkpt lat="45.589723216483925" lon="10.150593862836468"><ele>182.0</ele><time>2026-03-31T16:01:05Z</time></trkpt><trkpt lat="45.58965786581363" lon="10.150621409379488"><ele>182.0</ele><time>2026-03-31T16:01:10Z</time></trkpt><trkpt lat="45.589564319962555" lon="10.150604969581108"><ele>182.0</ele><time>2026-03-31T16:01:14Z</time></trkpt><trkpt lat="45.58950620910454" lon="10.150659595006415"><ele>182.0</ele><time>2026-03-31T16:01:18Z</time></trkpt><trkpt lat="45.589450027007175" lon="10.1507442881197"><ele>182.0</ele><time>2026-03-31T16:01:22Z</time></trkpt><trkpt lat="45.58940565779822" lon="10.150815765728902"><ele>182.0</ele><time>2026-03-31T16:01:25Z</time></trkpt><trkpt lat="45.58935583361592" lon="10.15087636463394"><ele>182.0</ele><time>2026-03-31T16:01:28Z</time></trkpt><trkpt lat="45.58931582561225" lon="10.150952301962109"><ele>182.0</ele><time>2026-03-31T16:01:31Z</time></trkpt><trkpt lat="45.589272312154804" lon="10.15105241592014"><ele>180.14285714285714</ele><time>2026-03-31T16:01:35Z</time></trkpt><trkpt lat="45.58924076978837" lon="10.151149264658173"><ele>178.28571428571428</ele><time>2026-03-31T16:01:38Z</time></trkpt><trkpt lat="45.58919569477703" lon="10.151225249761518"><ele>176.42857142857144</ele><time>2026-03-31T16:01:41Z</time></trkpt><trkpt lat="45.58914959850057" lon="10.15131670218725"><ele>174.57142857142856</ele><time>2026-03-31T16:01:44Z</time></trkpt><trkpt lat="45.58911343004599" lon="10.151394537538813"><ele>172.71428571428572</ele><time>2026-03-31T16:01:47Z</time></trkpt><trkpt lat="45.58910250066546" lon="10.151496223210994"><ele>170.85714285714286</ele><time>2026-03-31T16:01:50Z</time></trkpt><trkpt lat="45.5890860685576" lon="10.151591024584869"><ele>169.0</ele><time>2026-03-31T16:01:53Z</time></trkpt><trkpt lat="45.589013150398706" lon="10.151652638725652"><ele>169.0</ele><time>2026-03-31T16:01:56Z</time></trkpt><trkpt lat="45.588950607893985" lon="10.151685489127804"><ele>169.0</ele><time>2026-03-31T16:01:59Z</time></trkpt><trkpt lat="45.58887665696641" lon="10.151698957829801"><ele>169.0</ele><time>2026-03-31T16:02:04Z</time></trkpt><trkpt lat="45.58880542119304" lon="10.151706400895957"><ele>169.0</ele><time>2026-03-31T16:02:09Z</time></trkpt><trkpt lat="45.5887323378795" lon="10.151735392883545"><ele>169.0</ele><time>2026-03-31T16:02:13Z</time></trkpt><trkpt lat="45.58865767301217" lon="10.15175828436959"><ele>169.0</ele><time>2026-03-31T16:02:16Z</time></trkpt><trkpt lat="45.58857939948754" lon="10.151760279650361"><ele>169.0</ele><time>2026-03-31T16:02:19Z</time></trkpt><trkpt lat="45.588499064117755" lon="10.151761448480034"><ele>168.5</ele><time>2026-03-31T16:02:22Z</time></trkpt><trkpt lat="45.588416827455575" lon="10.151760689279099"><ele>168.0</ele><time>2026-03-31T16:02:25Z</time></trkpt><trkpt lat="45.58835667510718" lon="10.151726464321136"><ele>167.5</ele><time>2026-03-31T16:02:27Z</time></trkpt><trkpt lat="45.58827312293018" lon="10.151686893188185"><ele>167.0</ele><time>2026-03-31T16:02:30Z</time></trkpt><trkpt lat="45.588191512723796" lon="10.151676416110346"><ele>166.5</ele><time>2026-03-31T16:02:33Z</time></trkpt><trkpt lat="45.588102640228804" lon="10.151682533244543"><ele>166.0</ele><time>2026-03-31T16:02:36Z</time></trkpt><trkpt lat="45.588021312484585" lon="10.151712045253033"><ele>166.0</ele><time>2026-03-31T16:02:39Z</time></trkpt><trkpt lat="45.5879429155279" lon="10.151726918260605"><ele>166.0</ele><time>2026-03-31T16:02:42Z</time></trkpt><trkpt lat="45.58786509635255" lon="10.151752915805533"><ele>166.0</ele><time>2026-03-31T16:02:45Z</time></trkpt><trkpt lat="45.58779540418384" lon="10.151767598900568"><ele>166.0</ele><time>2026-03-31T16:02:48Z</time></trkpt><trkpt lat="45.58772781063556" lon="10.151760885028146"><ele>166.0</ele><time>2026-03-31T16:02:51Z</time></trkpt><trkpt lat="45.587653104369544" lon="10.151769622063622"><ele>166.0</ele><time>2026-03-31T16:02:54Z</time></trkpt><trkpt lat="45.58758461968186" lon="10.151752944986493"><ele>166.0</ele><time>2026-03-31T16:02:57Z</time></trkpt><trkpt lat="45.587514862472" lon="10.151752247995182"><ele>166.0</ele><time>2026-03-31T16:03:00Z</time></trkpt><trkpt lat="45.587444453489965" lon="10.151729810776969"><ele>166.0</ele><time>2026-03-31T16:03:03Z</time></trkpt><trkpt lat="45.58737655406721" lon="10.151692853154994"><ele>166.0</ele><time>2026-03-31T16:03:06Z</time></trkpt><trkpt lat="45.5873116777857" lon="10.151661155807197"><ele>166.0</ele><time>2026-03-31T16:03:09Z</time></trkpt><trkpt lat="45.587244396704676" lon="10.151628914015074"><ele>166.0</ele><time>2026-03-31T16:03:12Z</time></trkpt><trkpt lat="45.58716844750888" lon="10.151630254512657"><ele>166.0</ele><time>2026-03-31T16:03:15Z</time></trkpt><trkpt lat="45.58709423054301" lon="10.151616456619061"><ele>166.0</ele><time>2026-03-31T16:03:18Z</time></trkpt><trkpt lat="45.58702360743674" lon="10.151601263455467"><ele>165.66666666666669</ele><time>2026-03-31T16:03:21Z</time></trkpt><trkpt lat="45.586940331552604" lon="10.15164203415146"><ele>165.33333333333334</ele><time>2026-03-31T16:03:24Z</time></trkpt><trkpt lat="45.58686415273919" lon="10.151661045369421"><ele>165.0</ele><time>2026-03-31T16:03:27Z</time></trkpt><trkpt lat="45.5867839482373" lon="10.151648333887223"><ele>164.66666666666666</ele><time>2026-03-31T16:03:30Z</time></trkpt><trkpt lat="45.58670325307003" lon="10.151671797873831"><ele>164.33333333333331</ele><time>2026-03-31T16:03:33Z</time></trkpt><trkpt lat="45.58663109537875" lon="10.151720239943414"><ele>164.0</ele><time>2026-03-31T16:03:36Z</time></trkpt><trkpt lat="45.586561666318254" lon="10.151785747509805"><ele>164.0</ele><time>2026-03-31T16:03:39Z</time></trkpt><trkpt lat="45.586487386569566" lon="10.151823123935744"><ele>164.0</ele><time>2026-03-31T16:03:42Z</time></trkpt><trkpt lat="45.586407636507836" lon="10.151791546467477"><ele>164.0</ele><time>2026-03-31T16:03:45Z</time></trkpt><trkpt lat="45.58633057625953" lon="10.151770460932735"><ele>164.0</ele><time>2026-03-31T16:03:48Z</time></trkpt><trkpt lat="45.58625137463622" lon="10.151749043693698"><ele>164.0</ele><time>2026-03-31T16:03:51Z</time></trkpt><trkpt lat="45.58617706808537" lon="10.151716501394317"><ele>164.0</ele><time>2026-03-31T16:03:54Z</time></trkpt><trkpt lat="45.58609952510585" lon="10.151711797040264"><ele>163.5</ele><time>2026-03-31T16:03:57Z</time></trkpt><trkpt lat="45.58601601866518" lon="10.15171569875554"><ele>163.0</ele><time>2026-03-31T16:04:00Z</time></trkpt><trkpt lat="45.585956543398716" lon="10.151755269158762"><ele>162.5</ele><time>2026-03-31T16:04:02Z</time></trkpt><trkpt lat="45.58587232052922" lon="10.151781109021709"><ele>162.0</ele><time>2026-03-31T16:04:05Z</time></trkpt><trkpt lat="45.58579905739294" lon="10.151794393253233"><ele>161.5</ele><time>2026-03-31T16:04:08Z</time></trkpt><trkpt lat="45.58573909229543" lon="10.15172627303802"><ele>161.0</ele><time>2026-03-31T16:04:11Z</time></trkpt><trkpt lat="45.585691630674276" lon="10.15166520888611"><ele>161.0</ele><time>2026-03-31T16:04:14Z</time></trkpt><trkpt lat="45.58564610647338" lon="10.151558333849842"><ele>161.0</ele><time>2026-03-31T16:04:17Z</time></trkpt><trkpt lat="45.58557678444663" lon="10.151511425834293"><ele>161.0</ele><time>2026-03-31T16:04:20Z</time></trkpt><trkpt lat="45.58551234115189" lon="10.151459100120348"><ele>161.0</ele><time>2026-03-31T16:04:23Z</time></trkpt><trkpt lat="45.58544875805772" lon="10.151428231508618"><ele>161.0</ele><time>2026-03-31T16:04:26Z</time></trkpt><trkpt lat="45.585374227740104" lon="10.151409534051014"><ele>161.0</ele><time>2026-03-31T16:04:29Z</time></trkpt><trkpt lat="45.58529146049213" lon="10.151435917421937"><ele>160.42857142857142</ele><time>2026-03-31T16:04:32Z</time></trkpt><trkpt lat="45.585224471166946" lon="10.151441191788894"><ele>159.85714285714286</ele><time>2026-03-31T16:04:35Z</time></trkpt><trkpt lat="45.5851601352515" lon="10.151433906752043"><ele>159.28571428571428</ele><time>2026-03-31T16:04:38Z</time></trkpt><trkpt lat="45.585101765281756" lon="10.151392510760282"><ele>158.71428571428572</ele><time>2026-03-31T16:04:41Z</time></trkpt><trkpt lat="45.585045763119254" lon="10.151436521663387"><ele>158.14285714285714</ele><time>2026-03-31T16:04:44Z</time></trkpt><trkpt lat="45.584967746671445" lon="10.151430614354924"><ele>157.57142857142856</ele><time>2026-03-31T16:04:47Z</time></trkpt><trkpt lat="45.58489426044192" lon="10.151450420574749"><ele>157.0</ele><time>2026-03-31T16:04:50Z</time></trkpt><trkpt lat="45.58483231810329" lon="10.151473940036327"><ele>156.99999999999997</ele><time>2026-03-31T16:04:53Z</time></trkpt><trkpt lat="45.58476273431113" lon="10.151493850001534"><ele>157.0</ele><time>2026-03-31T16:04:56Z</time></trkpt><trkpt lat="45.58470143922813" lon="10.151542545647667"><ele>157.0</ele><time>2026-03-31T16:04:59Z</time></trkpt><trkpt lat="45.584634851750835" lon="10.15157297426646"><ele>157.0</ele><time>2026-03-31T16:05:02Z</time></trkpt><trkpt lat="45.58455561349459" lon="10.151596011868662"><ele>157.0</ele><time>2026-03-31T16:05:06Z</time></trkpt><trkpt lat="45.58448167880187" lon="10.15159365255179"><ele>156.99999999999997</ele><time>2026-03-31T16:05:09Z</time></trkpt><trkpt lat="45.584417881777256" lon="10.151612970869303"><ele>157.0</ele><time>2026-03-31T16:05:12Z</time></trkpt><trkpt lat="45.584353646008765" lon="10.15162530582634"><ele>156.83333333333334</ele><time>2026-03-31T16:05:15Z</time></trkpt><trkpt lat="45.58428869770059" lon="10.151636376708236"><ele>156.66666666666669</ele><time>2026-03-31T16:05:18Z</time></trkpt><trkpt lat="45.584212732514786" lon="10.15165311211206"><ele>156.5</ele><time>2026-03-31T16:05:23Z</time></trkpt><trkpt lat="45.58415348579412" lon="10.151722056364983"><ele>156.33333333333334</ele><time>2026-03-31T16:05:27Z</time></trkpt><trkpt lat="45.58408276380085" lon="10.151810031654808"><ele>156.16666666666666</ele><time>2026-03-31T16:05:30Z</time></trkpt><trkpt lat="45.584016520114766" lon="10.151839657233099"><ele>156.0</ele><time>2026-03-31T16:05:32Z</time></trkpt><trkpt lat="45.58394388646802" lon="10.151841370868581"><ele>156.0</ele><time>2026-03-31T16:05:35Z</time></trkpt><trkpt lat="45.583870763530875" lon="10.15185208657292"><ele>156.0</ele><time>2026-03-31T16:05:38Z</time></trkpt><trkpt lat="45.583804731314004" lon="10.151862906991134"><ele>156.0</ele><time>2026-03-31T16:05:41Z</time></trkpt><trkpt lat="45.58372934441827" lon="10.151850233805762"><ele>156.0</ele><time>2026-03-31T16:05:44Z</time></trkpt><trkpt lat="45.583662265409075" lon="10.15181206712517"><ele>156.0</ele><time>2026-03-31T16:05:47Z</time></trkpt><trkpt lat="45.5835927936006" lon="10.15178075580151"><ele>156.0</ele><time>2026-03-31T16:05:50Z</time></trkpt><trkpt lat="45.583512377515646" lon="10.151762642267439"><ele>156.0</ele><time>2026-03-31T16:05:53Z</time></trkpt><trkpt lat="45.583431102744974" lon="10.151717491851906"><ele>156.0</ele><time>2026-03-31T16:05:56Z</time></trkpt><trkpt lat="45.58335345957173" lon="10.151701490924864"><ele>156.0</ele><time>2026-03-31T16:05:59Z</time></trkpt><trkpt lat="45.58327654853" lon="10.151682721041727"><ele>156.0</ele><time>2026-03-31T16:06:03Z</time></trkpt><trkpt lat="45.583220526367775" lon="10.15162395498"><ele>156.0</ele><time>2026-03-31T16:06:07Z</time></trkpt><trkpt lat="45.58315632441422" lon="10.151598317940119"><ele>156.0</ele><time>2026-03-31T16:06:09Z</time></trkpt><trkpt lat="45.58309836561498" lon="10.151562986935536"><ele>156.0</ele><time>2026-03-31T16:06:11Z</time></trkpt><trkpt lat="45.58302763134352" lon="10.15150122433844"><ele>156.0</ele><time>2026-03-31T16:06:14Z</time></trkpt><trkpt lat="45.582957665654874" lon="10.151448307383362"><ele>155.71428571428572</ele><time>2026-03-31T16:06:17Z</time></trkpt><trkpt lat="45.58288515164336" lon="10.151415477905978"><ele>155.42857142857142</ele><time>2026-03-31T16:06:20Z</time></trkpt><trkpt lat="45.5828202768439" lon="10.151381128471488"><ele>155.14285714285714</ele><time>2026-03-31T16:06:23Z</time></trkpt><trkpt lat="45.582756139208655" lon="10.151344364869521"><ele>154.85714285714286</ele><time>2026-03-31T16:06:26Z</time></trkpt><trkpt lat="45.58269592400958" lon="10.15131093210483"><ele>154.57142857142856</ele><time>2026-03-31T16:06:29Z</time></trkpt><trkpt lat="45.582639336929276" lon="10.151262218634583"><ele>154.28571428571428</ele><time>2026-03-31T16:06:32Z</time></trkpt><trkpt lat="45.5825812431892" lon="10.15121086434156"><ele>154.0</ele><time>2026-03-31T16:06:34.997Z</time></trkpt><trkpt lat="45.58252696798498" lon="10.151152140821495"><ele>153.85714285714286</ele><time>2026-03-31T16:06:37.997Z</time></trkpt><trkpt lat="45.58246017568037" lon="10.151084557947291"><ele>153.71428571428572</ele><time>2026-03-31T16:06:41.997Z</time></trkpt><trkpt lat="45.58240703718969" lon="10.151028328034569"><ele>153.57142857142856</ele><time>2026-03-31T16:06:44.997Z</time></trkpt><trkpt lat="45.58235748840897" lon="10.150966451556856"><ele>153.42857142857144</ele><time>2026-03-31T16:06:47.997Z</time></trkpt><trkpt lat="45.58229986010741" lon="10.150914840188742"><ele>153.28571428571428</ele><time>2026-03-31T16:06:50.997Z</time></trkpt><trkpt lat="45.58224620382043" lon="10.150829129966557"><ele>153.14285714285714</ele><time>2026-03-31T16:06:54.997Z</time></trkpt><trkpt lat="45.58219099278598" lon="10.150773723539226"><ele>153.0</ele><time>2026-03-31T16:06:57.997Z</time></trkpt><trkpt lat="45.58213648102834" lon="10.150713783335686"><ele>152.85714285714286</ele><time>2026-03-31T16:07:00.997Z</time></trkpt><trkpt lat="45.58209577121761" lon="10.150639593146812"><ele>152.71428571428572</ele><time>2026-03-31T16:07:03.997Z</time></trkpt><trkpt lat="45.58204431487186" lon="10.150570755387085"><ele>152.57142857142856</ele><time>2026-03-31T16:07:06.997Z</time></trkpt><trkpt lat="45.58200055496686" lon="10.150495787957222"><ele>152.42857142857144</ele><time>2026-03-31T16:07:09.997Z</time></trkpt><trkpt lat="45.58195518742752" lon="10.150433388347386"><ele>152.2857142857143</ele><time>2026-03-31T16:07:12.997Z</time></trkpt><trkpt lat="45.58190308264222" lon="10.15037832177332"><ele>152.14285714285714</ele><time>2026-03-31T16:07:15.997Z</time></trkpt><trkpt lat="45.58184944329439" lon="10.150312207910824"><ele>152.0</ele><time>2026-03-31T16:07:18.997Z</time></trkpt><trkpt lat="45.58182373998285" lon="10.150205943366057"><ele>151.42857142857142</ele><time>2026-03-31T16:07:22.996Z</time></trkpt><trkpt lat="45.581821449842316" lon="10.15009683966385"><ele>150.85714285714286</ele><time>2026-03-31T16:07:25.996Z</time></trkpt><trkpt lat="45.58181190419091" lon="10.150000737571892"><ele>150.28571428571428</ele><time>2026-03-31T16:07:28.996Z</time></trkpt><trkpt lat="45.58180950043198" lon="10.149899302232608"><ele>149.71428571428572</ele><time>2026-03-31T16:07:31.996Z</time></trkpt><trkpt lat="45.58179657966577" lon="10.149804342619857"><ele>149.14285714285714</ele><time>2026-03-31T16:07:34.996Z</time></trkpt><trkpt lat="45.58179715869918" lon="10.149709007675279"><ele>148.57142857142858</ele><time>2026-03-31T16:07:37.996Z</time></trkpt><trkpt lat="45.5817983828011" lon="10.149601642931744"><ele>148.0</ele><time>2026-03-31T16:07:40.996Z</time></trkpt><trkpt lat="45.58180283351599" lon="10.149491229572783"><ele>147.83333333333334</ele><time>2026-03-31T16:07:43.996Z</time></trkpt><trkpt lat="45.58179850572417" lon="10.149379380994542"><ele>147.66666666666669</ele><time>2026-03-31T16:07:46.996Z</time></trkpt><trkpt lat="45.581806652187275" lon="10.149264663075536"><ele>147.5</ele><time>2026-03-31T16:07:49.996Z</time></trkpt><trkpt lat="45.58180341366" lon="10.14915489524091"><ele>147.33333333333334</ele><time>2026-03-31T16:07:52.996Z</time></trkpt><trkpt lat="45.58180401414875" lon="10.149043012021234"><ele>147.16666666666666</ele><time>2026-03-31T16:07:55.996Z</time></trkpt><trkpt lat="45.5817926320153" lon="10.148940381123424"><ele>147.0</ele><time>2026-03-31T16:07:58.996Z</time></trkpt><trkpt lat="45.58179141124622" lon="10.148832577049541"><ele>146.83333333333334</ele><time>2026-03-31T16:08:01.996Z</time></trkpt><trkpt lat="45.581787298626345" lon="10.14874083689467"><ele>146.66666666666666</ele><time>2026-03-31T16:08:03.996Z</time></trkpt><trkpt lat="45.58178695349487" lon="10.148638537259178"><ele>146.5</ele><time>2026-03-31T16:08:05.996Z</time></trkpt><trkpt lat="45.58177772242379" lon="10.148505536636163"><ele>146.33333333333331</ele><time>2026-03-31T16:08:08.996Z</time></trkpt><trkpt lat="45.581774009171305" lon="10.148375490440632"><ele>146.16666666666666</ele><time>2026-03-31T16:08:11.996Z</time></trkpt><trkpt lat="45.5817616746188" lon="10.148260445534495"><ele>146.0</ele><time>2026-03-31T16:08:14.996Z</time></trkpt><trkpt lat="45.58176404947449" lon="10.148140394994877"><ele>146.0</ele><time>2026-03-31T16:08:17.996Z</time></trkpt><trkpt lat="45.58177371210466" lon="10.148023521487383"><ele>146.0</ele><time>2026-03-31T16:08:20.996Z</time></trkpt><trkpt lat="45.58179519576923" lon="10.147899687734702"><ele>146.0</ele><time>2026-03-31T16:08:23.996Z</time></trkpt><trkpt lat="45.5818035339426" lon="10.147788157906806"><ele>146.0</ele><time>2026-03-31T16:08:26.996Z</time></trkpt><trkpt lat="45.58180837892457" lon="10.14766953431713"><ele>146.0</ele><time>2026-03-31T16:08:29.996Z</time></trkpt><trkpt lat="45.5818224643065" lon="10.147550743206962"><ele>146.0</ele><time>2026-03-31T16:08:32.996Z</time></trkpt><trkpt lat="45.58183637762364" lon="10.147437456603488"><ele>146.0</ele><time>2026-03-31T16:08:35.996Z</time></trkpt><trkpt lat="45.581882347690765" lon="10.147363842868902"><ele>146.0</ele><time>2026-03-31T16:08:37.996Z</time></trkpt><trkpt lat="45.58196641200806" lon="10.147351581977167"><ele>146.0</ele><time>2026-03-31T16:08:40.996Z</time></trkpt><trkpt lat="45.582042671045265" lon="10.147360430221953"><ele>146.0</ele><time>2026-03-31T16:08:43.996Z</time></trkpt><trkpt lat="45.58212699078032" lon="10.14735896005645"><ele>146.0</ele><time>2026-03-31T16:08:46.996Z</time></trkpt><trkpt lat="45.58220142957519" lon="10.147354983494678"><ele>146.0</ele><time>2026-03-31T16:08:49.996Z</time></trkpt><trkpt lat="45.58227084436038" lon="10.147346788114154"><ele>146.0</ele><time>2026-03-31T16:08:52.996Z</time></trkpt><trkpt lat="45.58229775225014" lon="10.147252010982843"><ele>146.0</ele><time>2026-03-31T16:08:55.996Z</time></trkpt><trkpt lat="45.58228780121289" lon="10.147152931028275"><ele>146.0</ele><time>2026-03-31T16:08:58.996Z</time></trkpt><trkpt lat="45.582290698732486" lon="10.147049199994008"><ele>146.0</ele><time>2026-03-31T16:09:01.996Z</time></trkpt><trkpt lat="45.58229536239989" lon="10.146959165958785"><ele>146.0</ele><time>2026-03-31T16:09:04.996Z</time></trkpt><trkpt lat="45.58228925328188" lon="10.146835773673438"><ele>146.0</ele><time>2026-03-31T16:09:08.996Z</time></trkpt><trkpt lat="45.58228602495714" lon="10.146726285067485"><ele>146.0</ele><time>2026-03-31T16:09:11.996Z</time></trkpt><trkpt lat="45.582285609419614" lon="10.146613804610825"><ele>146.14285714285714</ele><time>2026-03-31T16:09:14.996Z</time></trkpt><trkpt lat="45.582272970133744" lon="10.146510375708546"><ele>146.28571428571428</ele><time>2026-03-31T16:09:17.996Z</time></trkpt><trkpt lat="45.58226497477708" lon="10.146409742485803"><ele>146.42857142857144</ele><time>2026-03-31T16:09:20.996Z</time></trkpt><trkpt lat="45.58226864726998" lon="10.146306481513355"><ele>146.57142857142856</ele><time>2026-03-31T16:09:23.996Z</time></trkpt><trkpt lat="45.582257875136044" lon="10.146201854467563"><ele>146.71428571428572</ele><time>2026-03-31T16:09:26.995Z</time></trkpt><trkpt lat="45.58226713210247" lon="10.146097615890506"><ele>146.85714285714286</ele><time>2026-03-31T16:09:29.996Z</time></trkpt><trkpt lat="45.5822637839373" lon="10.145988852925553"><ele>147.0</ele><time>2026-03-31T16:09:32.995Z</time></trkpt><trkpt lat="45.58226492076852" lon="10.145875226756528"><ele>147.0</ele><time>2026-03-31T16:09:35.996Z</time></trkpt><trkpt lat="45.58223884249673" lon="10.145769110609724"><ele>147.0</ele><time>2026-03-31T16:09:38.996Z</time></trkpt><trkpt lat="45.58218569355318" lon="10.145691515801559"><ele>147.0</ele><time>2026-03-31T16:09:41.995Z</time></trkpt><trkpt lat="45.582132578115235" lon="10.145622035099029"><ele>147.0</ele><time>2026-03-31T16:09:44.995Z</time></trkpt><trkpt lat="45.582067803809984" lon="10.145556817318948"><ele>147.0</ele><time>2026-03-31T16:09:47.995Z</time></trkpt><trkpt lat="45.582011679242804" lon="10.145492458629294"><ele>147.0</ele><time>2026-03-31T16:09:50.995Z</time></trkpt><trkpt lat="45.58202359011027" lon="10.145382406117777"><ele>147.14285714285714</ele><time>2026-03-31T16:09:53.995Z</time></trkpt><trkpt lat="45.58205279677632" lon="10.145284694113235"><ele>147.28571428571428</ele><time>2026-03-31T16:09:56.995Z</time></trkpt><trkpt lat="45.58205469672434" lon="10.145193288969889"><ele>147.42857142857144</ele><time>2026-03-31T16:09:59.995Z</time></trkpt><trkpt lat="45.58204576610231" lon="10.145094655715619"><ele>147.57142857142856</ele><time>2026-03-31T16:10:03.995Z</time></trkpt><trkpt lat="45.58203382327231" lon="10.144994903147511"><ele>147.71428571428572</ele><time>2026-03-31T16:10:06.995Z</time></trkpt><trkpt lat="45.58202059832927" lon="10.14490146313391"><ele>147.85714285714286</ele><time>2026-03-31T16:10:09.995Z</time></trkpt><trkpt lat="45.58200480813407" lon="10.14479461291176"><ele>148.0</ele><time>2026-03-31T16:10:12.995Z</time></trkpt><trkpt lat="45.5819911316821" lon="10.144697368288513"><ele>147.42857142857144</ele><time>2026-03-31T16:10:15.995Z</time></trkpt><trkpt lat="45.581983850318984" lon="10.14460017658386"><ele>146.85714285714286</ele><time>2026-03-31T16:10:18.995Z</time></trkpt><trkpt lat="45.581982034053524" lon="10.144497618219294"><ele>146.28571428571428</ele><time>2026-03-31T16:10:21.995Z</time></trkpt><trkpt lat="45.58198932486164" lon="10.144390587508033"><ele>145.71428571428572</ele><time>2026-03-31T16:10:24.995Z</time></trkpt><trkpt lat="45.58198074826398" lon="10.144280414178041"><ele>145.14285714285714</ele><time>2026-03-31T16:10:27.995Z</time></trkpt><trkpt lat="45.58198861769196" lon="10.144179054104894"><ele>144.57142857142858</ele><time>2026-03-31T16:10:30.995Z</time></trkpt><trkpt lat="45.58199326027564" lon="10.14408119139773"><ele>144.0</ele><time>2026-03-31T16:10:33.995Z</time></trkpt><trkpt lat="45.58199818232911" lon="10.143986022798405"><ele>144.0</ele><time>2026-03-31T16:10:36.995Z</time></trkpt><trkpt lat="45.58201584397432" lon="10.143885336601487"><ele>144.0</ele><time>2026-03-31T16:10:39.995Z</time></trkpt><trkpt lat="45.582030461209854" lon="10.143770470543148"><ele>144.0</ele><time>2026-03-31T16:10:42.995Z</time></trkpt><trkpt lat="45.58204606802938" lon="10.143650722826775"><ele>144.0</ele><time>2026-03-31T16:10:45.995Z</time></trkpt><trkpt lat="45.58206665881518" lon="10.143540544353685"><ele>144.0</ele><time>2026-03-31T16:10:48.995Z</time></trkpt><trkpt lat="45.582074752943285" lon="10.143423068637176"><ele>144.0</ele><time>2026-03-31T16:10:51.995Z</time></trkpt><trkpt lat="45.58208253096481" lon="10.143308672507725"><ele>144.2857142857143</ele><time>2026-03-31T16:10:54.995Z</time></trkpt><trkpt lat="45.58208804554905" lon="10.143189887306741"><ele>144.57142857142858</ele><time>2026-03-31T16:10:57.995Z</time></trkpt><trkpt lat="45.58209426141142" lon="10.143085901319061"><ele>144.85714285714286</ele><time>2026-03-31T16:11:00.995Z</time></trkpt><trkpt lat="45.582104316387365" lon="10.142987277054853"><ele>145.14285714285717</ele><time>2026-03-31T16:11:03.995Z</time></trkpt><trkpt lat="45.582114616602055" lon="10.142892714415984"><ele>145.42857142857144</ele><time>2026-03-31T16:11:06.995Z</time></trkpt><trkpt lat="45.582137295538736" lon="10.142792825175912"><ele>145.71428571428572</ele><time>2026-03-31T16:11:09.995Z</time></trkpt><trkpt lat="45.58214978423622" lon="10.142688265730992"><ele>146.0</ele><time>2026-03-31T16:11:12.995Z</time></trkpt><trkpt lat="45.58215219977059" lon="10.142580978637532"><ele>146.0</ele><time>2026-03-31T16:11:15.995Z</time></trkpt><trkpt lat="45.58216326879858" lon="10.142481986211926"><ele>146.0</ele><time>2026-03-31T16:11:18.995Z</time></trkpt><trkpt lat="45.58217016436494" lon="10.142362132715816"><ele>146.0</ele><time>2026-03-31T16:11:22.995Z</time></trkpt><trkpt lat="45.582182439591804" lon="10.14226101259285"><ele>146.0</ele><time>2026-03-31T16:11:25.995Z</time></trkpt><trkpt lat="45.58219885838672" lon="10.142152002957216"><ele>146.0</ele><time>2026-03-31T16:11:29.995Z</time></trkpt><trkpt lat="45.58221020955219" lon="10.14204418329672"><ele>146.0</ele><time>2026-03-31T16:11:32.995Z</time></trkpt><trkpt lat="45.582211855622184" lon="10.141921541955847"><ele>146.16666666666666</ele><time>2026-03-31T16:11:35.995Z</time></trkpt><trkpt lat="45.58221555105422" lon="10.141797518718864"><ele>146.33333333333331</ele><time>2026-03-31T16:11:38.996Z</time></trkpt><trkpt lat="45.58221123200396" lon="10.14168585771422"><ele>146.5</ele><time>2026-03-31T16:11:41.995Z</time></trkpt><trkpt lat="45.58220705776076" lon="10.141572200327035"><ele>146.66666666666666</ele><time>2026-03-31T16:11:44.996Z</time></trkpt><trkpt lat="45.5822088968864" lon="10.141472481082191"><ele>146.83333333333334</ele><time>2026-03-31T16:11:47.995Z</time></trkpt><trkpt lat="45.58220134649671" lon="10.141370069048545"><ele>147.0</ele><time>2026-03-31T16:11:50.995Z</time></trkpt><trkpt lat="45.58220462335611" lon="10.141274668859793"><ele>147.0</ele><time>2026-03-31T16:11:53.995Z</time></trkpt><trkpt lat="45.5822097736287" lon="10.141148540985444"><ele>147.0</ele><time>2026-03-31T16:11:57.995Z</time></trkpt><trkpt lat="45.58221119759604" lon="10.141043095226186"><ele>147.0</ele><time>2026-03-31T16:12:00.995Z</time></trkpt><trkpt lat="45.58222008346422" lon="10.140940110872409"><ele>147.0</ele><time>2026-03-31T16:12:03.995Z</time></trkpt><trkpt lat="45.582230847744434" lon="10.140835950176001"><ele>147.0</ele><time>2026-03-31T16:12:06.995Z</time></trkpt><trkpt lat="45.5822452534221" lon="10.140737948170454"><ele>147.0</ele><time>2026-03-31T16:12:09.995Z</time></trkpt><trkpt lat="45.5822539752356" lon="10.14063278625752"><ele>147.0</ele><time>2026-03-31T16:12:12.995Z</time></trkpt><trkpt lat="45.582271043556894" lon="10.140529632045144"><ele>147.0</ele><time>2026-03-31T16:12:15.995Z</time></trkpt><trkpt lat="45.58228667275076" lon="10.14042939860605"><ele>147.0</ele><time>2026-03-31T16:12:18.995Z</time></trkpt><trkpt lat="45.58230170428846" lon="10.140328546915455"><ele>147.0</ele><time>2026-03-31T16:12:21.995Z</time></trkpt><trkpt lat="45.582318316333506" lon="10.140229162141875"><ele>147.0</ele><time>2026-03-31T16:12:24.995Z</time></trkpt><trkpt lat="45.58232990817312" lon="10.140137518402526"><ele>147.0</ele><time>2026-03-31T16:12:27.995Z</time></trkpt><trkpt lat="45.58235010401556" lon="10.140020474075934"><ele>147.0</ele><time>2026-03-31T16:12:31.995Z</time></trkpt><trkpt lat="45.58237105153548" lon="10.139933516591531"><ele>147.14285714285714</ele><time>2026-03-31T16:12:34.995Z</time></trkpt><trkpt lat="45.58238850269191" lon="10.139839052488728"><ele>147.28571428571428</ele><time>2026-03-31T16:12:37.995Z</time></trkpt><trkpt lat="45.58241344248013" lon="10.139741073883144"><ele>147.42857142857144</ele><time>2026-03-31T16:12:40.995Z</time></trkpt><trkpt lat="45.58243000673474" lon="10.13964942058517"><ele>147.57142857142856</ele><time>2026-03-31T16:12:43.995Z</time></trkpt><trkpt lat="45.58244172706218" lon="10.139545209420797"><ele>147.71428571428572</ele><time>2026-03-31T16:12:46.995Z</time></trkpt><trkpt lat="45.58245734841872" lon="10.139435619166054"><ele>147.85714285714286</ele><time>2026-03-31T16:12:49.995Z</time></trkpt><trkpt lat="45.58248166972605" lon="10.139340959713845"><ele>148.0</ele><time>2026-03-31T16:12:52.995Z</time></trkpt><trkpt lat="45.582490371713654" lon="10.139239367819886"><ele>148.0</ele><time>2026-03-31T16:12:55.995Z</time></trkpt><trkpt lat="45.582508730737125" lon="10.139143168226324"><ele>148.0</ele><time>2026-03-31T16:12:58.995Z</time></trkpt><trkpt lat="45.58253564239198" lon="10.139034524468636"><ele>148.0</ele><time>2026-03-31T16:13:02.995Z</time></trkpt><trkpt lat="45.58255908143092" lon="10.138946338514366"><ele>148.0</ele><time>2026-03-31T16:13:05.995Z</time></trkpt><trkpt lat="45.58259643373201" lon="10.13887104238962"><ele>148.0</ele><time>2026-03-31T16:13:08.995Z</time></trkpt><trkpt lat="45.582632172898755" lon="10.138785672201392"><ele>148.0</ele><time>2026-03-31T16:13:11.995Z</time></trkpt><trkpt lat="45.58267205009931" lon="10.138709163349116"><ele>148.0</ele><time>2026-03-31T16:13:14.995Z</time></trkpt><trkpt lat="45.58271152129484" lon="10.138626824500857"><ele>148.0</ele><time>2026-03-31T16:13:17.995Z</time></trkpt><trkpt lat="45.58275068323671" lon="10.138546007214627"><ele>148.0</ele><time>2026-03-31T16:13:20.995Z</time></trkpt><trkpt lat="45.58279310611697" lon="10.13846090013281"><ele>148.0</ele><time>2026-03-31T16:13:23.995Z</time></trkpt><trkpt lat="45.5828442074839" lon="10.138389609460974"><ele>148.0</ele><time>2026-03-31T16:13:26.995Z</time></trkpt><trkpt lat="45.58288636126973" lon="10.13831668869107"><ele>148.0</ele><time>2026-03-31T16:13:29.995Z</time></trkpt><trkpt lat="45.582927406899316" lon="10.138232395881207"><ele>148.0</ele><time>2026-03-31T16:13:32.995Z</time></trkpt><trkpt lat="45.582971718257646" lon="10.138142420892915"><ele>148.0</ele><time>2026-03-31T16:13:35.995Z</time></trkpt><trkpt lat="45.5830083528703" lon="10.138045326247378"><ele>148.0</ele><time>2026-03-31T16:13:38.995Z</time></trkpt><trkpt lat="45.58303743178447" lon="10.137953657889462"><ele>148.0</ele><time>2026-03-31T16:13:41.996Z</time></trkpt><trkpt lat="45.583058116853316" lon="10.137854805491912"><ele>148.0</ele><time>2026-03-31T16:13:44.996Z</time></trkpt><trkpt lat="45.58308483060145" lon="10.137759757278308"><ele>148.0</ele><time>2026-03-31T16:13:47.995Z</time></trkpt><trkpt lat="45.583117172282925" lon="10.137663628808347"><ele>148.0</ele><time>2026-03-31T16:13:50.995Z</time></trkpt><trkpt lat="45.58314728511991" lon="10.137564278347304"><ele>148.0</ele><time>2026-03-31T16:13:53.995Z</time></trkpt><trkpt lat="45.58317945388058" lon="10.137478401820545"><ele>148.0</ele><time>2026-03-31T16:13:56.995Z</time></trkpt><trkpt lat="45.583204491651706" lon="10.137391501978069"><ele>148.0</ele><time>2026-03-31T16:13:59.995Z</time></trkpt><trkpt lat="45.58323422743714" lon="10.137297167814262"><ele>148.0</ele><time>2026-03-31T16:14:02.995Z</time></trkpt><trkpt lat="45.58325862909004" lon="10.137201203767237"><ele>148.0</ele><time>2026-03-31T16:14:05.995Z</time></trkpt><trkpt lat="45.58329461725332" lon="10.137096597065433"><ele>148.0</ele><time>2026-03-31T16:14:09.995Z</time></trkpt><trkpt lat="45.58331774801808" lon="10.137003875862677"><ele>148.0</ele><time>2026-03-31T16:14:12.995Z</time></trkpt><trkpt lat="45.583337380147555" lon="10.136906664181526"><ele>148.0</ele><time>2026-03-31T16:14:15.995Z</time></trkpt><trkpt lat="45.58335841075768" lon="10.136812054777316"><ele>148.0</ele><time>2026-03-31T16:14:18.995Z</time></trkpt><trkpt lat="45.58337432107887" lon="10.136707006802434"><ele>148.0</ele><time>2026-03-31T16:14:21.995Z</time></trkpt><trkpt lat="45.58338498146686" lon="10.136609822331451"><ele>148.0</ele><time>2026-03-31T16:14:24.995Z</time></trkpt><trkpt lat="45.58339766244947" lon="10.1365066493237"><ele>148.0</ele><time>2026-03-31T16:14:27.995Z</time></trkpt><trkpt lat="45.58340464561078" lon="10.136401038067815"><ele>148.0</ele><time>2026-03-31T16:14:30.995Z</time></trkpt><trkpt lat="45.583415273244036" lon="10.136294932976497"><ele>148.0</ele><time>2026-03-31T16:14:33.995Z</time></trkpt><trkpt lat="45.58343314081471" lon="10.136196187369201"><ele>148.0</ele><time>2026-03-31T16:14:36.995Z</time></trkpt><trkpt lat="45.58344299009974" lon="10.136097504212948"><ele>148.0</ele><time>2026-03-31T16:14:39.995Z</time></trkpt><trkpt lat="45.583457882020994" lon="10.135999574323368"><ele>148.14285714285714</ele><time>2026-03-31T16:14:42.995Z</time></trkpt><trkpt lat="45.583472407371985" lon="10.135898272932687"><ele>148.28571428571428</ele><time>2026-03-31T16:14:45.995Z</time></trkpt><trkpt lat="45.583484451425946" lon="10.13579824607632"><ele>148.42857142857142</ele><time>2026-03-31T16:14:48.995Z</time></trkpt><trkpt lat="45.58350743262526" lon="10.13570153566935"><ele>148.57142857142856</ele><time>2026-03-31T16:14:51.995Z</time></trkpt><trkpt lat="45.58353412200551" lon="10.135602481488075"><ele>148.7142857142857</ele><time>2026-03-31T16:14:54.995Z</time></trkpt><trkpt lat="45.58355502671186" lon="10.13549803372673"><ele>148.85714285714286</ele><time>2026-03-31T16:14:57.995Z</time></trkpt><trkpt lat="45.583570054264015" lon="10.1353981826926"><ele>149.0</ele><time>2026-03-31T16:15:00.995Z</time></trkpt><trkpt lat="45.583593318550356" lon="10.135301562640624"><ele>149.14285714285714</ele><time>2026-03-31T16:15:03.995Z</time></trkpt><trkpt lat="45.58362267293627" lon="10.1352042421395"><ele>149.28571428571428</ele><time>2026-03-31T16:15:06.995Z</time></trkpt><trkpt lat="45.58365088190117" lon="10.135107690478334"><ele>149.42857142857142</ele><time>2026-03-31T16:15:09.995Z</time></trkpt><trkpt lat="45.583678732734185" lon="10.135007959689132"><ele>149.57142857142856</ele><time>2026-03-31T16:15:12.995Z</time></trkpt><trkpt lat="45.58369738551046" lon="10.134907926543127"><ele>149.71428571428572</ele><time>2026-03-31T16:15:15.995Z</time></trkpt><trkpt lat="45.58371193659461" lon="10.134805946446026"><ele>149.85714285714283</ele><time>2026-03-31T16:15:18.995Z</time></trkpt><trkpt lat="45.58372741349289" lon="10.134710252995184"><ele>150.0</ele><time>2026-03-31T16:15:21.995Z</time></trkpt><trkpt lat="45.583745270915756" lon="10.134608112477924"><ele>149.99999999999997</ele><time>2026-03-31T16:15:24.995Z</time></trkpt><trkpt lat="45.583758343450185" lon="10.134509551701713"><ele>150.0</ele><time>2026-03-31T16:15:27.995Z</time></trkpt><trkpt lat="45.58377460486455" lon="10.13441275246411"><ele>150.0</ele><time>2026-03-31T16:15:30.995Z</time></trkpt><trkpt lat="45.58378488731911" lon="10.134312694953199"><ele>150.0</ele><time>2026-03-31T16:15:33.995Z</time></trkpt><trkpt lat="45.583794807015074" lon="10.134215845899078"><ele>150.0</ele><time>2026-03-31T16:15:36.995Z</time></trkpt><trkpt lat="45.5838071407989" lon="10.134114893510015"><ele>149.99999999999997</ele><time>2026-03-31T16:15:39.995Z</time></trkpt><trkpt lat="45.58381791580302" lon="10.134017644642478"><ele>150.0</ele><time>2026-03-31T16:15:42.995Z</time></trkpt><trkpt lat="45.58382042977289" lon="10.133914175834489"><ele>150.28571428571428</ele><time>2026-03-31T16:15:45.995Z</time></trkpt><trkpt lat="45.583831180120775" lon="10.133820936126568"><ele>150.57142857142856</ele><time>2026-03-31T16:15:48.996Z</time></trkpt><trkpt lat="45.583842859132446" lon="10.133706944374405"><ele>150.85714285714283</ele><time>2026-03-31T16:15:52.995Z</time></trkpt><trkpt lat="45.58386099130064" lon="10.13361593441776"><ele>151.14285714285714</ele><time>2026-03-31T16:15:55.995Z</time></trkpt><trkpt lat="45.58388221109663" lon="10.133518959942753"><ele>151.42857142857144</ele><time>2026-03-31T16:15:58.995Z</time></trkpt><trkpt lat="45.58390412191447" lon="10.133403273932263"><ele>151.7142857142857</ele><time>2026-03-31T16:16:01.995Z</time></trkpt><trkpt lat="45.58392099916999" lon="10.13329464814582"><ele>152.0</ele><time>2026-03-31T16:16:04.995Z</time></trkpt><trkpt lat="45.58394503884428" lon="10.133198284339437"><ele>152.14285714285714</ele><time>2026-03-31T16:16:07.995Z</time></trkpt><trkpt lat="45.583977171264586" lon="10.133105972112268"><ele>152.2857142857143</ele><time>2026-03-31T16:16:10.995Z</time></trkpt><trkpt lat="45.58399929757612" lon="10.133007435319884"><ele>152.42857142857144</ele><time>2026-03-31T16:16:13.995Z</time></trkpt><trkpt lat="45.584011745703506" lon="10.132911757863889"><ele>152.57142857142856</ele><time>2026-03-31T16:16:16.995Z</time></trkpt><trkpt lat="45.58400591455484" lon="10.132806295564892"><ele>152.71428571428572</ele><time>2026-03-31T16:16:19.995Z</time></trkpt><trkpt lat="45.58399377199819" lon="10.132701113185425"><ele>152.85714285714286</ele><time>2026-03-31T16:16:22.995Z</time></trkpt><trkpt lat="45.58399191653891" lon="10.132604638724354"><ele>153.0</ele><time>2026-03-31T16:16:25.995Z</time></trkpt><trkpt lat="45.58398734931143" lon="10.132510161317303"><ele>153.0</ele><time>2026-03-31T16:16:28.995Z</time></trkpt><trkpt lat="45.583982312566555" lon="10.132407980695662"><ele>153.0</ele><time>2026-03-31T16:16:31.995Z</time></trkpt><trkpt lat="45.583975694257184" lon="10.132308786211729"><ele>153.0</ele><time>2026-03-31T16:16:34.995Z</time></trkpt><trkpt lat="45.58396801167128" lon="10.132196897557394"><ele>153.0</ele><time>2026-03-31T16:16:37.995Z</time></trkpt><trkpt lat="45.58396334919079" lon="10.132102863517567"><ele>153.0</ele><time>2026-03-31T16:16:40.995Z</time></trkpt><trkpt lat="45.58396009607903" lon="10.131992461788718"><ele>153.0</ele><time>2026-03-31T16:16:43.995Z</time></trkpt><trkpt lat="45.583956274435394" lon="10.13188608589375"><ele>153.0</ele><time>2026-03-31T16:16:46.995Z</time></trkpt><trkpt lat="45.58395905306444" lon="10.131782238752685"><ele>152.85714285714286</ele><time>2026-03-31T16:16:49.995Z</time></trkpt><trkpt lat="45.58395829234268" lon="10.131682158860256"><ele>152.71428571428572</ele><time>2026-03-31T16:16:52.995Z</time></trkpt><trkpt lat="45.583961302821216" lon="10.13157084217466"><ele>152.57142857142856</ele><time>2026-03-31T16:16:55.995Z</time></trkpt><trkpt lat="45.58396549140861" lon="10.131468653625868"><ele>152.42857142857144</ele><time>2026-03-31T16:16:58.995Z</time></trkpt><trkpt lat="45.58396364449559" lon="10.131356212495598"><ele>152.2857142857143</ele><time>2026-03-31T16:17:01.995Z</time></trkpt><trkpt lat="45.58396386205616" lon="10.131253474213185"><ele>152.14285714285714</ele><time>2026-03-31T16:17:04.995Z</time></trkpt><trkpt lat="45.583962010472206" lon="10.131153498315472"><ele>152.0</ele><time>2026-03-31T16:17:07.995Z</time></trkpt><trkpt lat="45.583961161771796" lon="10.131047797482498"><ele>152.0</ele><time>2026-03-31T16:17:10.995Z</time></trkpt><trkpt lat="45.58396708812718" lon="10.13094839515244"><ele>152.0</ele><time>2026-03-31T16:17:13.995Z</time></trkpt><trkpt lat="45.58396321068734" lon="10.130845650949746"><ele>152.0</ele><time>2026-03-31T16:17:16.995Z</time></trkpt><trkpt lat="45.58396265345596" lon="10.130734928619978"><ele>152.0</ele><time>2026-03-31T16:17:19.995Z</time></trkpt><trkpt lat="45.58396435661665" lon="10.130639465137333"><ele>152.0</ele><time>2026-03-31T16:17:22.995Z</time></trkpt><trkpt lat="45.58396098014385" lon="10.13053680549623"><ele>152.0</ele><time>2026-03-31T16:17:25.995Z</time></trkpt><trkpt lat="45.583958394880625" lon="10.130425367754809"><ele>152.0</ele><time>2026-03-31T16:17:28.995Z</time></trkpt><trkpt lat="45.583947269873164" lon="10.130318419572017"><ele>152.0</ele><time>2026-03-31T16:17:31.995Z</time></trkpt><trkpt lat="45.583884620911384" lon="10.130295815212868"><ele>152.0</ele><time>2026-03-31T16:17:33.995Z</time></trkpt><trkpt lat="45.58381132677103" lon="10.130318449149748"><ele>152.0</ele><time>2026-03-31T16:17:36.995Z</time></trkpt><trkpt lat="45.58374109457446" lon="10.130331942234331"><ele>152.0</ele><time>2026-03-31T16:17:39.995Z</time></trkpt><trkpt lat="45.58367174712458" lon="10.130369085417328"><ele>152.0</ele><time>2026-03-31T16:17:42.995Z</time></trkpt><trkpt lat="45.58360282672024" lon="10.130407697131053"><ele>152.0</ele><time>2026-03-31T16:17:45.995Z</time></trkpt><trkpt lat="45.58352812011181" lon="10.130433651191336"><ele>152.0</ele><time>2026-03-31T16:17:48.995Z</time></trkpt><trkpt lat="45.58346133556733" lon="10.130470502248995"><ele>151.85714285714286</ele><time>2026-03-31T16:17:51.995Z</time></trkpt><trkpt lat="45.583390170101275" lon="10.130499252541844"><ele>151.71428571428572</ele><time>2026-03-31T16:17:54.995Z</time></trkpt><trkpt lat="45.5833220933253" lon="10.130511542525728"><ele>151.57142857142858</ele><time>2026-03-31T16:17:57.995Z</time></trkpt><trkpt lat="45.58324318539991" lon="10.130518538024464"><ele>151.42857142857144</ele><time>2026-03-31T16:18:00.995Z</time></trkpt><trkpt lat="45.58317088847178" lon="10.130533492644608"><ele>151.28571428571428</ele><time>2026-03-31T16:18:03.995Z</time></trkpt><trkpt lat="45.58309771601481" lon="10.130539927584763"><ele>151.14285714285717</ele><time>2026-03-31T16:18:06.995Z</time></trkpt><trkpt lat="45.583024380458674" lon="10.1305351186121"><ele>151.0</ele><time>2026-03-31T16:18:09.995Z</time></trkpt><trkpt lat="45.58294678820295" lon="10.130539527612308"><ele>151.00000000000003</ele><time>2026-03-31T16:18:12.995Z</time></trkpt><trkpt lat="45.582871856481205" lon="10.130553293820435"><ele>151.0</ele><time>2026-03-31T16:18:15.995Z</time></trkpt><trkpt lat="45.58280170495616" lon="10.130557573878605"><ele>151.0</ele><time>2026-03-31T16:18:18.995Z</time></trkpt><trkpt lat="45.5827273179145" lon="10.130565014991225"><ele>151.0</ele><time>2026-03-31T16:18:21.995Z</time></trkpt><trkpt lat="45.582658100332004" lon="10.130567574865056"><ele>151.0</ele><time>2026-03-31T16:18:24.995Z</time></trkpt><trkpt lat="45.582581740185354" lon="10.130578029143384"><ele>151.00000000000003</ele><time>2026-03-31T16:18:27.995Z</time></trkpt><trkpt lat="45.5825090954429" lon="10.130586253969541"><ele>151.0</ele><time>2026-03-31T16:18:30.995Z</time></trkpt><trkpt lat="45.58243801071304" lon="10.130591347294882"><ele>151.2857142857143</ele><time>2026-03-31T16:18:33.995Z</time></trkpt><trkpt lat="45.58236685098142" lon="10.130598871486292"><ele>151.57142857142858</ele><time>2026-03-31T16:18:36.995Z</time></trkpt><trkpt lat="45.58229535397321" lon="10.130612782091307"><ele>151.85714285714286</ele><time>2026-03-31T16:18:39.995Z</time></trkpt><trkpt lat="45.582227843648695" lon="10.130621391199979"><ele>152.14285714285717</ele><time>2026-03-31T16:18:42.995Z</time></trkpt><trkpt lat="45.58215217839025" lon="10.130644297747047"><ele>152.42857142857144</ele><time>2026-03-31T16:18:45.995Z</time></trkpt><trkpt lat="45.5820913881538" lon="10.130678260565269"><ele>152.71428571428572</ele><time>2026-03-31T16:18:48.995Z</time></trkpt><trkpt lat="45.58202566851696" lon="10.130718136904369"><ele>153.0</ele><time>2026-03-31T16:18:51.995Z</time></trkpt><trkpt lat="45.58196592272346" lon="10.130760128526058"><ele>152.33333333333334</ele><time>2026-03-31T16:18:54.995Z</time></trkpt><trkpt lat="45.58188630983951" lon="10.130801638933155"><ele>151.66666666666666</ele><time>2026-03-31T16:18:58.995Z</time></trkpt><trkpt lat="45.581821850893796" lon="10.130825332361455"><ele>151.0</ele><time>2026-03-31T16:19:01.995Z</time></trkpt><trkpt lat="45.58175988033881" lon="10.130855939082748"><ele>150.33333333333331</ele><time>2026-03-31T16:19:04.995Z</time></trkpt><trkpt lat="45.58168282685663" lon="10.130906252199289"><ele>149.66666666666666</ele><time>2026-03-31T16:19:08.995Z</time></trkpt><trkpt lat="45.58161671457653" lon="10.13096418255866"><ele>149.0</ele><time>2026-03-31T16:19:11.995Z</time></trkpt><trkpt lat="45.58154896289829" lon="10.131034493143945"><ele>149.0</ele><time>2026-03-31T16:19:14.995Z</time></trkpt><trkpt lat="45.58149308483609" lon="10.131104515853993"><ele>149.0</ele><time>2026-03-31T16:19:17.995Z</time></trkpt><trkpt lat="45.58143177930373" lon="10.131158883547666"><ele>149.0</ele><time>2026-03-31T16:19:20.995Z</time></trkpt><trkpt lat="45.58137177539804" lon="10.131227396283752"><ele>149.0</ele><time>2026-03-31T16:19:23.995Z</time></trkpt><trkpt lat="45.58131484649623" lon="10.13129316749919"><ele>149.0</ele><time>2026-03-31T16:19:26.995Z</time></trkpt><trkpt lat="45.58126088660627" lon="10.131357995528013"><ele>149.0</ele><time>2026-03-31T16:19:29.995Z</time></trkpt><trkpt lat="45.58120311129513" lon="10.131418819926221"><ele>149.0</ele><time>2026-03-31T16:19:32.995Z</time></trkpt><trkpt lat="45.58114997427147" lon="10.131484105519414"><ele>149.0</ele><time>2026-03-31T16:19:35.995Z</time></trkpt><trkpt lat="45.5810876123208" lon="10.131529150089307"><ele>149.0</ele><time>2026-03-31T16:19:38.995Z</time></trkpt><trkpt lat="45.58101417062295" lon="10.131589489890537"><ele>149.0</ele><time>2026-03-31T16:19:42.995Z</time></trkpt><trkpt lat="45.58095318157015" lon="10.13163581525422"><ele>149.0</ele><time>2026-03-31T16:19:45.995Z</time></trkpt><trkpt lat="45.58089604007775" lon="10.13170627311065"><ele>149.0</ele><time>2026-03-31T16:19:48.995Z</time></trkpt><trkpt lat="45.58083894873671" lon="10.131764064346644"><ele>149.0</ele><time>2026-03-31T16:19:51.995Z</time></trkpt><trkpt lat="45.58077669925109" lon="10.131824531967014"><ele>149.0</ele><time>2026-03-31T16:19:54.995Z</time></trkpt><trkpt lat="45.580711707837814" lon="10.131893274817369"><ele>148.66666666666666</ele><time>2026-03-31T16:19:57.995Z</time></trkpt><trkpt lat="45.58064243198026" lon="10.131956694633272"><ele>148.33333333333331</ele><time>2026-03-31T16:20:00.995Z</time></trkpt><trkpt lat="45.5805861927527" lon="10.132025759616718"><ele>148.0</ele><time>2026-03-31T16:20:03.995Z</time></trkpt><trkpt lat="45.58052221524091" lon="10.132100465877654"><ele>147.66666666666666</ele><time>2026-03-31T16:20:06.995Z</time></trkpt><trkpt lat="45.58045800220902" lon="10.132155744459"><ele>147.33333333333334</ele><time>2026-03-31T16:20:09.995Z</time></trkpt><trkpt lat="45.58038793159417" lon="10.132213628692192"><ele>147.0</ele><time>2026-03-31T16:20:12.995Z</time></trkpt><trkpt lat="45.58031584899091" lon="10.132263075840147"><ele>147.0</ele><time>2026-03-31T16:20:15.995Z</time></trkpt><trkpt lat="45.58024214734534" lon="10.132302677191552"><ele>147.0</ele><time>2026-03-31T16:20:18.995Z</time></trkpt><trkpt lat="45.58017048413164" lon="10.132343881912115"><ele>147.0</ele><time>2026-03-31T16:20:21.995Z</time></trkpt><trkpt lat="45.58009814464826" lon="10.13238741339006"><ele>147.0</ele><time>2026-03-31T16:20:24.995Z</time></trkpt><trkpt lat="45.58002790594961" lon="10.13242825397814"><ele>147.0</ele><time>2026-03-31T16:20:27.995Z</time></trkpt><trkpt lat="45.57995322093536" lon="10.132453162492025"><ele>147.0</ele><time>2026-03-31T16:20:30.995Z</time></trkpt><trkpt lat="45.57988875338187" lon="10.132484010071986"><ele>147.14285714285714</ele><time>2026-03-31T16:20:33.995Z</time></trkpt><trkpt lat="45.57981408228532" lon="10.13251633119231"><ele>147.28571428571428</ele><time>2026-03-31T16:20:36.995Z</time></trkpt><trkpt lat="45.57974570506852" lon="10.132554327051071"><ele>147.42857142857144</ele><time>2026-03-31T16:20:39.995Z</time></trkpt><trkpt lat="45.57967575138393" lon="10.13259179997563"><ele>147.57142857142856</ele><time>2026-03-31T16:20:42.995Z</time></trkpt><trkpt lat="45.57961326533951" lon="10.13262888228146"><ele>147.71428571428572</ele><time>2026-03-31T16:20:45.995Z</time></trkpt><trkpt lat="45.57954243757711" lon="10.13266372191558"><ele>147.85714285714286</ele><time>2026-03-31T16:20:48.995Z</time></trkpt><trkpt lat="45.579479486613735" lon="10.132705821755653"><ele>148.0</ele><time>2026-03-31T16:20:51.995Z</time></trkpt><trkpt lat="45.57940293330351" lon="10.132736859495425"><ele>148.14285714285714</ele><time>2026-03-31T16:20:54.995Z</time></trkpt><trkpt lat="45.57932634354809" lon="10.132767430040602"><ele>148.28571428571428</ele><time>2026-03-31T16:20:57.995Z</time></trkpt><trkpt lat="45.579250469552555" lon="10.132767285986265"><ele>148.42857142857142</ele><time>2026-03-31T16:21:00.995Z</time></trkpt><trkpt lat="45.57917402965919" lon="10.132776209724177"><ele>148.57142857142856</ele><time>2026-03-31T16:21:03.995Z</time></trkpt><trkpt lat="45.57910227880182" lon="10.132772484589141"><ele>148.7142857142857</ele><time>2026-03-31T16:21:06.995Z</time></trkpt><trkpt lat="45.57903159440921" lon="10.132780106360416"><ele>148.85714285714286</ele><time>2026-03-31T16:21:09.995Z</time></trkpt><trkpt lat="45.57896271000093" lon="10.13278227291609"><ele>149.0</ele><time>2026-03-31T16:21:12.995Z</time></trkpt><trkpt lat="45.57888430268815" lon="10.132784449607938"><ele>149.0</ele><time>2026-03-31T16:21:15.995Z</time></trkpt><trkpt lat="45.57881335046727" lon="10.132780721677575"><ele>149.0</ele><time>2026-03-31T16:21:18.995Z</time></trkpt><trkpt lat="45.578733698320704" lon="10.132790664948136"><ele>149.0</ele><time>2026-03-31T16:21:21.995Z</time></trkpt><trkpt lat="45.57865616629437" lon="10.132790613468321"><ele>149.0</ele><time>2026-03-31T16:21:24.995Z</time></trkpt><trkpt lat="45.57857982395907" lon="10.132800872437988"><ele>149.0</ele><time>2026-03-31T16:21:27.995Z</time></trkpt><trkpt lat="45.57850815578278" lon="10.132800795332928"><ele>149.0</ele><time>2026-03-31T16:21:30.995Z</time></trkpt><trkpt lat="45.57843453987302" lon="10.13280242096389"><ele>148.83333333333331</ele><time>2026-03-31T16:21:33.995Z</time></trkpt><trkpt lat="45.57835364239378" lon="10.13280446401482"><ele>148.66666666666666</ele><time>2026-03-31T16:21:36.995Z</time></trkpt><trkpt lat="45.57827723567493" lon="10.132809962169016"><ele>148.5</ele><time>2026-03-31T16:21:39.995Z</time></trkpt><trkpt lat="45.57821379784178" lon="10.132817466533494"><ele>148.33333333333334</ele><time>2026-03-31T16:21:42.995Z</time></trkpt><trkpt lat="45.57813592383537" lon="10.132820552618563"><ele>148.16666666666669</ele><time>2026-03-31T16:21:45.995Z</time></trkpt><trkpt lat="45.57805811883392" lon="10.132830273199081"><ele>148.0</ele><time>2026-03-31T16:21:48.995Z</time></trkpt><trkpt lat="45.57798497696461" lon="10.132834672163744"><ele>148.0</ele><time>2026-03-31T16:21:51.995Z</time></trkpt><trkpt lat="45.577907184117244" lon="10.132843671756833"><ele>148.0</ele><time>2026-03-31T16:21:54.995Z</time></trkpt><trkpt lat="45.57783436594974" lon="10.132844866148826"><ele>148.0</ele><time>2026-03-31T16:21:57.995Z</time></trkpt><trkpt lat="45.57776058864135" lon="10.13284211854862"><ele>148.0</ele><time>2026-03-31T16:22:00.995Z</time></trkpt><trkpt lat="45.57768546286654" lon="10.13284976757363"><ele>148.0</ele><time>2026-03-31T16:22:03.994Z</time></trkpt><trkpt lat="45.577615831876635" lon="10.132840532383014"><ele>148.0</ele><time>2026-03-31T16:22:06.994Z</time></trkpt><trkpt lat="45.57754400948084" lon="10.132836086587467"><ele>148.0</ele><time>2026-03-31T16:22:09.995Z</time></trkpt><trkpt lat="45.57746641066127" lon="10.132827147563923"><ele>147.5</ele><time>2026-03-31T16:22:12.994Z</time></trkpt><trkpt lat="45.57738900753486" lon="10.132816731012316"><ele>147.0</ele><time>2026-03-31T16:22:15.995Z</time></trkpt><trkpt lat="45.577312146825925" lon="10.132793672393252"><ele>146.5</ele><time>2026-03-31T16:22:18.995Z</time></trkpt><trkpt lat="45.5772346440655" lon="10.132788618345172"><ele>146.0</ele><time>2026-03-31T16:22:21.995Z</time></trkpt><trkpt lat="45.577163381132486" lon="10.13277588415193"><ele>145.5</ele><time>2026-03-31T16:22:24.995Z</time></trkpt><trkpt lat="45.577089381451884" lon="10.132759225784824"><ele>145.0</ele><time>2026-03-31T16:22:27.995Z</time></trkpt><trkpt lat="45.577017542253586" lon="10.13273483056912"><ele>144.85714285714286</ele><time>2026-03-31T16:22:30.995Z</time></trkpt><trkpt lat="45.576943913239724" lon="10.1327174510527"><ele>144.71428571428572</ele><time>2026-03-31T16:22:33.995Z</time></trkpt><trkpt lat="45.57686881824617" lon="10.132694946535102"><ele>144.57142857142858</ele><time>2026-03-31T16:22:36.995Z</time></trkpt><trkpt lat="45.57679950595587" lon="10.13267363049134"><ele>144.42857142857144</ele><time>2026-03-31T16:22:39.995Z</time></trkpt><trkpt lat="45.57673031841395" lon="10.13265381723931"><ele>144.28571428571428</ele><time>2026-03-31T16:22:42.995Z</time></trkpt><trkpt lat="45.57665718848205" lon="10.132645088148278"><ele>144.14285714285717</ele><time>2026-03-31T16:22:45.995Z</time></trkpt><trkpt lat="45.57658813221394" lon="10.13262933606025"><ele>144.0</ele><time>2026-03-31T16:22:48.995Z</time></trkpt><trkpt lat="45.576516518459925" lon="10.132607318105201"><ele>144.0</ele><time>2026-03-31T16:22:51.995Z</time></trkpt><trkpt lat="45.576446307258884" lon="10.132616519332982"><ele>144.0</ele><time>2026-03-31T16:22:54.995Z</time></trkpt><trkpt lat="45.576368181128245" lon="10.132613542587698"><ele>144.0</ele><time>2026-03-31T16:22:57.995Z</time></trkpt><trkpt lat="45.5762916345621" lon="10.132611123085127"><ele>144.0</ele><time>2026-03-31T16:23:00.995Z</time></trkpt><trkpt lat="45.576216497246" lon="10.132608065842785"><ele>144.0</ele><time>2026-03-31T16:23:03.995Z</time></trkpt><trkpt lat="45.576138753182796" lon="10.132604610620673"><ele>144.0</ele><time>2026-03-31T16:23:06.995Z</time></trkpt><trkpt lat="45.576065298663615" lon="10.132602043449028"><ele>144.16666666666666</ele><time>2026-03-31T16:23:09.995Z</time></trkpt><trkpt lat="45.575990643854" lon="10.132589860230318"><ele>144.33333333333334</ele><time>2026-03-31T16:23:12.995Z</time></trkpt><trkpt lat="45.57591523834779" lon="10.132577449773889"><ele>144.5</ele><time>2026-03-31T16:23:15.995Z</time></trkpt><trkpt lat="45.57584086268849" lon="10.132561089463364"><ele>144.66666666666669</ele><time>2026-03-31T16:23:18.995Z</time></trkpt><trkpt lat="45.57576698012651" lon="10.132545316281266"><ele>144.83333333333334</ele><time>2026-03-31T16:23:21.995Z</time></trkpt><trkpt lat="45.57569279079086" lon="10.132524899919376"><ele>145.0</ele><time>2026-03-31T16:23:24.995Z</time></trkpt><trkpt lat="45.575618458450975" lon="10.13250308374865"><ele>145.0</ele><time>2026-03-31T16:23:27.995Z</time></trkpt><trkpt lat="45.57554958176804" lon="10.132476177146232"><ele>145.0</ele><time>2026-03-31T16:23:30.995Z</time></trkpt><trkpt lat="45.57547651776049" lon="10.132444727790684"><ele>145.0</ele><time>2026-03-31T16:23:33.995Z</time></trkpt><trkpt lat="45.57540472038642" lon="10.132416802113104"><ele>145.0</ele><time>2026-03-31T16:23:36.995Z</time></trkpt><trkpt lat="45.57532979369946" lon="10.132396972037476"><ele>145.0</ele><time>2026-03-31T16:23:39.995Z</time></trkpt><trkpt lat="45.57526282198847" lon="10.132376584964135"><ele>145.0</ele><time>2026-03-31T16:23:42.995Z</time></trkpt><trkpt lat="45.575191453190364" lon="10.132359369431564"><ele>145.0</ele><time>2026-03-31T16:23:45.995Z</time></trkpt><trkpt lat="45.57511920273688" lon="10.132342879342099"><ele>144.85714285714286</ele><time>2026-03-31T16:23:48.995Z</time></trkpt><trkpt lat="45.575050521040524" lon="10.132314020736906"><ele>144.71428571428572</ele><time>2026-03-31T16:23:51.995Z</time></trkpt><trkpt lat="45.57497705297019" lon="10.13228183826144"><ele>144.57142857142858</ele><time>2026-03-31T16:23:54.995Z</time></trkpt><trkpt lat="45.57490405401702" lon="10.132251805814755"><ele>144.42857142857144</ele><time>2026-03-31T16:23:57.995Z</time></trkpt><trkpt lat="45.57483338080954" lon="10.132215086183162"><ele>144.28571428571428</ele><time>2026-03-31T16:24:00.995Z</time></trkpt><trkpt lat="45.57476362525834" lon="10.132176090379376"><ele>144.14285714285717</ele><time>2026-03-31T16:24:03.995Z</time></trkpt><trkpt lat="45.57469198278686" lon="10.132150693717346"><ele>144.0</ele><time>2026-03-31T16:24:06.995Z</time></trkpt><trkpt lat="45.57462315484828" lon="10.132116139710856"><ele>144.00000000000003</ele><time>2026-03-31T16:24:09.994Z</time></trkpt><trkpt lat="45.574555541140576" lon="10.132091485805464"><ele>144.0</ele><time>2026-03-31T16:24:12.994Z</time></trkpt><trkpt lat="45.57448169516275" lon="10.132056750901743"><ele>144.0</ele><time>2026-03-31T16:24:15.994Z</time></trkpt><trkpt lat="45.57441208587732" lon="10.132009070343848"><ele>144.0</ele><time>2026-03-31T16:24:18.995Z</time></trkpt><trkpt lat="45.5743437688274" lon="10.131969159566482"><ele>144.0</ele><time>2026-03-31T16:24:21.995Z</time></trkpt><trkpt lat="45.57427571965193" lon="10.13193441793527"><ele>144.00000000000003</ele><time>2026-03-31T16:24:24.995Z</time></trkpt><trkpt lat="45.57420489620758" lon="10.131902919670633"><ele>144.0</ele><time>2026-03-31T16:24:27.995Z</time></trkpt><trkpt lat="45.57413847604189" lon="10.131875923779026"><ele>143.85714285714286</ele><time>2026-03-31T16:24:30.995Z</time></trkpt><trkpt lat="45.57406537643285" lon="10.131858833927362"><ele>143.71428571428572</ele><time>2026-03-31T16:24:33.995Z</time></trkpt><trkpt lat="45.573992136423826" lon="10.131848636777274"><ele>143.57142857142856</ele><time>2026-03-31T16:24:36.995Z</time></trkpt><trkpt lat="45.57391631428004" lon="10.131845978105494"><ele>143.42857142857144</ele><time>2026-03-31T16:24:39.995Z</time></trkpt><trkpt lat="45.573850912103616" lon="10.131857056595937"><ele>143.28571428571428</ele><time>2026-03-31T16:24:42.995Z</time></trkpt><trkpt lat="45.573777662110125" lon="10.131880202818245"><ele>143.14285714285714</ele><time>2026-03-31T16:24:45.995Z</time></trkpt><trkpt lat="45.57371093359249" lon="10.131910970528441"><ele>143.0</ele><time>2026-03-31T16:24:48.995Z</time></trkpt><trkpt lat="45.573634497593844" lon="10.131931520768719"><ele>143.0</ele><time>2026-03-31T16:24:51.995Z</time></trkpt><trkpt lat="45.57355820083786" lon="10.131964277946462"><ele>143.0</ele><time>2026-03-31T16:24:54.995Z</time></trkpt><trkpt lat="45.573487507432816" lon="10.131992007916702"><ele>143.0</ele><time>2026-03-31T16:24:57.995Z</time></trkpt><trkpt lat="45.57341617710987" lon="10.132008246844602"><ele>143.0</ele><time>2026-03-31T16:25:00.995Z</time></trkpt><trkpt lat="45.57334450593196" lon="10.132027807014266"><ele>143.0</ele><time>2026-03-31T16:25:03.995Z</time></trkpt><trkpt lat="45.573267223655364" lon="10.13203971602824"><ele>143.0</ele><time>2026-03-31T16:25:06.995Z</time></trkpt><trkpt lat="45.573186296893674" lon="10.132068828577207"><ele>143.0</ele><time>2026-03-31T16:25:09.995Z</time></trkpt><trkpt lat="45.57310633351952" lon="10.132069613333112"><ele>143.0</ele><time>2026-03-31T16:25:12.995Z</time></trkpt><trkpt lat="45.573024639999815" lon="10.132076604165123"><ele>143.0</ele><time>2026-03-31T16:25:15.995Z</time></trkpt><trkpt lat="45.572945607268075" lon="10.13208625758614"><ele>143.0</ele><time>2026-03-31T16:25:18.995Z</time></trkpt><trkpt lat="45.572866420837606" lon="10.132095190854995"><ele>143.0</ele><time>2026-03-31T16:25:21.995Z</time></trkpt><trkpt lat="45.57279050278902" lon="10.132091649214576"><ele>143.0</ele><time>2026-03-31T16:25:24.995Z</time></trkpt><trkpt lat="45.572709333188534" lon="10.132093988248492"><ele>143.16666666666666</ele><time>2026-03-31T16:25:27.995Z</time></trkpt><trkpt lat="45.57263354872282" lon="10.132089243775429"><ele>143.33333333333331</ele><time>2026-03-31T16:25:30.995Z</time></trkpt><trkpt lat="45.572556181118046" lon="10.132103122448257"><ele>143.5</ele><time>2026-03-31T16:25:33.995Z</time></trkpt><trkpt lat="45.5724836717487" lon="10.132096307604305"><ele>143.66666666666666</ele><time>2026-03-31T16:25:36.995Z</time></trkpt><trkpt lat="45.572408682061464" lon="10.132095035752476"><ele>143.83333333333334</ele><time>2026-03-31T16:25:39.993Z</time></trkpt><trkpt lat="45.57233014996756" lon="10.13210294081683"><ele>144.0</ele><time>2026-03-31T16:25:42.992Z</time></trkpt><trkpt lat="45.572248989831586" lon="10.132118325469081"><ele>144.0</ele><time>2026-03-31T16:25:45.991Z</time></trkpt><trkpt lat="45.57217260445574" lon="10.132145797644519"><ele>144.0</ele><time>2026-03-31T16:25:48.99Z</time></trkpt><trkpt lat="45.57208410996464" lon="10.13215407230016"><ele>144.0</ele><time>2026-03-31T16:25:51.99Z</time></trkpt><trkpt lat="45.57200827331484" lon="10.132191231690129"><ele>144.0</ele><time>2026-03-31T16:25:54.989Z</time></trkpt><trkpt lat="45.57193855860111" lon="10.132218420188545"><ele>144.0</ele><time>2026-03-31T16:25:57.989Z</time></trkpt><trkpt lat="45.571858244514964" lon="10.132244302031662"><ele>144.0</ele><time>2026-03-31T16:26:00.988Z</time></trkpt><trkpt lat="45.571774009834236" lon="10.132222262570588"><ele>144.0</ele><time>2026-03-31T16:26:03.988Z</time></trkpt><trkpt lat="45.57173554422412" lon="10.132129724598121"><ele>144.0</ele><time>2026-03-31T16:26:06.988Z</time></trkpt><trkpt lat="45.57171508622653" lon="10.13202141946035"><ele>144.0</ele><time>2026-03-31T16:26:09.988Z</time></trkpt><trkpt lat="45.57169634490088" lon="10.131918651023387"><ele>144.0</ele><time>2026-03-31T16:26:12.987Z</time></trkpt><trkpt lat="45.571670607857236" lon="10.131818539041161"><ele>144.0</ele><time>2026-03-31T16:26:15.987Z</time></trkpt><trkpt lat="45.57164341294583" lon="10.131710150261851"><ele>144.0</ele><time>2026-03-31T16:26:18.987Z</time></trkpt><trkpt lat="45.571619214717934" lon="10.131603982070185"><ele>143.83333333333334</ele><time>2026-03-31T16:26:21.986Z</time></trkpt><trkpt lat="45.57158553056784" lon="10.13149587973979"><ele>143.66666666666666</ele><time>2026-03-31T16:26:24.986Z</time></trkpt><trkpt lat="45.57155725729249" lon="10.131405555780729"><ele>143.5</ele><time>2026-03-31T16:26:27.986Z</time></trkpt><trkpt lat="45.571540484536335" lon="10.131303348618747"><ele>143.33333333333331</ele><time>2026-03-31T16:26:30.986Z</time></trkpt><trkpt lat="45.57151653887069" lon="10.131201450520777"><ele>143.16666666666666</ele><time>2026-03-31T16:26:33.986Z</time></trkpt><trkpt lat="45.571497486728745" lon="10.131095023237874"><ele>143.0</ele><time>2026-03-31T16:26:36.986Z</time></trkpt><trkpt lat="45.57146620777299" lon="10.130989442534473"><ele>143.0</ele><time>2026-03-31T16:26:39.986Z</time></trkpt><trkpt lat="45.57144378584337" lon="10.130877424702128"><ele>143.0</ele><time>2026-03-31T16:26:42.986Z</time></trkpt><trkpt lat="45.5714241196216" lon="10.130766044577532"><ele>143.0</ele><time>2026-03-31T16:26:45.986Z</time></trkpt><trkpt lat="45.5714043871744" lon="10.130666633555364"><ele>143.0</ele><time>2026-03-31T16:26:48.985Z</time></trkpt><trkpt lat="45.57138530201367" lon="10.13056547029473"><ele>143.0</ele><time>2026-03-31T16:26:51.985Z</time></trkpt><trkpt lat="45.57135360541655" lon="10.130463129972902"><ele>143.0</ele><time>2026-03-31T16:26:54.985Z</time></trkpt><trkpt lat="45.5713241341313" lon="10.130375537993904"><ele>143.16666666666666</ele><time>2026-03-31T16:26:57.985Z</time></trkpt><trkpt lat="45.571309856668165" lon="10.130267112845605"><ele>143.33333333333331</ele><time>2026-03-31T16:27:01.985Z</time></trkpt><trkpt lat="45.5713056853196" lon="10.130166585766128"><ele>143.5</ele><time>2026-03-31T16:27:04.985Z</time></trkpt><trkpt lat="45.571317241026584" lon="10.130063364385137"><ele>143.66666666666666</ele><time>2026-03-31T16:27:07.985Z</time></trkpt><trkpt lat="45.571393230006244" lon="10.130019653594323"><ele>143.83333333333334</ele><time>2026-03-31T16:27:10.985Z</time></trkpt><trkpt lat="45.57146740646973" lon="10.129961370598838"><ele>144.0</ele><time>2026-03-31T16:27:14.985Z</time></trkpt><trkpt lat="45.57152766704808" lon="10.129932048509025"><ele>144.00000000000003</ele><time>2026-03-31T16:27:17.985Z</time></trkpt><trkpt lat="45.571595390914545" lon="10.129916043581348"><ele>144.0</ele><time>2026-03-31T16:27:20.985Z</time></trkpt><trkpt lat="45.5716627611624" lon="10.12989268472312"><ele>144.0</ele><time>2026-03-31T16:27:23.985Z</time></trkpt><trkpt lat="45.57172705916239" lon="10.129882913403996"><ele>144.0</ele><time>2026-03-31T16:27:26.985Z</time></trkpt><trkpt lat="45.57179581559808" lon="10.129866348383368"><ele>144.0</ele><time>2026-03-31T16:27:29.985Z</time></trkpt><trkpt lat="45.571865505905386" lon="10.12985679411905"><ele>144.00000000000003</ele><time>2026-03-31T16:27:32.985Z</time></trkpt><trkpt lat="45.571935373219254" lon="10.129840720829664"><ele>144.0</ele><time>2026-03-31T16:27:35.985Z</time></trkpt><trkpt lat="45.57200516300767" lon="10.12982406732276"><ele>144.33333333333334</ele><time>2026-03-31T16:27:38.985Z</time></trkpt><trkpt lat="45.57208779862057" lon="10.129808544487304"><ele>144.66666666666666</ele><time>2026-03-31T16:27:41.985Z</time></trkpt><trkpt lat="45.57216726469926" lon="10.129783760871499"><ele>145.0</ele><time>2026-03-31T16:27:44.985Z</time></trkpt><trkpt lat="45.572240319701194" lon="10.129755777037566"><ele>145.33333333333331</ele><time>2026-03-31T16:27:47.985Z</time></trkpt><trkpt lat="45.57231047547326" lon="10.129725356743567"><ele>145.66666666666666</ele><time>2026-03-31T16:27:50.985Z</time></trkpt><trkpt lat="45.57238220448824" lon="10.12969891751228"><ele>146.0</ele><time>2026-03-31T16:27:53.985Z</time></trkpt><trkpt lat="45.572461436331885" lon="10.129665524306663"><ele>146.0</ele><time>2026-03-31T16:27:56.985Z</time></trkpt><trkpt lat="45.57253675437455" lon="10.129635535193774"><ele>146.0</ele><time>2026-03-31T16:27:59.985Z</time></trkpt><trkpt lat="45.572614495458545" lon="10.129628280825635"><ele>146.0</ele><time>2026-03-31T16:28:02.985Z</time></trkpt><trkpt lat="45.57268802955896" lon="10.1296097698069"><ele>146.0</ele><time>2026-03-31T16:28:05.985Z</time></trkpt><trkpt lat="45.57276030032202" lon="10.129592138882897"><ele>146.0</ele><time>2026-03-31T16:28:08.985Z</time></trkpt><trkpt lat="45.57282267781108" lon="10.129572287780894"><ele>146.0</ele><time>2026-03-31T16:28:11.985Z</time></trkpt><trkpt lat="45.572912178610316" lon="10.129558712521993"><ele>145.83333333333331</ele><time>2026-03-31T16:28:14.985Z</time></trkpt><trkpt lat="45.572998040801416" lon="10.129545752760983"><ele>145.66666666666666</ele><time>2026-03-31T16:28:17.985Z</time></trkpt><trkpt lat="45.57307190561279" lon="10.129529888511954"><ele>145.5</ele><time>2026-03-31T16:28:20.985Z</time></trkpt><trkpt lat="45.573155826230064" lon="10.12951044444209"><ele>145.33333333333334</ele><time>2026-03-31T16:28:23.985Z</time></trkpt><trkpt lat="45.57323468981376" lon="10.129499402820018"><ele>145.16666666666669</ele><time>2026-03-31T16:28:26.985Z</time></trkpt><trkpt lat="45.57330553769312" lon="10.129479379887131"><ele>145.0</ele><time>2026-03-31T16:28:29.985Z</time></trkpt><trkpt lat="45.573384625554134" lon="10.129461114554848"><ele>145.0</ele><time>2026-03-31T16:28:32.985Z</time></trkpt><trkpt lat="45.57344940751867" lon="10.129454009481693"><ele>145.0</ele><time>2026-03-31T16:28:35.985Z</time></trkpt><trkpt lat="45.57353689431869" lon="10.129455109586868"><ele>145.0</ele><time>2026-03-31T16:28:38.985Z</time></trkpt><trkpt lat="45.573636513914245" lon="10.129518457964314"><ele>145.0</ele><time>2026-03-31T16:28:42.985Z</time></trkpt><trkpt lat="45.57370337924681" lon="10.129577200751037"><ele>145.0</ele><time>2026-03-31T16:28:45.985Z</time></trkpt><trkpt lat="45.573781237472566" lon="10.129579030077089"><ele>145.0</ele><time>2026-03-31T16:28:48.985Z</time></trkpt><trkpt lat="45.57385559738648" lon="10.129554228889305"><ele>145.0</ele><time>2026-03-31T16:28:51.985Z</time></trkpt><trkpt lat="45.573928959049205" lon="10.129518192696144"><ele>145.0</ele><time>2026-03-31T16:28:54.985Z</time></trkpt><trkpt lat="45.573944590031175" lon="10.129422692326147"><ele>145.0</ele><time>2026-03-31T16:28:57.985Z</time></trkpt><trkpt lat="45.573921893522936" lon="10.129338198094082"><ele>145.0</ele><time>2026-03-31T16:29:01.985Z</time></trkpt><trkpt lat="45.573890191611945" lon="10.129234845531013"><ele>145.0</ele><time>2026-03-31T16:29:05.985Z</time></trkpt><trkpt lat="45.57386948232735" lon="10.12914126471168"><ele>145.0</ele><time>2026-03-31T16:29:08.985Z</time></trkpt><trkpt lat="45.573848635386874" lon="10.129040380143397"><ele>145.0</ele><time>2026-03-31T16:29:11.985Z</time></trkpt><trkpt lat="45.57382772500773" lon="10.128931427118799"><ele>145.0</ele><time>2026-03-31T16:29:14.985Z</time></trkpt><trkpt lat="45.57381124306965" lon="10.12880668580772"><ele>145.0</ele><time>2026-03-31T16:29:17.985Z</time></trkpt><trkpt lat="45.57378556600828" lon="10.128702025182113"><ele>145.0</ele><time>2026-03-31T16:29:20.985Z</time></trkpt><trkpt lat="45.573756583587176" lon="10.128577567901946"><ele>145.0</ele><time>2026-03-31T16:29:23.985Z</time></trkpt><trkpt lat="45.573741278269914" lon="10.128450563180136"><ele>145.0</ele><time>2026-03-31T16:29:26.985Z</time></trkpt><trkpt lat="45.57371712955961" lon="10.128326707590205"><ele>145.0</ele><time>2026-03-31T16:29:29.985Z</time></trkpt><trkpt lat="45.57370213087932" lon="10.12822138240679"><ele>145.0</ele><time>2026-03-31T16:29:32.985Z</time></trkpt><trkpt lat="45.57368949048941" lon="10.128109863585415"><ele>145.0</ele><time>2026-03-31T16:29:35.985Z</time></trkpt><trkpt lat="45.57367770947462" lon="10.12799319056252"><ele>145.0</ele><time>2026-03-31T16:29:38.985Z</time></trkpt><trkpt lat="45.573660528260305" lon="10.127888084851907"><ele>145.0</ele><time>2026-03-31T16:29:41.985Z</time></trkpt><trkpt lat="45.5736537710542" lon="10.127768982284856"><ele>145.0</ele><time>2026-03-31T16:29:44.985Z</time></trkpt><trkpt lat="45.57366158717591" lon="10.127646796666895"><ele>145.0</ele><time>2026-03-31T16:29:47.985Z</time></trkpt><trkpt lat="45.573670454533605" lon="10.127519221652593"><ele>145.0</ele><time>2026-03-31T16:29:50.985Z</time></trkpt><trkpt lat="45.5736557933502" lon="10.127413122090458"><ele>145.0</ele><time>2026-03-31T16:29:53.985Z</time></trkpt><trkpt lat="45.573659205626846" lon="10.127299128984227"><ele>145.0</ele><time>2026-03-31T16:29:56.985Z</time></trkpt><trkpt lat="45.57364264991814" lon="10.127197383684534"><ele>145.0</ele><time>2026-03-31T16:29:59.985Z</time></trkpt><trkpt lat="45.57361478715531" lon="10.127106796394186"><ele>145.0</ele><time>2026-03-31T16:30:02.985Z</time></trkpt><trkpt lat="45.57361829183378" lon="10.127003755144193"><ele>145.0</ele><time>2026-03-31T16:30:05.985Z</time></trkpt><trkpt lat="45.573612815178734" lon="10.126882701344007"><ele>145.0</ele><time>2026-03-31T16:30:08.985Z</time></trkpt><trkpt lat="45.57360735262271" lon="10.126783204003273"><ele>145.0</ele><time>2026-03-31T16:30:11.985Z</time></trkpt><trkpt lat="45.57359819834092" lon="10.12668487854567"><ele>145.0</ele><time>2026-03-31T16:30:14.985Z</time></trkpt><trkpt lat="45.573591739305044" lon="10.126568201789608"><ele>145.0</ele><time>2026-03-31T16:30:18.985Z</time></trkpt><trkpt lat="45.573574764176456" lon="10.12647742752441"><ele>145.0</ele><time>2026-03-31T16:30:21.985Z</time></trkpt><trkpt lat="45.57357494785855" lon="10.12638675789664"><ele>145.0</ele><time>2026-03-31T16:30:24.985Z</time></trkpt><trkpt lat="45.57357983212525" lon="10.126267387891291"><ele>145.0</ele><time>2026-03-31T16:30:28.984Z</time></trkpt><trkpt lat="45.57357715368239" lon="10.126147255812073"><ele>145.0</ele><time>2026-03-31T16:30:32.984Z</time></trkpt><trkpt lat="45.573586618548475" lon="10.126057143032975"><ele>145.0</ele><time>2026-03-31T16:30:36.985Z</time></trkpt><trkpt lat="45.573589853127636" lon="10.125965073313825"><ele>145.0</ele><time>2026-03-31T16:30:43.984Z</time></trkpt><trkpt lat="45.57360240602744" lon="10.125850011906774"><ele>145.0</ele><time>2026-03-31T16:30:48.984Z</time></trkpt><trkpt lat="45.5736270684056" lon="10.125739707497624"><ele>145.0</ele><time>2026-03-31T16:30:52.984Z</time></trkpt><trkpt lat="45.573669679050994" lon="10.125627712761773"><ele>145.0</ele><time>2026-03-31T16:30:56.984Z</time></trkpt><trkpt lat="45.57368545237474" lon="10.125531167218742"><ele>145.0</ele><time>2026-03-31T16:30:58.984Z</time></trkpt><trkpt lat="45.57370847835987" lon="10.12538363058918"><ele>145.2</ele><time>2026-03-31T16:31:01.984Z</time></trkpt><trkpt lat="45.57372682961788" lon="10.125290216157044"><ele>145.4</ele><time>2026-03-31T16:31:03.984Z</time></trkpt><trkpt lat="45.573767901534424" lon="10.125208616543665"><ele>145.6</ele><time>2026-03-31T16:31:06.984Z</time></trkpt><trkpt lat="45.573829259456446" lon="10.125120917902663"><ele>145.8</ele><time>2026-03-31T16:31:09.984Z</time></trkpt><trkpt lat="45.57389736937419" lon="10.125077419763505"><ele>146.0</ele><time>2026-03-31T16:31:12.984Z</time></trkpt><trkpt lat="45.574070094826766" lon="10.125033710223631"><ele>146.0</ele><time>2026-03-31T16:31:20.984Z</time></trkpt><trkpt lat="45.57414023370018" lon="10.125031758611502"><ele>146.0</ele><time>2026-03-31T16:31:23.984Z</time></trkpt><trkpt lat="45.57425001179408" lon="10.125013508807132"><ele>146.0</ele><time>2026-03-31T16:31:28.984Z</time></trkpt><trkpt lat="45.57434399115748" lon="10.125009799005962"><ele>146.0</ele><time>2026-03-31T16:31:32.984Z</time></trkpt><trkpt lat="45.57442097137735" lon="10.124987462793618"><ele>146.0</ele><time>2026-03-31T16:31:35.984Z</time></trkpt><trkpt lat="45.57449138144279" lon="10.124977375609514"><ele>146.0</ele><time>2026-03-31T16:31:38.984Z</time></trkpt><trkpt lat="45.5745633696288" lon="10.124976806603847"><ele>146.28571428571428</ele><time>2026-03-31T16:31:41.984Z</time></trkpt><trkpt lat="45.57463294930901" lon="10.12496062527768"><ele>146.57142857142858</ele><time>2026-03-31T16:31:44.984Z</time></trkpt><trkpt lat="45.57469740044922" lon="10.124938200312709"><ele>146.85714285714286</ele><time>2026-03-31T16:31:47.984Z</time></trkpt><trkpt lat="45.5747757173039" lon="10.124921143484285"><ele>147.14285714285714</ele><time>2026-03-31T16:31:51.984Z</time></trkpt><trkpt lat="45.5748489394524" lon="10.124898910506658"><ele>147.42857142857142</ele><time>2026-03-31T16:31:55.984Z</time></trkpt><trkpt lat="45.57490775648504" lon="10.124860647601366"><ele>147.71428571428572</ele><time>2026-03-31T16:31:58.984Z</time></trkpt><trkpt lat="45.57498430948084" lon="10.124826606356987"><ele>148.0</ele><time>2026-03-31T16:32:01.984Z</time></trkpt><trkpt lat="45.57506323593345" lon="10.124780257946153"><ele>148.0</ele><time>2026-03-31T16:32:04.984Z</time></trkpt><trkpt lat="45.57513704648205" lon="10.124715821352998"><ele>148.0</ele><time>2026-03-31T16:32:07.984Z</time></trkpt><trkpt lat="45.57520660614909" lon="10.124666942295566"><ele>148.0</ele><time>2026-03-31T16:32:10.984Z</time></trkpt><trkpt lat="45.57526729000566" lon="10.124620432476625"><ele>148.0</ele><time>2026-03-31T16:32:13.984Z</time></trkpt><trkpt lat="45.57533471469563" lon="10.124552726905511"><ele>148.0</ele><time>2026-03-31T16:32:16.984Z</time></trkpt><trkpt lat="45.575405986575035" lon="10.12450283365892"><ele>148.0</ele><time>2026-03-31T16:32:19.984Z</time></trkpt><trkpt lat="45.575471325978796" lon="10.124466088785468"><ele>148.0</ele><time>2026-03-31T16:32:22.984Z</time></trkpt><trkpt lat="45.57554855313824" lon="10.12441971889153"><ele>148.0</ele><time>2026-03-31T16:32:26.984Z</time></trkpt><trkpt lat="45.575619266441755" lon="10.124392355934743"><ele>148.0</ele><time>2026-03-31T16:32:29.984Z</time></trkpt><trkpt lat="45.57575772500861" lon="10.12439091338227"><ele>148.0</ele><time>2026-03-31T16:32:35.984Z</time></trkpt><trkpt lat="45.57583025738468" lon="10.124405669023773"><ele>148.0</ele><time>2026-03-31T16:32:38.983Z</time></trkpt><trkpt lat="45.575901593223406" lon="10.124401015353206"><ele>148.0</ele><time>2026-03-31T16:32:41.984Z</time></trkpt><trkpt lat="45.57597196642259" lon="10.124388226898326"><ele>148.0</ele><time>2026-03-31T16:32:44.983Z</time></trkpt><trkpt lat="45.57603795553926" lon="10.124344640634327"><ele>148.0</ele><time>2026-03-31T16:32:47.983Z</time></trkpt><trkpt lat="45.57612637708115" lon="10.124370092930416"><ele>148.0</ele><time>2026-03-31T16:32:50.983Z</time></trkpt><trkpt lat="45.5762368520481" lon="10.124379148531775"><ele>148.0</ele><time>2026-03-31T16:32:54.983Z</time></trkpt><trkpt lat="45.576336520503446" lon="10.124380333947071"><ele>148.0</ele><time>2026-03-31T16:32:59.983Z</time></trkpt><trkpt lat="45.57641125051669" lon="10.124365359132769"><ele>148.0</ele><time>2026-03-31T16:33:02.983Z</time></trkpt><trkpt lat="45.576556972103674" lon="10.124349351133391"><ele>148.16666666666669</ele><time>2026-03-31T16:33:08.983Z</time></trkpt><trkpt lat="45.57663491387726" lon="10.124343807064642"><ele>148.33333333333334</ele><time>2026-03-31T16:33:11.983Z</time></trkpt><trkpt lat="45.576702245369326" lon="10.12432133347349"><ele>148.5</ele><time>2026-03-31T16:33:14.983Z</time></trkpt><trkpt lat="45.576785633748614" lon="10.124276926016233"><ele>148.66666666666666</ele><time>2026-03-31T16:33:19.983Z</time></trkpt><trkpt lat="45.57686544688005" lon="10.124260081134794"><ele>148.83333333333331</ele><time>2026-03-31T16:33:22.983Z</time></trkpt><trkpt lat="45.576924068284754" lon="10.124217424482335"><ele>149.0</ele><time>2026-03-31T16:33:24.983Z</time></trkpt><trkpt lat="45.5770079046985" lon="10.124185104113058"><ele>149.16666666666666</ele><time>2026-03-31T16:33:27.983Z</time></trkpt><trkpt lat="45.57708456755586" lon="10.124126836912636"><ele>149.33333333333331</ele><time>2026-03-31T16:33:30.983Z</time></trkpt><trkpt lat="45.5771579586365" lon="10.124091882161329"><ele>149.5</ele><time>2026-03-31T16:33:33.983Z</time></trkpt><trkpt lat="45.577229373020614" lon="10.12405312079303"><ele>149.66666666666666</ele><time>2026-03-31T16:33:36.983Z</time></trkpt><trkpt lat="45.577313584664516" lon="10.12401343967926"><ele>149.83333333333334</ele><time>2026-03-31T16:33:39.983Z</time></trkpt><trkpt lat="45.57739733895211" lon="10.123995116135077"><ele>150.0</ele><time>2026-03-31T16:33:42.983Z</time></trkpt><trkpt lat="45.57748059328658" lon="10.123961448044872"><ele>150.16666666666666</ele><time>2026-03-31T16:33:45.983Z</time></trkpt><trkpt lat="45.57755978388505" lon="10.12394585806328"><ele>150.33333333333334</ele><time>2026-03-31T16:33:48.983Z</time></trkpt><trkpt lat="45.57764349187785" lon="10.123926496483783"><ele>150.5</ele><time>2026-03-31T16:33:51.983Z</time></trkpt><trkpt lat="45.57771716373246" lon="10.123901823815793"><ele>150.66666666666669</ele><time>2026-03-31T16:33:54.983Z</time></trkpt><trkpt lat="45.57779407095481" lon="10.123888183364759"><ele>150.83333333333334</ele><time>2026-03-31T16:33:57.983Z</time></trkpt><trkpt lat="45.577876056025275" lon="10.123876341419104"><ele>151.0</ele><time>2026-03-31T16:34:00.983Z</time></trkpt><trkpt lat="45.577950157947896" lon="10.123866226568573"><ele>151.0</ele><time>2026-03-31T16:34:03.983Z</time></trkpt><trkpt lat="45.57802610932939" lon="10.12386556513239"><ele>151.0</ele><time>2026-03-31T16:34:06.983Z</time></trkpt><trkpt lat="45.57810000839725" lon="10.123854869263296"><ele>151.0</ele><time>2026-03-31T16:34:09.983Z</time></trkpt><trkpt lat="45.578177990671975" lon="10.123853212507667"><ele>151.0</ele><time>2026-03-31T16:34:12.983Z</time></trkpt><trkpt lat="45.57825563752876" lon="10.123842867203745"><ele>151.0</ele><time>2026-03-31T16:34:15.983Z</time></trkpt><trkpt lat="45.57832512273203" lon="10.123829179282199"><ele>151.0</ele><time>2026-03-31T16:34:18.983Z</time></trkpt><trkpt lat="45.578401446335064" lon="10.123826347859437"><ele>151.0</ele><time>2026-03-31T16:34:21.983Z</time></trkpt><trkpt lat="45.57847855745794" lon="10.123825450852586"><ele>151.0</ele><time>2026-03-31T16:34:24.983Z</time></trkpt><trkpt lat="45.57855758082428" lon="10.12380885124864"><ele>151.0</ele><time>2026-03-31T16:34:27.983Z</time></trkpt><trkpt lat="45.578627173201134" lon="10.12380758566031"><ele>151.0</ele><time>2026-03-31T16:34:30.983Z</time></trkpt><trkpt lat="45.57871010912603" lon="10.123804301705855"><ele>151.0</ele><time>2026-03-31T16:34:33.983Z</time></trkpt><trkpt lat="45.57878335481889" lon="10.12379586131845"><ele>151.0</ele><time>2026-03-31T16:34:36.983Z</time></trkpt><trkpt lat="45.57885767102817" lon="10.1237968743149"><ele>151.14285714285717</ele><time>2026-03-31T16:34:39.983Z</time></trkpt><trkpt lat="45.57893365990457" lon="10.12380173942696"><ele>151.28571428571428</ele><time>2026-03-31T16:34:42.983Z</time></trkpt><trkpt lat="45.57900620269385" lon="10.123793987303989"><ele>151.42857142857144</ele><time>2026-03-31T16:34:45.982Z</time></trkpt><trkpt lat="45.57908192278071" lon="10.123796687901715"><ele>151.57142857142858</ele><time>2026-03-31T16:34:48.982Z</time></trkpt><trkpt lat="45.57915601232527" lon="10.123792557846729"><ele>151.71428571428572</ele><time>2026-03-31T16:34:51.983Z</time></trkpt><trkpt lat="45.57922984627984" lon="10.123800030516271"><ele>151.85714285714286</ele><time>2026-03-31T16:34:54.983Z</time></trkpt><trkpt lat="45.579305101583515" lon="10.123795006470383"><ele>152.0</ele><time>2026-03-31T16:34:57.983Z</time></trkpt><trkpt lat="45.57937502574912" lon="10.123796459480463"><ele>152.0</ele><time>2026-03-31T16:35:00.983Z</time></trkpt><trkpt lat="45.57945279010898" lon="10.123801405674962"><ele>152.0</ele><time>2026-03-31T16:35:03.983Z</time></trkpt><trkpt lat="45.57953047196592" lon="10.12380798297461"><ele>152.0</ele><time>2026-03-31T16:35:06.983Z</time></trkpt><trkpt lat="45.57960618978141" lon="10.123813263609584"><ele>152.0</ele><time>2026-03-31T16:35:09.983Z</time></trkpt><trkpt lat="45.57968724187511" lon="10.123815017856883"><ele>152.0</ele><time>2026-03-31T16:35:12.983Z</time></trkpt><trkpt lat="45.57976362033101" lon="10.123813175076187"><ele>152.0</ele><time>2026-03-31T16:35:15.983Z</time></trkpt><trkpt lat="45.57983836230355" lon="10.123807160978993"><ele>152.16666666666666</ele><time>2026-03-31T16:35:18.983Z</time></trkpt><trkpt lat="45.57991410971346" lon="10.123810061492948"><ele>152.33333333333331</ele><time>2026-03-31T16:35:21.983Z</time></trkpt><trkpt lat="45.57999088476921" lon="10.123804936799882"><ele>152.5</ele><time>2026-03-31T16:35:24.983Z</time></trkpt><trkpt lat="45.58006382820179" lon="10.123825612816558"><ele>152.66666666666666</ele><time>2026-03-31T16:35:27.983Z</time></trkpt><trkpt lat="45.58013879629133" lon="10.123826256346735"><ele>152.83333333333334</ele><time>2026-03-31T16:35:30.983Z</time></trkpt><trkpt lat="45.5802098131042" lon="10.123833689301119"><ele>153.0</ele><time>2026-03-31T16:35:33.983Z</time></trkpt><trkpt lat="45.580288622094145" lon="10.123847033898222"><ele>153.0</ele><time>2026-03-31T16:35:36.983Z</time></trkpt><trkpt lat="45.5803580208408" lon="10.123839721985945"><ele>153.0</ele><time>2026-03-31T16:35:39.983Z</time></trkpt><trkpt lat="45.58043171787268" lon="10.123842110970363"><ele>153.0</ele><time>2026-03-31T16:35:42.983Z</time></trkpt><trkpt lat="45.580506605733326" lon="10.123827315502469"><ele>153.0</ele><time>2026-03-31T16:35:45.983Z</time></trkpt><trkpt lat="45.58057559524496" lon="10.123816960201863"><ele>153.0</ele><time>2026-03-31T16:35:48.983Z</time></trkpt><trkpt lat="45.58066508572979" lon="10.123805110748858"><ele>153.0</ele><time>2026-03-31T16:35:52.983Z</time></trkpt><trkpt lat="45.58074303503843" lon="10.12380348693366"><ele>153.0</ele><time>2026-03-31T16:35:55.983Z</time></trkpt><trkpt lat="45.58081618256533" lon="10.123799980499548"><ele>153.0</ele><time>2026-03-31T16:35:58.983Z</time></trkpt><trkpt lat="45.5808860980002" lon="10.123781288784503"><ele>153.0</ele><time>2026-03-31T16:36:01.983Z</time></trkpt><trkpt lat="45.580966484410105" lon="10.12378041798904"><ele>153.0</ele><time>2026-03-31T16:36:04.983Z</time></trkpt><trkpt lat="45.58105039538213" lon="10.123780472642117"><ele>153.0</ele><time>2026-03-31T16:36:07.983Z</time></trkpt><trkpt lat="45.58112792292764" lon="10.123785836831631"><ele>153.0</ele><time>2026-03-31T16:36:10.983Z</time></trkpt><trkpt lat="45.581208638834845" lon="10.12378712211084"><ele>153.0</ele><time>2026-03-31T16:36:13.983Z</time></trkpt><trkpt lat="45.58128431670767" lon="10.123788528841393"><ele>153.0</ele><time>2026-03-31T16:36:16.983Z</time></trkpt><trkpt lat="45.58135218087828" lon="10.123790354318796"><ele>153.0</ele><time>2026-03-31T16:36:19.983Z</time></trkpt><trkpt lat="45.581427399641875" lon="10.123789885292735"><ele>153.0</ele><time>2026-03-31T16:36:22.983Z</time></trkpt><trkpt lat="45.58149993163265" lon="10.123801403804062"><ele>153.0</ele><time>2026-03-31T16:36:25.983Z</time></trkpt><trkpt lat="45.58157291963234" lon="10.123818834160584"><ele>153.0</ele><time>2026-03-31T16:36:28.983Z</time></trkpt><trkpt lat="45.58164306055818" lon="10.123823770774212"><ele>153.0</ele><time>2026-03-31T16:36:31.983Z</time></trkpt><trkpt lat="45.58171779645478" lon="10.123839136716331"><ele>153.0</ele><time>2026-03-31T16:36:34.983Z</time></trkpt><trkpt lat="45.581791680366145" lon="10.123833838011087"><ele>153.0</ele><time>2026-03-31T16:36:37.983Z</time></trkpt><trkpt lat="45.581866908127154" lon="10.12380504179225"><ele>153.0</ele><time>2026-03-31T16:36:40.983Z</time></trkpt><trkpt lat="45.58192741572924" lon="10.123753160672086"><ele>153.0</ele><time>2026-03-31T16:36:43.982Z</time></trkpt><trkpt lat="45.58197946481443" lon="10.123665215862735"><ele>153.0</ele><time>2026-03-31T16:36:46.982Z</time></trkpt><trkpt lat="45.58200344573003" lon="10.123564223573682"><ele>153.0</ele><time>2026-03-31T16:36:49.982Z</time></trkpt><trkpt lat="45.58201722353267" lon="10.123457157405161"><ele>153.16666666666666</ele><time>2026-03-31T16:36:52.982Z</time></trkpt><trkpt lat="45.58202541117094" lon="10.123348960933008"><ele>153.33333333333334</ele><time>2026-03-31T16:36:55.982Z</time></trkpt><trkpt lat="45.58203354739801" lon="10.123243654777795"><ele>153.5</ele><time>2026-03-31T16:36:58.982Z</time></trkpt><trkpt lat="45.582034438353524" lon="10.123139166170589"><ele>153.66666666666669</ele><time>2026-03-31T16:37:01.982Z</time></trkpt><trkpt lat="45.58203952539599" lon="10.123030096303468"><ele>153.83333333333334</ele><time>2026-03-31T16:37:04.982Z</time></trkpt><trkpt lat="45.582036059546816" lon="10.122909358514589"><ele>154.0</ele><time>2026-03-31T16:37:07.982Z</time></trkpt><trkpt lat="45.58204244417508" lon="10.122809720346481"><ele>154.14285714285714</ele><time>2026-03-31T16:37:10.982Z</time></trkpt><trkpt lat="45.58205596640023" lon="10.122707892099642"><ele>154.28571428571428</ele><time>2026-03-31T16:37:13.982Z</time></trkpt><trkpt lat="45.58205899014123" lon="10.122598522966323"><ele>154.42857142857144</ele><time>2026-03-31T16:37:16.982Z</time></trkpt><trkpt lat="45.58207311835734" lon="10.122489245357034"><ele>154.57142857142856</ele><time>2026-03-31T16:37:19.982Z</time></trkpt><trkpt lat="45.5820841011061" lon="10.122386154905056"><ele>154.71428571428572</ele><time>2026-03-31T16:37:22.982Z</time></trkpt><trkpt lat="45.582089365512594" lon="10.122279809762903"><ele>154.85714285714286</ele><time>2026-03-31T16:37:25.982Z</time></trkpt><trkpt lat="45.58209756343698" lon="10.12217762555291"><ele>155.0</ele><time>2026-03-31T16:37:28.982Z</time></trkpt><trkpt lat="45.58210973328755" lon="10.122071250759003"><ele>155.16666666666666</ele><time>2026-03-31T16:37:31.982Z</time></trkpt><trkpt lat="45.58211224218565" lon="10.121970398677774"><ele>155.33333333333331</ele><time>2026-03-31T16:37:34.982Z</time></trkpt><trkpt lat="45.582111546765546" lon="10.121872965188713"><ele>155.5</ele><time>2026-03-31T16:37:37.982Z</time></trkpt><trkpt lat="45.582118138861226" lon="10.121759981993002"><ele>155.66666666666666</ele><time>2026-03-31T16:37:40.982Z</time></trkpt><trkpt lat="45.58212845067084" lon="10.12165180046757"><ele>155.83333333333334</ele><time>2026-03-31T16:37:43.982Z</time></trkpt><trkpt lat="45.58213355414542" lon="10.121542889411641"><ele>156.0</ele><time>2026-03-31T16:37:46.982Z</time></trkpt><trkpt lat="45.58214026832911" lon="10.121430881562114"><ele>156.14285714285714</ele><time>2026-03-31T16:37:49.982Z</time></trkpt><trkpt lat="45.58214704142883" lon="10.121313347380298"><ele>156.28571428571428</ele><time>2026-03-31T16:37:52.982Z</time></trkpt><trkpt lat="45.58214738759776" lon="10.121201904002488"><ele>156.42857142857142</ele><time>2026-03-31T16:37:55.982Z</time></trkpt><trkpt lat="45.58215175979065" lon="10.121095423733252"><ele>156.57142857142856</ele><time>2026-03-31T16:37:58.982Z</time></trkpt><trkpt lat="45.58214465306876" lon="10.120997514496018"><ele>156.71428571428572</ele><time>2026-03-31T16:38:01.982Z</time></trkpt><trkpt lat="45.58213645876432" lon="10.120895460426595"><ele>156.85714285714283</ele><time>2026-03-31T16:38:04.982Z</time></trkpt><trkpt lat="45.58210373434841" lon="10.120806066755293"><ele>157.0</ele><time>2026-03-31T16:38:07.982Z</time></trkpt><trkpt lat="45.582075249414444" lon="10.120708194801693"><ele>157.0</ele><time>2026-03-31T16:38:10.982Z</time></trkpt><trkpt lat="45.5820441514003" lon="10.120616352898816"><ele>157.0</ele><time>2026-03-31T16:38:13.982Z</time></trkpt><trkpt lat="45.58201709918017" lon="10.120510268077307"><ele>157.0</ele><time>2026-03-31T16:38:16.982Z</time></trkpt><trkpt lat="45.58198772375258" lon="10.120416096733502"><ele>157.0</ele><time>2026-03-31T16:38:19.982Z</time></trkpt><trkpt lat="45.58195366502376" lon="10.12031788131368"><ele>157.0</ele><time>2026-03-31T16:38:22.982Z</time></trkpt><trkpt lat="45.581935539842725" lon="10.120211956871511"><ele>157.0</ele><time>2026-03-31T16:38:25.982Z</time></trkpt><trkpt lat="45.58192163390483" lon="10.120108178380818"><ele>156.66666666666669</ele><time>2026-03-31T16:38:28.982Z</time></trkpt><trkpt lat="45.58190321311908" lon="10.12000352431085"><ele>156.33333333333334</ele><time>2026-03-31T16:38:31.982Z</time></trkpt><trkpt lat="45.58189470423973" lon="10.119893708285304"><ele>156.0</ele><time>2026-03-31T16:38:34.982Z</time></trkpt><trkpt lat="45.58189544532454" lon="10.119781298517193"><ele>155.66666666666666</ele><time>2026-03-31T16:38:37.982Z</time></trkpt><trkpt lat="45.58189386354422" lon="10.119672759635822"><ele>155.33333333333331</ele><time>2026-03-31T16:38:40.982Z</time></trkpt><trkpt lat="45.58189862105311" lon="10.119559030465158"><ele>155.0</ele><time>2026-03-31T16:38:43.982Z</time></trkpt><trkpt lat="45.5819095745664" lon="10.119443775588403"><ele>155.0</ele><time>2026-03-31T16:38:46.982Z</time></trkpt><trkpt lat="45.5819172854384" lon="10.119341334305771"><ele>155.0</ele><time>2026-03-31T16:38:49.982Z</time></trkpt><trkpt lat="45.581925114935125" lon="10.119229565742137"><ele>155.0</ele><time>2026-03-31T16:38:52.981Z</time></trkpt><trkpt lat="45.58193995207231" lon="10.119122585549764"><ele>155.0</ele><time>2026-03-31T16:38:55.981Z</time></trkpt><trkpt lat="45.58194978460923" lon="10.119016992086333"><ele>155.0</ele><time>2026-03-31T16:38:58.981Z</time></trkpt><trkpt lat="45.58196274838401" lon="10.11892027335378"><ele>155.0</ele><time>2026-03-31T16:39:01.981Z</time></trkpt><trkpt lat="45.58198043011399" lon="10.118818004708471"><ele>155.0</ele><time>2026-03-31T16:39:04.981Z</time></trkpt><trkpt lat="45.58199864525023" lon="10.118715880596945"><ele>155.0</ele><time>2026-03-31T16:39:07.981Z</time></trkpt><trkpt lat="45.582021925918504" lon="10.118603032348707"><ele>155.0</ele><time>2026-03-31T16:39:11.981Z</time></trkpt><trkpt lat="45.582041619094966" lon="10.118508213168898"><ele>155.0</ele><time>2026-03-31T16:39:14.981Z</time></trkpt><trkpt lat="45.582063306745134" lon="10.118399559866578"><ele>155.0</ele><time>2026-03-31T16:39:17.981Z</time></trkpt><trkpt lat="45.582090929946766" lon="10.118308228272404"><ele>155.0</ele><time>2026-03-31T16:39:20.981Z</time></trkpt><trkpt lat="45.58216016623295" lon="10.118233512429017"><ele>155.0</ele><time>2026-03-31T16:39:23.981Z</time></trkpt><trkpt lat="45.58223237592799" lon="10.118199005119331"><ele>155.0</ele><time>2026-03-31T16:39:26.981Z</time></trkpt><trkpt lat="45.58230182073252" lon="10.118148013115167"><ele>155.0</ele><time>2026-03-31T16:39:29.981Z</time></trkpt><trkpt lat="45.58237473552106" lon="10.118102016301497"><ele>155.0</ele><time>2026-03-31T16:39:32.981Z</time></trkpt><trkpt lat="45.5824314906897" lon="10.118033433863145"><ele>155.0</ele><time>2026-03-31T16:39:35.981Z</time></trkpt><trkpt lat="45.58243319957705" lon="10.11791723310399"><ele>155.0</ele><time>2026-03-31T16:39:38.981Z</time></trkpt><trkpt lat="45.58239094223634" lon="10.117822566380454"><ele>155.0</ele><time>2026-03-31T16:39:41.981Z</time></trkpt><trkpt lat="45.58235066137484" lon="10.11773827810699"><ele>155.0</ele><time>2026-03-31T16:39:44.981Z</time></trkpt><trkpt lat="45.58229556632821" lon="10.117676073835876"><ele>155.0</ele><time>2026-03-31T16:39:47.981Z</time></trkpt><trkpt lat="45.58223935940219" lon="10.117606222556295"><ele>155.0</ele><time>2026-03-31T16:39:50.981Z</time></trkpt><trkpt lat="45.58220487389035" lon="10.117505028583855"><ele>155.0</ele><time>2026-03-31T16:39:53.981Z</time></trkpt><trkpt lat="45.582202216235395" lon="10.117386470139628"><ele>155.0</ele><time>2026-03-31T16:39:56.981Z</time></trkpt><trkpt lat="45.5821918006467" lon="10.117276768636216"><ele>155.0</ele><time>2026-03-31T16:39:59.981Z</time></trkpt><trkpt lat="45.582184630036515" lon="10.117164098815188"><ele>155.16666666666666</ele><time>2026-03-31T16:40:02.981Z</time></trkpt><trkpt lat="45.582182005260364" lon="10.117056136943676"><ele>155.33333333333331</ele><time>2026-03-31T16:40:05.981Z</time></trkpt><trkpt lat="45.5821773668228" lon="10.116939454576647"><ele>155.5</ele><time>2026-03-31T16:40:08.981Z</time></trkpt><trkpt lat="45.58217624761955" lon="10.116825204540277"><ele>155.66666666666666</ele><time>2026-03-31T16:40:11.981Z</time></trkpt><trkpt lat="45.582172401400186" lon="10.116703511636329"><ele>155.83333333333334</ele><time>2026-03-31T16:40:14.981Z</time></trkpt><trkpt lat="45.58217778772717" lon="10.116592731587245"><ele>156.0</ele><time>2026-03-31T16:40:17.981Z</time></trkpt><trkpt lat="45.582180690384035" lon="10.116484433506207"><ele>156.0</ele><time>2026-03-31T16:40:20.981Z</time></trkpt><trkpt lat="45.58218434918482" lon="10.116372508349908"><ele>156.0</ele><time>2026-03-31T16:40:23.981Z</time></trkpt><trkpt lat="45.582187918497226" lon="10.116263229096832"><ele>156.0</ele><time>2026-03-31T16:40:26.981Z</time></trkpt><trkpt lat="45.58219370602492" lon="10.11615386786722"><ele>156.0</ele><time>2026-03-31T16:40:29.981Z</time></trkpt><trkpt lat="45.58219748318603" lon="10.11603968824358"><ele>156.0</ele><time>2026-03-31T16:40:32.981Z</time></trkpt><trkpt lat="45.58220543511937" lon="10.115944941375822"><ele>156.0</ele><time>2026-03-31T16:40:35.981Z</time></trkpt><trkpt lat="45.58221173893989" lon="10.115848649982086"><ele>156.0</ele><time>2026-03-31T16:40:38.981Z</time></trkpt><trkpt lat="45.582218267557366" lon="10.115753856106064"><ele>156.5</ele><time>2026-03-31T16:40:41.981Z</time></trkpt><trkpt lat="45.58223786170384" lon="10.11563095433336"><ele>157.0</ele><time>2026-03-31T16:40:45.981Z</time></trkpt><trkpt lat="45.582248913411554" lon="10.115527925266846"><ele>157.5</ele><time>2026-03-31T16:40:48.981Z</time></trkpt><trkpt lat="45.58226537448615" lon="10.115436412989439"><ele>158.0</ele><time>2026-03-31T16:40:51.981Z</time></trkpt><trkpt lat="45.582287457999996" lon="10.115341919758405"><ele>158.5</ele><time>2026-03-31T16:40:54.981Z</time></trkpt><trkpt lat="45.582298017204" lon="10.11523234099858"><ele>159.0</ele><time>2026-03-31T16:40:57.98Z</time></trkpt><trkpt lat="45.58230419575636" lon="10.115122728149702"><ele>159.0</ele><time>2026-03-31T16:41:00.98Z</time></trkpt><trkpt lat="45.582322799081766" lon="10.115017573444574"><ele>159.0</ele><time>2026-03-31T16:41:03.98Z</time></trkpt><trkpt lat="45.58233999731534" lon="10.114907095840335"><ele>159.0</ele><time>2026-03-31T16:41:06.98Z</time></trkpt><trkpt lat="45.58236014558901" lon="10.114805184199307"><ele>159.0</ele><time>2026-03-31T16:41:09.981Z</time></trkpt><trkpt lat="45.582382170341845" lon="10.1147063068501"><ele>159.0</ele><time>2026-03-31T16:41:12.98Z</time></trkpt><trkpt lat="45.58240446418956" lon="10.114592779664804"><ele>159.0</ele><time>2026-03-31T16:41:15.98Z</time></trkpt><trkpt lat="45.58242259864153" lon="10.114478865394773"><ele>159.0</ele><time>2026-03-31T16:41:18.98Z</time></trkpt><trkpt lat="45.58243715532132" lon="10.114374035062625"><ele>159.0</ele><time>2026-03-31T16:41:21.98Z</time></trkpt><trkpt lat="45.58246310498968" lon="10.114267855032208"><ele>159.0</ele><time>2026-03-31T16:41:24.98Z</time></trkpt><trkpt lat="45.58248258364742" lon="10.114162379945432"><ele>159.0</ele><time>2026-03-31T16:41:27.98Z</time></trkpt><trkpt lat="45.58250561595164" lon="10.114059744913066"><ele>159.0</ele><time>2026-03-31T16:41:30.98Z</time></trkpt><trkpt lat="45.5825268828204" lon="10.113958594298337"><ele>159.0</ele><time>2026-03-31T16:41:33.98Z</time></trkpt><trkpt lat="45.5825474892312" lon="10.113857001319852"><ele>159.14285714285714</ele><time>2026-03-31T16:41:36.98Z</time></trkpt><trkpt lat="45.58257152548502" lon="10.113752952130014"><ele>159.2857142857143</ele><time>2026-03-31T16:41:39.98Z</time></trkpt><trkpt lat="45.58259051211309" lon="10.113650490418914"><ele>159.42857142857144</ele><time>2026-03-31T16:41:42.98Z</time></trkpt><trkpt lat="45.582607718447164" lon="10.113545471481414"><ele>159.57142857142856</ele><time>2026-03-31T16:41:45.98Z</time></trkpt><trkpt lat="45.58262731236662" lon="10.113446079660484"><ele>159.71428571428572</ele><time>2026-03-31T16:41:48.98Z</time></trkpt><trkpt lat="45.582645634535524" lon="10.11334572131382"><ele>159.85714285714286</ele><time>2026-03-31T16:41:51.98Z</time></trkpt><trkpt lat="45.5826647788794" lon="10.113239165090848"><ele>160.0</ele><time>2026-03-31T16:41:54.98Z</time></trkpt><trkpt lat="45.58268251755547" lon="10.113126979128417"><ele>160.0</ele><time>2026-03-31T16:41:57.98Z</time></trkpt><trkpt lat="45.58269078139218" lon="10.113022638296794"><ele>160.0</ele><time>2026-03-31T16:42:00.98Z</time></trkpt><trkpt lat="45.582706409898826" lon="10.11290940269605"><ele>160.0</ele><time>2026-03-31T16:42:03.98Z</time></trkpt><trkpt lat="45.582728226731575" lon="10.11279930789541"><ele>160.0</ele><time>2026-03-31T16:42:06.98Z</time></trkpt><trkpt lat="45.58274408420741" lon="10.112680018532949"><ele>160.0</ele><time>2026-03-31T16:42:09.98Z</time></trkpt><trkpt lat="45.582760926527015" lon="10.112568785815986"><ele>160.0</ele><time>2026-03-31T16:42:12.98Z</time></trkpt><trkpt lat="45.582770391269655" lon="10.112469398412333"><ele>160.16666666666669</ele><time>2026-03-31T16:42:15.98Z</time></trkpt><trkpt lat="45.582793704688015" lon="10.112363632478383"><ele>160.33333333333334</ele><time>2026-03-31T16:42:18.98Z</time></trkpt><trkpt lat="45.58280649868197" lon="10.112255879923678"><ele>160.5</ele><time>2026-03-31T16:42:21.98Z</time></trkpt><trkpt lat="45.58282409655132" lon="10.112143250843195"><ele>160.66666666666666</ele><time>2026-03-31T16:42:24.98Z</time></trkpt><trkpt lat="45.58283957573318" lon="10.1120371574804"><ele>160.83333333333331</ele><time>2026-03-31T16:42:27.98Z</time></trkpt><trkpt lat="45.582857713595864" lon="10.111930965770329"><ele>161.0</ele><time>2026-03-31T16:42:30.98Z</time></trkpt><trkpt lat="45.582868336070426" lon="10.111821494062635"><ele>160.83333333333331</ele><time>2026-03-31T16:42:33.98Z</time></trkpt><trkpt lat="45.582886639484535" lon="10.11171055083094"><ele>160.66666666666666</ele><time>2026-03-31T16:42:36.98Z</time></trkpt><trkpt lat="45.58290700188165" lon="10.111601273373493"><ele>160.5</ele><time>2026-03-31T16:42:39.98Z</time></trkpt><trkpt lat="45.5829274875396" lon="10.111497624322329"><ele>160.33333333333334</ele><time>2026-03-31T16:42:42.98Z</time></trkpt><trkpt lat="45.582936538258934" lon="10.111395954168577"><ele>160.16666666666669</ele><time>2026-03-31T16:42:45.98Z</time></trkpt><trkpt lat="45.58294947257924" lon="10.11129026195239"><ele>160.0</ele><time>2026-03-31T16:42:48.98Z</time></trkpt><trkpt lat="45.58296139935683" lon="10.111186201416094"><ele>160.0</ele><time>2026-03-31T16:42:51.98Z</time></trkpt><trkpt lat="45.58297671509398" lon="10.111083825478847"><ele>160.0</ele><time>2026-03-31T16:42:54.98Z</time></trkpt><trkpt lat="45.58299091062551" lon="10.110980659664826"><ele>160.0</ele><time>2026-03-31T16:42:57.98Z</time></trkpt><trkpt lat="45.583001512754485" lon="10.110882707852944"><ele>160.0</ele><time>2026-03-31T16:43:00.98Z</time></trkpt><trkpt lat="45.58302257850698" lon="10.110786759436222"><ele>160.0</ele><time>2026-03-31T16:43:03.98Z</time></trkpt><trkpt lat="45.58305736477145" lon="10.110690689628822"><ele>160.0</ele><time>2026-03-31T16:43:06.98Z</time></trkpt><trkpt lat="45.58309783352938" lon="10.110586370504114"><ele>160.0</ele><time>2026-03-31T16:43:09.979Z</time></trkpt><trkpt lat="45.583145306392915" lon="10.11048656854487"><ele>160.16666666666669</ele><time>2026-03-31T16:43:12.98Z</time></trkpt><trkpt lat="45.5831962545706" lon="10.11039588914337"><ele>160.33333333333334</ele><time>2026-03-31T16:43:15.979Z</time></trkpt><trkpt lat="45.583261559773625" lon="10.110333283809068"><ele>160.5</ele><time>2026-03-31T16:43:18.979Z</time></trkpt><trkpt lat="45.583334786613804" lon="10.110290992407764"><ele>160.66666666666666</ele><time>2026-03-31T16:43:21.979Z</time></trkpt><trkpt lat="45.583410736099836" lon="10.11026002863149"><ele>160.83333333333331</ele><time>2026-03-31T16:43:24.979Z</time></trkpt><trkpt lat="45.58348687753752" lon="10.110234795401873"><ele>161.0</ele><time>2026-03-31T16:43:27.979Z</time></trkpt><trkpt lat="45.583563041352676" lon="10.110203025217633"><ele>161.0</ele><time>2026-03-31T16:43:30.979Z</time></trkpt><trkpt lat="45.58363612743831" lon="10.110185328265574"><ele>161.0</ele><time>2026-03-31T16:43:33.979Z</time></trkpt><trkpt lat="45.58371271950346" lon="10.110176642467852"><ele>161.0</ele><time>2026-03-31T16:43:36.979Z</time></trkpt><trkpt lat="45.583787171628565" lon="10.110175301546247"><ele>161.0</ele><time>2026-03-31T16:43:39.979Z</time></trkpt><trkpt lat="45.5838612861143" lon="10.110166160987946"><ele>161.0</ele><time>2026-03-31T16:43:42.979Z</time></trkpt><trkpt lat="45.58394282116208" lon="10.11017446555134"><ele>161.0</ele><time>2026-03-31T16:43:45.979Z</time></trkpt><trkpt lat="45.58401903520338" lon="10.110171671572642"><ele>161.0</ele><time>2026-03-31T16:43:48.979Z</time></trkpt><trkpt lat="45.58409973908471" lon="10.110173514006572"><ele>161.0</ele><time>2026-03-31T16:43:51.979Z</time></trkpt><trkpt lat="45.58417636028979" lon="10.110182642719677"><ele>161.0</ele><time>2026-03-31T16:43:54.979Z</time></trkpt><trkpt lat="45.58425553040716" lon="10.110202764430735"><ele>161.0</ele><time>2026-03-31T16:43:57.979Z</time></trkpt><trkpt lat="45.58433515039099" lon="10.11022801612749"><ele>161.0</ele><time>2026-03-31T16:44:00.979Z</time></trkpt><trkpt lat="45.58441165713811" lon="10.110252676557003"><ele>161.0</ele><time>2026-03-31T16:44:03.979Z</time></trkpt><trkpt lat="45.58448464649423" lon="10.11027757979725"><ele>160.83333333333331</ele><time>2026-03-31T16:44:06.979Z</time></trkpt><trkpt lat="45.58455973460683" lon="10.11031175786664"><ele>160.66666666666666</ele><time>2026-03-31T16:44:09.979Z</time></trkpt><trkpt lat="45.58463397790959" lon="10.110331290924188"><ele>160.5</ele><time>2026-03-31T16:44:12.979Z</time></trkpt><trkpt lat="45.58471200689448" lon="10.11035195453536"><ele>160.33333333333334</ele><time>2026-03-31T16:44:15.979Z</time></trkpt><trkpt lat="45.58478264895508" lon="10.110376472649786"><ele>160.16666666666669</ele><time>2026-03-31T16:44:18.979Z</time></trkpt><trkpt lat="45.584864950742194" lon="10.110388743649551"><ele>160.0</ele><time>2026-03-31T16:44:21.979Z</time></trkpt><trkpt lat="45.5849393384577" lon="10.11035979057829"><ele>160.0</ele><time>2026-03-31T16:44:24.979Z</time></trkpt><trkpt lat="45.58501106573432" lon="10.110316444286127"><ele>160.0</ele><time>2026-03-31T16:44:27.979Z</time></trkpt><trkpt lat="45.585074228962675" lon="10.110250130431327"><ele>160.0</ele><time>2026-03-31T16:44:30.979Z</time></trkpt><trkpt lat="45.58511635468757" lon="10.110158812756193"><ele>160.0</ele><time>2026-03-31T16:44:33.979Z</time></trkpt><trkpt lat="45.58514251704098" lon="10.110063679959525"><ele>160.0</ele><time>2026-03-31T16:44:36.979Z</time></trkpt><trkpt lat="45.58518300174871" lon="10.109970118422776"><ele>160.0</ele><time>2026-03-31T16:44:39.979Z</time></trkpt><trkpt lat="45.58525895167111" lon="10.109918883463274"><ele>160.33333333333334</ele><time>2026-03-31T16:44:42.979Z</time></trkpt><trkpt lat="45.585322649972206" lon="10.109874385870224"><ele>160.66666666666669</ele><time>2026-03-31T16:44:45.979Z</time></trkpt><trkpt lat="45.58540349325664" lon="10.109868631215374"><ele>161.0</ele><time>2026-03-31T16:44:48.979Z</time></trkpt><trkpt lat="45.5854785311203" lon="10.109894390520106"><ele>161.33333333333334</ele><time>2026-03-31T16:44:51.979Z</time></trkpt><trkpt lat="45.58555423145927" lon="10.109924086683119"><ele>161.66666666666666</ele><time>2026-03-31T16:44:54.979Z</time></trkpt><trkpt lat="45.58562894458526" lon="10.10994809614792"><ele>162.0</ele><time>2026-03-31T16:44:57.979Z</time></trkpt><trkpt lat="45.58570483303216" lon="10.109966171091932"><ele>162.0</ele><time>2026-03-31T16:45:00.979Z</time></trkpt><trkpt lat="45.58577482860833" lon="10.109923355822087"><ele>162.0</ele><time>2026-03-31T16:45:03.979Z</time></trkpt><trkpt lat="45.585862078767015" lon="10.109929687149364"><ele>162.0</ele><time>2026-03-31T16:45:07.979Z</time></trkpt><trkpt lat="45.585932932296615" lon="10.109963529568224"><ele>162.0</ele><time>2026-03-31T16:45:10.979Z</time></trkpt><trkpt lat="45.586002639217085" lon="10.10998559267585"><ele>162.0</ele><time>2026-03-31T16:45:13.978Z</time></trkpt><trkpt lat="45.58607815155139" lon="10.110013076350237"><ele>162.0</ele><time>2026-03-31T16:45:16.979Z</time></trkpt><trkpt lat="45.586148246324306" lon="10.11003084542464"><ele>162.16666666666666</ele><time>2026-03-31T16:45:19.978Z</time></trkpt><trkpt lat="45.586217658548506" lon="10.110065841988805"><ele>162.33333333333334</ele><time>2026-03-31T16:45:22.979Z</time></trkpt><trkpt lat="45.58630006008504" lon="10.11009186310281"><ele>162.5</ele><time>2026-03-31T16:45:25.979Z</time></trkpt><trkpt lat="45.586373336084556" lon="10.110110952784622"><ele>162.66666666666669</ele><time>2026-03-31T16:45:28.979Z</time></trkpt><trkpt lat="45.58644750854276" lon="10.110129306030423"><ele>162.83333333333334</ele><time>2026-03-31T16:45:31.979Z</time></trkpt><trkpt lat="45.586520985180556" lon="10.110148593246754"><ele>163.0</ele><time>2026-03-31T16:45:34.979Z</time></trkpt><trkpt lat="45.58659299864663" lon="10.110171211068517"><ele>163.0</ele><time>2026-03-31T16:45:37.979Z</time></trkpt><trkpt lat="45.58666945929344" lon="10.110195288578856"><ele>163.0</ele><time>2026-03-31T16:45:40.979Z</time></trkpt><trkpt lat="45.586740378219275" lon="10.11021259569899"><ele>163.0</ele><time>2026-03-31T16:45:43.979Z</time></trkpt><trkpt lat="45.58680820657065" lon="10.110241947824328"><ele>163.0</ele><time>2026-03-31T16:45:46.979Z</time></trkpt><trkpt lat="45.58687039023089" lon="10.110271090821044"><ele>163.0</ele><time>2026-03-31T16:45:49.979Z</time></trkpt><trkpt lat="45.58694465385561" lon="10.110301161346676"><ele>163.0</ele><time>2026-03-31T16:45:52.979Z</time></trkpt><trkpt lat="45.58702175254806" lon="10.110318198457273"><ele>163.0</ele><time>2026-03-31T16:45:55.979Z</time></trkpt><trkpt lat="45.587098851379565" lon="10.110342321683582"><ele>163.16666666666669</ele><time>2026-03-31T16:45:58.979Z</time></trkpt><trkpt lat="45.58717366859057" lon="10.110367317632637"><ele>163.33333333333334</ele><time>2026-03-31T16:46:01.979Z</time></trkpt><trkpt lat="45.587248193090176" lon="10.110391525201983"><ele>163.5</ele><time>2026-03-31T16:46:04.979Z</time></trkpt><trkpt lat="45.58732307683282" lon="10.11042052636469"><ele>163.66666666666666</ele><time>2026-03-31T16:46:07.979Z</time></trkpt><trkpt lat="45.58740355281246" lon="10.110438102130544"><ele>163.83333333333331</ele><time>2026-03-31T16:46:10.979Z</time></trkpt><trkpt lat="45.58747205370476" lon="10.11046768980944"><ele>164.0</ele><time>2026-03-31T16:46:13.979Z</time></trkpt><trkpt lat="45.587550238355455" lon="10.11048697369362"><ele>164.0</ele><time>2026-03-31T16:46:16.979Z</time></trkpt><trkpt lat="45.58763026349108" lon="10.110511016784294"><ele>164.0</ele><time>2026-03-31T16:46:19.979Z</time></trkpt><trkpt lat="45.58770603613971" lon="10.110531006901267"><ele>164.0</ele><time>2026-03-31T16:46:22.979Z</time></trkpt><trkpt lat="45.58778915354077" lon="10.110541848348767"><ele>164.0</ele><time>2026-03-31T16:46:25.979Z</time></trkpt><trkpt lat="45.58787356615759" lon="10.110553884500947"><ele>164.0</ele><time>2026-03-31T16:46:28.979Z</time></trkpt><trkpt lat="45.587952351331566" lon="10.110566073405764"><ele>164.0</ele><time>2026-03-31T16:46:31.979Z</time></trkpt><trkpt lat="45.58803377323522" lon="10.110564894011976"><ele>163.83333333333331</ele><time>2026-03-31T16:46:34.979Z</time></trkpt><trkpt lat="45.588115211109425" lon="10.110571127641213"><ele>163.66666666666666</ele><time>2026-03-31T16:46:37.979Z</time></trkpt><trkpt lat="45.58819845118348" lon="10.11055605666976"><ele>163.5</ele><time>2026-03-31T16:46:40.979Z</time></trkpt><trkpt lat="45.58827489356013" lon="10.110559508782519"><ele>163.33333333333334</ele><time>2026-03-31T16:46:43.979Z</time></trkpt><trkpt lat="45.58835116572763" lon="10.11055133314004"><ele>163.16666666666669</ele><time>2026-03-31T16:46:46.979Z</time></trkpt><trkpt lat="45.588432945868746" lon="10.110529322527299"><ele>163.0</ele><time>2026-03-31T16:46:49.979Z</time></trkpt><trkpt lat="45.58851794228245" lon="10.11052498269175"><ele>163.0</ele><time>2026-03-31T16:46:52.979Z</time></trkpt><trkpt lat="45.588599958602394" lon="10.110513004472985"><ele>163.0</ele><time>2026-03-31T16:46:55.979Z</time></trkpt><trkpt lat="45.588681414247155" lon="10.110470579201676"><ele>163.0</ele><time>2026-03-31T16:46:58.979Z</time></trkpt><trkpt lat="45.58875910277731" lon="10.110444763497211"><ele>163.0</ele><time>2026-03-31T16:47:01.979Z</time></trkpt><trkpt lat="45.588832318998044" lon="10.110407508119915"><ele>163.0</ele><time>2026-03-31T16:47:04.979Z</time></trkpt><trkpt lat="45.588904869977306" lon="10.110377996323539"><ele>163.0</ele><time>2026-03-31T16:47:07.979Z</time></trkpt><trkpt lat="45.588978381472" lon="10.110354318724202"><ele>163.33333333333334</ele><time>2026-03-31T16:47:10.979Z</time></trkpt><trkpt lat="45.58905915305607" lon="10.110321353605526"><ele>163.66666666666669</ele><time>2026-03-31T16:47:13.978Z</time></trkpt><trkpt lat="45.58913911865066" lon="10.110294857965307"><ele>164.0</ele><time>2026-03-31T16:47:16.978Z</time></trkpt><trkpt lat="45.58921597030927" lon="10.110309564695765"><ele>164.33333333333334</ele><time>2026-03-31T16:47:19.979Z</time></trkpt><trkpt lat="45.58929378540495" lon="10.110320655613835"><ele>164.66666666666666</ele><time>2026-03-31T16:47:22.978Z</time></trkpt><trkpt lat="45.58937711071736" lon="10.110317790305642"><ele>165.0</ele><time>2026-03-31T16:47:25.978Z</time></trkpt><trkpt lat="45.58946146183614" lon="10.110289191774857"><ele>165.6</ele><time>2026-03-31T16:47:28.978Z</time></trkpt><trkpt lat="45.58953903322605" lon="10.11027507148653"><ele>166.2</ele><time>2026-03-31T16:47:31.978Z</time></trkpt><trkpt lat="45.58962144827712" lon="10.11025083032228"><ele>166.8</ele><time>2026-03-31T16:47:34.978Z</time></trkpt><trkpt lat="45.58970139820471" lon="10.110252421235813"><ele>167.4</ele><time>2026-03-31T16:47:37.978Z</time></trkpt><trkpt lat="45.58977659224201" lon="10.11024827857866"><ele>168.0</ele><time>2026-03-31T16:47:40.978Z</time></trkpt><trkpt lat="45.58993965799651" lon="10.110243734659058"><ele>168.0</ele><time>2026-03-31T16:47:46.978Z</time></trkpt><trkpt lat="45.590115199483115" lon="10.110239846267563"><ele>168.0</ele><time>2026-03-31T16:47:53.978Z</time></trkpt><trkpt lat="45.590193625172375" lon="10.110220838760936"><ele>168.0</ele><time>2026-03-31T16:47:56.978Z</time></trkpt><trkpt lat="45.59026507911849" lon="10.110183638720413"><ele>168.0</ele><time>2026-03-31T16:47:59.978Z</time></trkpt><trkpt lat="45.590342837387325" lon="10.110169631444077"><ele>168.0</ele><time>2026-03-31T16:48:02.978Z</time></trkpt><trkpt lat="45.59041469813653" lon="10.11014710634221"><ele>168.16666666666666</ele><time>2026-03-31T16:48:05.978Z</time></trkpt><trkpt lat="45.59048678162046" lon="10.110123648220034"><ele>168.33333333333334</ele><time>2026-03-31T16:48:08.977Z</time></trkpt><trkpt lat="45.59056671544291" lon="10.110128059937962"><ele>168.5</ele><time>2026-03-31T16:48:11.977Z</time></trkpt><trkpt lat="45.59064603598794" lon="10.110108566797566"><ele>168.66666666666669</ele><time>2026-03-31T16:48:14.977Z</time></trkpt><trkpt lat="45.590723052641955" lon="10.110115608609831"><ele>168.83333333333334</ele><time>2026-03-31T16:48:17.977Z</time></trkpt><trkpt lat="45.590804999027526" lon="10.110109338919951"><ele>169.0</ele><time>2026-03-31T16:48:20.977Z</time></trkpt><trkpt lat="45.590883323950926" lon="10.110113784131514"><ele>169.0</ele><time>2026-03-31T16:48:23.977Z</time></trkpt><trkpt lat="45.590965636156106" lon="10.110101525976606"><ele>169.0</ele><time>2026-03-31T16:48:26.977Z</time></trkpt><trkpt lat="45.591034567831976" lon="10.11009924407653"><ele>169.0</ele><time>2026-03-31T16:48:29.977Z</time></trkpt><trkpt lat="45.59110281004844" lon="10.110111784947925"><ele>169.0</ele><time>2026-03-31T16:48:32.977Z</time></trkpt><trkpt lat="45.59118235955584" lon="10.110114743560848"><ele>169.0</ele><time>2026-03-31T16:48:35.977Z</time></trkpt><trkpt lat="45.591267301082475" lon="10.110095859680863"><ele>169.0</ele><time>2026-03-31T16:48:38.977Z</time></trkpt><trkpt lat="45.591346024989754" lon="10.110089685822294"><ele>169.16666666666669</ele><time>2026-03-31T16:48:41.977Z</time></trkpt><trkpt lat="45.59143062441418" lon="10.110096321687246"><ele>169.33333333333334</ele><time>2026-03-31T16:48:44.977Z</time></trkpt><trkpt lat="45.59149761240497" lon="10.110118040290828"><ele>169.5</ele><time>2026-03-31T16:48:47.977Z</time></trkpt><trkpt lat="45.59157911563918" lon="10.110149782481026"><ele>169.66666666666666</ele><time>2026-03-31T16:48:50.977Z</time></trkpt><trkpt lat="45.59164586482637" lon="10.110168612737345"><ele>169.83333333333331</ele><time>2026-03-31T16:48:53.977Z</time></trkpt><trkpt lat="45.591726579586194" lon="10.110169020253556"><ele>170.0</ele><time>2026-03-31T16:48:56.977Z</time></trkpt><trkpt lat="45.59179327942272" lon="10.11022224833676"><ele>170.0</ele><time>2026-03-31T16:48:59.977Z</time></trkpt><trkpt lat="45.591849823825385" lon="10.11029667025344"><ele>170.0</ele><time>2026-03-31T16:49:02.977Z</time></trkpt><trkpt lat="45.59190777831443" lon="10.110344512526307"><ele>170.0</ele><time>2026-03-31T16:49:05.977Z</time></trkpt><trkpt lat="45.59197961542577" lon="10.110397584844286"><ele>170.0</ele><time>2026-03-31T16:49:08.977Z</time></trkpt><trkpt lat="45.59204992525289" lon="10.110458786083042"><ele>170.0</ele><time>2026-03-31T16:49:11.977Z</time></trkpt><trkpt lat="45.592105462591135" lon="10.110530105990726"><ele>170.0</ele><time>2026-03-31T16:49:14.977Z</time></trkpt><trkpt lat="45.592177754241355" lon="10.110592632156273"><ele>170.0</ele><time>2026-03-31T16:49:17.977Z</time></trkpt><trkpt lat="45.592247509759524" lon="10.110637973737475"><ele>170.0</ele><time>2026-03-31T16:49:20.978Z</time></trkpt><trkpt lat="45.5923078141783" lon="10.110689564964318"><ele>170.0</ele><time>2026-03-31T16:49:23.977Z</time></trkpt><trkpt lat="45.592365940750575" lon="10.11073607137942"><ele>170.0</ele><time>2026-03-31T16:49:25.977Z</time></trkpt><trkpt lat="45.59244932684764" lon="10.110770999008128"><ele>170.0</ele><time>2026-03-31T16:49:28.977Z</time></trkpt><trkpt lat="45.59252482710683" lon="10.110773974949554"><ele>170.0</ele><time>2026-03-31T16:49:31.977Z</time></trkpt><trkpt lat="45.592599238048656" lon="10.1108224957278"><ele>170.0</ele><time>2026-03-31T16:49:34.978Z</time></trkpt><trkpt lat="45.592663657468435" lon="10.110826202656419"><ele>170.0</ele><time>2026-03-31T16:49:36.978Z</time></trkpt><trkpt lat="45.59274953071584" lon="10.110824159095575"><ele>170.0</ele><time>2026-03-31T16:49:39.978Z</time></trkpt><trkpt lat="45.59281874274893" lon="10.110851402757335"><ele>170.0</ele><time>2026-03-31T16:49:42.978Z</time></trkpt><trkpt lat="45.59288934491635" lon="10.110856408562574"><ele>170.0</ele><time>2026-03-31T16:49:45.978Z</time></trkpt><trkpt lat="45.592964489614054" lon="10.110824087080497"><ele>170.0</ele><time>2026-03-31T16:49:48.978Z</time></trkpt><trkpt lat="45.59304568387308" lon="10.110794435975766"><ele>170.16666666666666</ele><time>2026-03-31T16:49:51.978Z</time></trkpt><trkpt lat="45.59310691424101" lon="10.110842813990518"><ele>170.33333333333331</ele><time>2026-03-31T16:49:53.978Z</time></trkpt><trkpt lat="45.59315917257416" lon="10.110901205891325"><ele>170.5</ele><time>2026-03-31T16:49:55.978Z</time></trkpt><trkpt lat="45.593235088500194" lon="10.110904179597137"><ele>170.66666666666666</ele><time>2026-03-31T16:49:58.978Z</time></trkpt><trkpt lat="45.593319482371164" lon="10.110900393041577"><ele>170.83333333333334</ele><time>2026-03-31T16:50:01.977Z</time></trkpt><trkpt lat="45.593409574409435" lon="10.110921988920929"><ele>171.0</ele><time>2026-03-31T16:50:04.977Z</time></trkpt><trkpt lat="45.59348404430282" lon="10.110914200449674"><ele>171.0</ele><time>2026-03-31T16:50:07.977Z</time></trkpt><trkpt lat="45.593562885823744" lon="10.110913071182509"><ele>171.0</ele><time>2026-03-31T16:50:10.977Z</time></trkpt><trkpt lat="45.5936443443374" lon="10.110924635933063"><ele>171.0</ele><time>2026-03-31T16:50:13.977Z</time></trkpt><trkpt lat="45.59371063722902" lon="10.110950817912562"><ele>171.0</ele><time>2026-03-31T16:50:16.977Z</time></trkpt><trkpt lat="45.59378608315191" lon="10.110942865214575"><ele>171.0</ele><time>2026-03-31T16:50:19.977Z</time></trkpt><trkpt lat="45.59386274827154" lon="10.110918730372239"><ele>171.0</ele><time>2026-03-31T16:50:22.977Z</time></trkpt><trkpt lat="45.593927871795906" lon="10.110961925150141"><ele>171.0</ele><time>2026-03-31T16:50:25.977Z</time></trkpt><trkpt lat="45.59400997561232" lon="10.110961093038142"><ele>171.0</ele><time>2026-03-31T16:50:28.977Z</time></trkpt><trkpt lat="45.594090164324086" lon="10.110949043412047"><ele>171.0</ele><time>2026-03-31T16:50:31.977Z</time></trkpt><trkpt lat="45.594167580750884" lon="10.110889746822675"><ele>171.0</ele><time>2026-03-31T16:50:34.977Z</time></trkpt><trkpt lat="45.59422784247616" lon="10.110799970995881"><ele>171.0</ele><time>2026-03-31T16:50:37.977Z</time></trkpt><trkpt lat="45.59428551487485" lon="10.11072677600675"><ele>171.0</ele><time>2026-03-31T16:50:40.977Z</time></trkpt><trkpt lat="45.594345845235104" lon="10.110661331140864"><ele>171.16666666666666</ele><time>2026-03-31T16:50:43.977Z</time></trkpt><trkpt lat="45.59441055267432" lon="10.11059009411467"><ele>171.33333333333334</ele><time>2026-03-31T16:50:46.977Z</time></trkpt><trkpt lat="45.594467607768564" lon="10.110513462787049"><ele>171.5</ele><time>2026-03-31T16:50:49.977Z</time></trkpt><trkpt lat="45.59453406775626" lon="10.110454815215"><ele>171.66666666666669</ele><time>2026-03-31T16:50:52.977Z</time></trkpt><trkpt lat="45.59461513421903" lon="10.110415128226391"><ele>171.83333333333334</ele><time>2026-03-31T16:50:55.977Z</time></trkpt><trkpt lat="45.594696683817645" lon="10.110395878379538"><ele>172.0</ele><time>2026-03-31T16:50:58.977Z</time></trkpt><trkpt lat="45.59477487413862" lon="10.110368343531732"><ele>172.0</ele><time>2026-03-31T16:51:01.977Z</time></trkpt><trkpt lat="45.59484317910443" lon="10.110318097943363"><ele>172.0</ele><time>2026-03-31T16:51:04.977Z</time></trkpt><trkpt lat="45.594903584768836" lon="10.110258078529016"><ele>172.0</ele><time>2026-03-31T16:51:07.977Z</time></trkpt><trkpt lat="45.59497032630856" lon="10.110193497171823"><ele>172.0</ele><time>2026-03-31T16:51:10.977Z</time></trkpt><trkpt lat="45.59500577839798" lon="10.110104291569138"><ele>172.0</ele><time>2026-03-31T16:51:13.977Z</time></trkpt><trkpt lat="45.5950452015654" lon="10.110017580628899"><ele>172.0</ele><time>2026-03-31T16:51:16.977Z</time></trkpt><trkpt lat="45.59511376831872" lon="10.109940492303144"><ele>172.2857142857143</ele><time>2026-03-31T16:51:19.977Z</time></trkpt><trkpt lat="45.59516641550757" lon="10.10985520396119"><ele>172.57142857142858</ele><time>2026-03-31T16:51:22.977Z</time></trkpt><trkpt lat="45.59520740897346" lon="10.10976825915056"><ele>172.85714285714286</ele><time>2026-03-31T16:51:25.977Z</time></trkpt><trkpt lat="45.59523478820488" lon="10.109681502479335"><ele>173.14285714285717</ele><time>2026-03-31T16:51:28.977Z</time></trkpt><trkpt lat="45.59529444972988" lon="10.109591509674642"><ele>173.42857142857144</ele><time>2026-03-31T16:51:31.976Z</time></trkpt><trkpt lat="45.5953427185137" lon="10.109515498728895"><ele>173.71428571428572</ele><time>2026-03-31T16:51:34.976Z</time></trkpt><trkpt lat="45.595389711988325" lon="10.109439852677415"><ele>174.0</ele><time>2026-03-31T16:51:37.976Z</time></trkpt><trkpt lat="45.59543925265282" lon="10.10935001935335"><ele>174.14285714285714</ele><time>2026-03-31T16:51:40.977Z</time></trkpt><trkpt lat="45.595497323087706" lon="10.10925244298298"><ele>174.28571428571428</ele><time>2026-03-31T16:51:43.977Z</time></trkpt><trkpt lat="45.59555838445595" lon="10.109181265594655"><ele>174.42857142857144</ele><time>2026-03-31T16:51:46.977Z</time></trkpt><trkpt lat="45.59560816320128" lon="10.10910798810414"><ele>174.57142857142856</ele><time>2026-03-31T16:51:49.977Z</time></trkpt><trkpt lat="45.595637560601595" lon="10.109027321717104"><ele>174.71428571428572</ele><time>2026-03-31T16:51:52.977Z</time></trkpt><trkpt lat="45.595693443397266" lon="10.108971666335025"><ele>174.85714285714286</ele><time>2026-03-31T16:51:55.977Z</time></trkpt><trkpt lat="45.595751731529774" lon="10.108913826331253"><ele>175.0</ele><time>2026-03-31T16:51:58.977Z</time></trkpt><trkpt lat="45.59583016827864" lon="10.108886011795889"><ele>175.16666666666669</ele><time>2026-03-31T16:52:01.977Z</time></trkpt><trkpt lat="45.59589993749666" lon="10.108851333429755"><ele>175.33333333333334</ele><time>2026-03-31T16:52:04.977Z</time></trkpt><trkpt lat="45.59596963172335" lon="10.108818966657363"><ele>175.5</ele><time>2026-03-31T16:52:07.977Z</time></trkpt><trkpt lat="45.596044075262945" lon="10.10879019476545"><ele>175.66666666666666</ele><time>2026-03-31T16:52:10.977Z</time></trkpt><trkpt lat="45.59612316105597" lon="10.108735930988905"><ele>175.83333333333331</ele><time>2026-03-31T16:52:13.977Z</time></trkpt><trkpt lat="45.59620046905518" lon="10.108727039616427"><ele>176.0</ele><time>2026-03-31T16:52:16.977Z</time></trkpt><trkpt lat="45.59627688670434" lon="10.10872913427926"><ele>175.66666666666666</ele><time>2026-03-31T16:52:19.977Z</time></trkpt><trkpt lat="45.59636084735867" lon="10.108710343160645"><ele>175.33333333333331</ele><time>2026-03-31T16:52:22.977Z</time></trkpt><trkpt lat="45.59643267245432" lon="10.108703253666464"><ele>175.0</ele><time>2026-03-31T16:52:25.977Z</time></trkpt><trkpt lat="45.59651217950931" lon="10.108698700242224"><ele>174.66666666666666</ele><time>2026-03-31T16:52:28.977Z</time></trkpt><trkpt lat="45.59659644558314" lon="10.108681084885761"><ele>174.33333333333334</ele><time>2026-03-31T16:52:31.977Z</time></trkpt><trkpt lat="45.59665915682477" lon="10.108672557562159"><ele>174.0</ele><time>2026-03-31T16:52:33.977Z</time></trkpt><trkpt lat="45.59674494160516" lon="10.108645020522669"><ele>174.0</ele><time>2026-03-31T16:52:36.977Z</time></trkpt><trkpt lat="45.59682084529921" lon="10.108601142335516"><ele>174.0</ele><time>2026-03-31T16:52:39.977Z</time></trkpt><trkpt lat="45.596897714981694" lon="10.108551349755528"><ele>174.0</ele><time>2026-03-31T16:52:42.977Z</time></trkpt><trkpt lat="45.59695860855713" lon="10.10848226623837"><ele>174.0</ele><time>2026-03-31T16:52:45.977Z</time></trkpt><trkpt lat="45.59701330433192" lon="10.108414294342069"><ele>174.0</ele><time>2026-03-31T16:52:48.977Z</time></trkpt><trkpt lat="45.59707609788593" lon="10.108334773303131"><ele>174.0</ele><time>2026-03-31T16:52:51.977Z</time></trkpt><trkpt lat="45.59713530236199" lon="10.108263837309883"><ele>173.85714285714286</ele><time>2026-03-31T16:52:54.977Z</time></trkpt><trkpt lat="45.59719819286183" lon="10.10822777399995"><ele>173.71428571428572</ele><time>2026-03-31T16:52:56.977Z</time></trkpt><trkpt lat="45.59726871798619" lon="10.108256491292467"><ele>173.57142857142856</ele><time>2026-03-31T16:52:58.976Z</time></trkpt><trkpt lat="45.59734159962349" lon="10.1082607303009"><ele>173.42857142857144</ele><time>2026-03-31T16:53:01.976Z</time></trkpt><trkpt lat="45.597381111449764" lon="10.1081879342322"><ele>173.2857142857143</ele><time>2026-03-31T16:53:03.976Z</time></trkpt><trkpt lat="45.597400585315484" lon="10.108088927937288"><ele>173.14285714285714</ele><time>2026-03-31T16:53:06.976Z</time></trkpt><trkpt lat="45.59741452913275" lon="10.107986374966798"><ele>173.0</ele><time>2026-03-31T16:53:09.976Z</time></trkpt><trkpt lat="45.59745026148337" lon="10.107883796225767"><ele>173.0</ele><time>2026-03-31T16:53:12.976Z</time></trkpt><trkpt lat="45.59748499771152" lon="10.10778732046078"><ele>173.0</ele><time>2026-03-31T16:53:15.976Z</time></trkpt><trkpt lat="45.597515787911256" lon="10.107671907044846"><ele>173.0</ele><time>2026-03-31T16:53:18.976Z</time></trkpt><trkpt lat="45.59755034535331" lon="10.107558335934463"><ele>173.0</ele><time>2026-03-31T16:53:21.976Z</time></trkpt><trkpt lat="45.59758168155248" lon="10.107449428542798"><ele>173.0</ele><time>2026-03-31T16:53:24.976Z</time></trkpt><trkpt lat="45.59760182641015" lon="10.107340882371973"><ele>173.0</ele><time>2026-03-31T16:53:27.976Z</time></trkpt><trkpt lat="45.597626727488695" lon="10.10724298306139"><ele>173.33333333333331</ele><time>2026-03-31T16:53:30.976Z</time></trkpt><trkpt lat="45.597663358039746" lon="10.10714125684442"><ele>173.66666666666666</ele><time>2026-03-31T16:53:33.976Z</time></trkpt><trkpt lat="45.597684430229904" lon="10.107037996321818"><ele>174.0</ele><time>2026-03-31T16:53:36.976Z</time></trkpt><trkpt lat="45.59771983918107" lon="10.106935175202423"><ele>174.33333333333334</ele><time>2026-03-31T16:53:39.976Z</time></trkpt><trkpt lat="45.59774606816083" lon="10.10683956324123"><ele>174.66666666666669</ele><time>2026-03-31T16:53:42.975Z</time></trkpt><trkpt lat="45.59777762057787" lon="10.106736953180798"><ele>175.0</ele><time>2026-03-31T16:53:45.976Z</time></trkpt><trkpt lat="45.597809405331674" lon="10.106640759100136"><ele>175.5</ele><time>2026-03-31T16:53:48.976Z</time></trkpt><trkpt lat="45.59783119678156" lon="10.1065374472956"><ele>176.0</ele><time>2026-03-31T16:53:51.976Z</time></trkpt><trkpt lat="45.59784827595315" lon="10.106422450254442"><ele>176.5</ele><time>2026-03-31T16:53:54.976Z</time></trkpt><trkpt lat="45.59785139165053" lon="10.106305510026765"><ele>177.0</ele><time>2026-03-31T16:53:57.976Z</time></trkpt><trkpt lat="45.597895049168116" lon="10.106213952152917"><ele>177.5</ele><time>2026-03-31T16:54:00.976Z</time></trkpt><trkpt lat="45.59802619389" lon="10.106212343547792"><ele>178.0</ele><time>2026-03-31T16:54:05.976Z</time></trkpt><trkpt lat="45.59809321195895" lon="10.106240756254214"><ele>178.16666666666669</ele><time>2026-03-31T16:54:08.976Z</time></trkpt><trkpt lat="45.59817671674893" lon="10.106260179303499"><ele>178.33333333333334</ele><time>2026-03-31T16:54:11.976Z</time></trkpt><trkpt lat="45.598265408942666" lon="10.10628435430636"><ele>178.5</ele><time>2026-03-31T16:54:14.976Z</time></trkpt><trkpt lat="45.598335157923024" lon="10.106317087420761"><ele>178.66666666666666</ele><time>2026-03-31T16:54:17.976Z</time></trkpt><trkpt lat="45.59841476733367" lon="10.106357285581538"><ele>178.83333333333331</ele><time>2026-03-31T16:54:20.976Z</time></trkpt><trkpt lat="45.59848816897511" lon="10.106381581978324"><ele>179.0</ele><time>2026-03-31T16:54:23.976Z</time></trkpt><trkpt lat="45.598565303631716" lon="10.106408131608362"><ele>179.0</ele><time>2026-03-31T16:54:26.976Z</time></trkpt><trkpt lat="45.59864126679809" lon="10.106428782588562"><ele>179.0</ele><time>2026-03-31T16:54:29.976Z</time></trkpt><trkpt lat="45.59871151933528" lon="10.106498162905101"><ele>179.0</ele><time>2026-03-31T16:54:32.976Z</time></trkpt><trkpt lat="45.59878287457453" lon="10.106565259162686"><ele>179.0</ele><time>2026-03-31T16:54:35.976Z</time></trkpt><trkpt lat="45.59885359365129" lon="10.106632421461363"><ele>179.0</ele><time>2026-03-31T16:54:38.976Z</time></trkpt><trkpt lat="45.59892193075219" lon="10.106682310546832"><ele>179.0</ele><time>2026-03-31T16:54:41.976Z</time></trkpt><trkpt lat="45.59899898465026" lon="10.106725436298447"><ele>178.83333333333331</ele><time>2026-03-31T16:54:44.976Z</time></trkpt><trkpt lat="45.59906763136874" lon="10.106768304605113"><ele>178.66666666666666</ele><time>2026-03-31T16:54:47.976Z</time></trkpt><trkpt lat="45.599137659817636" lon="10.106827705784932"><ele>178.5</ele><time>2026-03-31T16:54:50.976Z</time></trkpt><trkpt lat="45.599208672071725" lon="10.106879223414648"><ele>178.33333333333334</ele><time>2026-03-31T16:54:53.976Z</time></trkpt><trkpt lat="45.599275327376496" lon="10.106946137864224"><ele>178.16666666666669</ele><time>2026-03-31T16:54:56.976Z</time></trkpt><trkpt lat="45.59933670875498" lon="10.107015671304998"><ele>178.0</ele><time>2026-03-31T16:54:59.976Z</time></trkpt><trkpt lat="45.59939498779715" lon="10.10707418238156"><ele>178.0</ele><time>2026-03-31T16:55:02.976Z</time></trkpt><trkpt lat="45.59946560382477" lon="10.107119393479337"><ele>178.0</ele><time>2026-03-31T16:55:05.976Z</time></trkpt><trkpt lat="45.59953630394434" lon="10.107174018135575"><ele>178.0</ele><time>2026-03-31T16:55:08.976Z</time></trkpt><trkpt lat="45.59959775074846" lon="10.107253484734215"><ele>178.0</ele><time>2026-03-31T16:55:11.976Z</time></trkpt><trkpt lat="45.59967140038073" lon="10.107316990948984"><ele>178.0</ele><time>2026-03-31T16:55:14.976Z</time></trkpt><trkpt lat="45.59974016826312" lon="10.107383986042702"><ele>178.0</ele><time>2026-03-31T16:55:17.976Z</time></trkpt><trkpt lat="45.59980324161513" lon="10.107446533712439"><ele>178.5</ele><time>2026-03-31T16:55:20.976Z</time></trkpt><trkpt lat="45.59987047395023" lon="10.107508346897271"><ele>179.0</ele><time>2026-03-31T16:55:23.976Z</time></trkpt><trkpt lat="45.59993992023524" lon="10.107548385783712"><ele>179.5</ele><time>2026-03-31T16:55:26.976Z</time></trkpt><trkpt lat="45.6000130991797" lon="10.107589908466545"><ele>180.0</ele><time>2026-03-31T16:55:29.976Z</time></trkpt><trkpt lat="45.60008698938597" lon="10.10762357006053"><ele>180.5</ele><time>2026-03-31T16:55:32.976Z</time></trkpt><trkpt lat="45.600145360557065" lon="10.107686876808552"><ele>181.0</ele><time>2026-03-31T16:55:35.976Z</time></trkpt><trkpt lat="45.60020422867802" lon="10.107758774414794"><ele>181.0</ele><time>2026-03-31T16:55:38.975Z</time></trkpt><trkpt lat="45.600274605672915" lon="10.107812458744473"><ele>181.0</ele><time>2026-03-31T16:55:41.975Z</time></trkpt><trkpt lat="45.600340363555205" lon="10.10786763910607"><ele>181.0</ele><time>2026-03-31T16:55:44.975Z</time></trkpt><trkpt lat="45.60041187990122" lon="10.107918754452179"><ele>181.0</ele><time>2026-03-31T16:55:47.975Z</time></trkpt><trkpt lat="45.60048410389671" lon="10.107951873620094"><ele>181.0</ele><time>2026-03-31T16:55:50.975Z</time></trkpt><trkpt lat="45.60055616037949" lon="10.10798245857229"><ele>181.0</ele><time>2026-03-31T16:55:53.975Z</time></trkpt><trkpt lat="45.600626693609165" lon="10.10802581998547"><ele>180.66666666666669</ele><time>2026-03-31T16:55:56.975Z</time></trkpt><trkpt lat="45.60069072055729" lon="10.108071023045659"><ele>180.33333333333334</ele><time>2026-03-31T16:55:59.975Z</time></trkpt><trkpt lat="45.60076593113195" lon="10.108072845941185"><ele>180.0</ele><time>2026-03-31T16:56:02.975Z</time></trkpt><trkpt lat="45.60084154401922" lon="10.108114989413838"><ele>179.66666666666666</ele><time>2026-03-31T16:56:05.975Z</time></trkpt><trkpt lat="45.600923308067664" lon="10.108158880852315"><ele>179.33333333333331</ele><time>2026-03-31T16:56:08.975Z</time></trkpt><trkpt lat="45.60098419361595" lon="10.10821022737344"><ele>179.0</ele><time>2026-03-31T16:56:11.975Z</time></trkpt><trkpt lat="45.601056366386" lon="10.108251891095085"><ele>179.0</ele><time>2026-03-31T16:56:14.975Z</time></trkpt><trkpt lat="45.60112885061084" lon="10.108293897104646"><ele>179.0</ele><time>2026-03-31T16:56:17.975Z</time></trkpt><trkpt lat="45.60119438114462" lon="10.108364908537105"><ele>179.0</ele><time>2026-03-31T16:56:20.975Z</time></trkpt><trkpt lat="45.60117915919597" lon="10.108487283708763"><ele>179.0</ele><time>2026-03-31T16:56:23.975Z</time></trkpt><trkpt lat="45.60115931866579" lon="10.108573073292064"><ele>179.0</ele><time>2026-03-31T16:56:26.975Z</time></trkpt><trkpt lat="45.60114665124347" lon="10.108676936829717"><ele>179.0</ele><time>2026-03-31T16:56:29.975Z</time></trkpt><trkpt lat="45.601149683891734" lon="10.108786907812208"><ele>178.5</ele><time>2026-03-31T16:56:32.968Z</time></trkpt><trkpt lat="45.60115757962077" lon="10.108904645120043"><ele>178.0</ele><time>2026-03-31T16:56:35.961Z</time></trkpt><trkpt lat="45.601136551825114" lon="10.109014546678052"><ele>177.5</ele><time>2026-03-31T16:56:38.956Z</time></trkpt><trkpt lat="45.60112649564088" lon="10.109110156781954"><ele>177.0</ele><time>2026-03-31T16:56:41.951Z</time></trkpt><trkpt lat="45.60112140599483" lon="10.109217281447778"><ele>176.5</ele><time>2026-03-31T16:56:44.947Z</time></trkpt><trkpt lat="45.601101015494876" lon="10.109332347472922"><ele>176.0</ele><time>2026-03-31T16:56:47.944Z</time></trkpt><trkpt lat="45.601088507763706" lon="10.10943949523338"><ele>176.0</ele><time>2026-03-31T16:56:50.941Z</time></trkpt><trkpt lat="45.601085517577886" lon="10.109537420321443"><ele>176.0</ele><time>2026-03-31T16:56:53.939Z</time></trkpt><trkpt lat="45.601058494405294" lon="10.10964802540746"><ele>176.0</ele><time>2026-03-31T16:56:56.937Z</time></trkpt><trkpt lat="45.60103038438831" lon="10.109757167629562"><ele>176.0</ele><time>2026-03-31T16:56:59.936Z</time></trkpt><trkpt lat="45.6010069082695" lon="10.109852452700876"><ele>176.0</ele><time>2026-03-31T16:57:02.934Z</time></trkpt><trkpt lat="45.60099045147699" lon="10.109956322169582"><ele>176.0</ele><time>2026-03-31T16:57:05.933Z</time></trkpt><trkpt lat="45.600970999800005" lon="10.110059644816909"><ele>176.14285714285714</ele><time>2026-03-31T16:57:08.933Z</time></trkpt><trkpt lat="45.60095077900035" lon="10.110165124357586"><ele>176.28571428571428</ele><time>2026-03-31T16:57:11.932Z</time></trkpt><trkpt lat="45.60097551589334" lon="10.11025534796037"><ele>176.42857142857144</ele><time>2026-03-31T16:57:14.931Z</time></trkpt><trkpt lat="45.60104201738813" lon="10.110309601786707"><ele>176.57142857142856</ele><time>2026-03-31T16:57:17.931Z</time></trkpt><trkpt lat="45.60110223767182" lon="10.110363801515234"><ele>176.7142857142857</ele><time>2026-03-31T16:57:20.93Z</time></trkpt><trkpt lat="45.60115584347626" lon="10.110419893568091"><ele>176.85714285714286</ele><time>2026-03-31T16:57:23.93Z</time></trkpt><trkpt lat="45.60122244156063" lon="10.110501011952755"><ele>177.0</ele><time>2026-03-31T16:57:26.93Z</time></trkpt><trkpt lat="45.6012885657634" lon="10.110569319949606"><ele>177.66666666666666</ele><time>2026-03-31T16:57:29.929Z</time></trkpt><trkpt lat="45.601350000185526" lon="10.110643276023884"><ele>178.33333333333334</ele><time>2026-03-31T16:57:32.929Z</time></trkpt><trkpt lat="45.601412041846224" lon="10.110715402294414"><ele>179.0</ele><time>2026-03-31T16:57:35.929Z</time></trkpt><trkpt lat="45.601472478463364" lon="10.110800798696493"><ele>179.66666666666669</ele><time>2026-03-31T16:57:38.929Z</time></trkpt><trkpt lat="45.60148878873187" lon="10.110888206704079"><ele>180.33333333333334</ele><time>2026-03-31T16:57:41.929Z</time></trkpt><trkpt lat="45.60141807368065" lon="10.110908472149683"><ele>181.0</ele><time>2026-03-31T16:57:43.928Z</time></trkpt><trkpt lat="45.60134640893121" lon="10.110906565684564"><ele>181.0</ele><time>2026-03-31T16:57:46.928Z</time></trkpt><trkpt lat="45.601285901198274" lon="10.110853071887153"><ele>181.0</ele><time>2026-03-31T16:57:49.928Z</time></trkpt><trkpt lat="45.60123471909372" lon="10.110772648271325"><ele>181.0</ele><time>2026-03-31T16:57:52.928Z</time></trkpt><trkpt lat="45.60117452629503" lon="10.110718439697271"><ele>181.0</ele><time>2026-03-31T16:57:55.927Z</time></trkpt><trkpt lat="45.60110400856668" lon="10.110679334245674"><ele>181.0</ele><time>2026-03-31T16:57:58.927Z</time></trkpt><trkpt lat="45.601033275123356" lon="10.110671602929754"><ele>181.0</ele><time>2026-03-31T16:58:01.927Z</time></trkpt><trkpt lat="45.60095903163905" lon="10.110648022279241"><ele>181.0</ele><time>2026-03-31T16:58:04.927Z</time></trkpt><trkpt lat="45.600886653194735" lon="10.11063865428933"><ele>180.42857142857142</ele><time>2026-03-31T16:58:07.927Z</time></trkpt><trkpt lat="45.60081105749978" lon="10.110619755380664"><ele>179.85714285714283</ele><time>2026-03-31T16:58:10.927Z</time></trkpt><trkpt lat="45.60073874728669" lon="10.110605198963182"><ele>179.28571428571428</ele><time>2026-03-31T16:58:13.927Z</time></trkpt><trkpt lat="45.600664146248164" lon="10.110605425179074"><ele>178.71428571428572</ele><time>2026-03-31T16:58:16.927Z</time></trkpt><trkpt lat="45.60059194759301" lon="10.110609632531084"><ele>178.14285714285714</ele><time>2026-03-31T16:58:19.927Z</time></trkpt><trkpt lat="45.60052878255042" lon="10.110606028750988"><ele>177.57142857142858</ele><time>2026-03-31T16:58:22.927Z</time></trkpt><trkpt lat="45.60045211550566" lon="10.110608413310159"><ele>177.0</ele><time>2026-03-31T16:58:25.927Z</time></trkpt><trkpt lat="45.60037170144611" lon="10.110611310360119"><ele>177.16666666666666</ele><time>2026-03-31T16:58:28.927Z</time></trkpt><trkpt lat="45.60027830558037" lon="10.11061853947029"><ele>177.33333333333334</ele><time>2026-03-31T16:58:31.926Z</time></trkpt><trkpt lat="45.6001987860212" lon="10.110635573058246"><ele>177.5</ele><time>2026-03-31T16:58:34.926Z</time></trkpt><trkpt lat="45.60011559737824" lon="10.110655947593774"><ele>177.66666666666669</ele><time>2026-03-31T16:58:37.926Z</time></trkpt><trkpt lat="45.600035606854675" lon="10.110690161622852"><ele>177.83333333333334</ele><time>2026-03-31T16:58:40.926Z</time></trkpt><trkpt lat="45.599967571737814" lon="10.110739193892702"><ele>178.0</ele><time>2026-03-31T16:58:43.926Z</time></trkpt><trkpt lat="45.59990632263013" lon="10.110804813815577"><ele>177.99999999999997</ele><time>2026-03-31T16:58:46.926Z</time></trkpt><trkpt lat="45.59985611621434" lon="10.110862911671632"><ele>178.0</ele><time>2026-03-31T16:58:49.926Z</time></trkpt><trkpt lat="45.59981611395542" lon="10.11094835185656"><ele>178.0</ele><time>2026-03-31T16:58:52.926Z</time></trkpt><trkpt lat="45.59977769286933" lon="10.111035766352074"><ele>178.0</ele><time>2026-03-31T16:58:55.926Z</time></trkpt><trkpt lat="45.59973284003506" lon="10.11112448486155"><ele>178.0</ele><time>2026-03-31T16:58:58.926Z</time></trkpt><trkpt lat="45.599683977736234" lon="10.11121256769246"><ele>177.99999999999997</ele><time>2026-03-31T16:59:01.926Z</time></trkpt><trkpt lat="45.59962865551692" lon="10.111300745376449"><ele>178.0</ele><time>2026-03-31T16:59:04.926Z</time></trkpt><trkpt lat="45.599573321934656" lon="10.111370784392914"><ele>178.0</ele><time>2026-03-31T16:59:07.926Z</time></trkpt><trkpt lat="45.59951931191113" lon="10.111435550789174"><ele>178.0</ele><time>2026-03-31T16:59:10.926Z</time></trkpt><trkpt lat="45.59944508238165" lon="10.111464416372716"><ele>178.0</ele><time>2026-03-31T16:59:13.926Z</time></trkpt><trkpt lat="45.599360290942215" lon="10.11150317052649"><ele>178.0</ele><time>2026-03-31T16:59:16.926Z</time></trkpt><trkpt lat="45.59927745806385" lon="10.111520306020527"><ele>178.0</ele><time>2026-03-31T16:59:19.926Z</time></trkpt><trkpt lat="45.59919641276665" lon="10.111523478728044"><ele>178.0</ele><time>2026-03-31T16:59:22.925Z</time></trkpt><trkpt lat="45.599124406761746" lon="10.111534473675633"><ele>177.5</ele><time>2026-03-31T16:59:25.925Z</time></trkpt><trkpt lat="45.59904427912713" lon="10.111544621013401"><ele>177.0</ele><time>2026-03-31T16:59:28.925Z</time></trkpt><trkpt lat="45.59896505338775" lon="10.11153290729508"><ele>176.5</ele><time>2026-03-31T16:59:31.925Z</time></trkpt><trkpt lat="45.5988877485208" lon="10.111517322368464"><ele>176.0</ele><time>2026-03-31T16:59:34.925Z</time></trkpt><trkpt lat="45.59879967617654" lon="10.11149104646814"><ele>175.5</ele><time>2026-03-31T16:59:37.925Z</time></trkpt><trkpt lat="45.59872229581488" lon="10.111460756036399"><ele>175.0</ele><time>2026-03-31T16:59:40.925Z</time></trkpt><trkpt lat="45.59864515926782" lon="10.111435072220688"><ele>174.83333333333334</ele><time>2026-03-31T16:59:43.925Z</time></trkpt><trkpt lat="45.59857822693457" lon="10.111380361683839"><ele>174.66666666666669</ele><time>2026-03-31T16:59:46.925Z</time></trkpt><trkpt lat="45.59851287661957" lon="10.111341499971047"><ele>174.5</ele><time>2026-03-31T16:59:49.925Z</time></trkpt><trkpt lat="45.598440212967326" lon="10.111273144163217"><ele>174.33333333333334</ele><time>2026-03-31T16:59:52.925Z</time></trkpt><trkpt lat="45.59837616889346" lon="10.11119688706176"><ele>174.16666666666666</ele><time>2026-03-31T16:59:55.924Z</time></trkpt><trkpt lat="45.598313551621345" lon="10.111119746602705"><ele>174.0</ele><time>2026-03-31T16:59:58.924Z</time></trkpt><trkpt lat="45.598253307882246" lon="10.111053051376159"><ele>174.0</ele><time>2026-03-31T17:00:01.925Z</time></trkpt><trkpt lat="45.59819418481212" lon="10.111001575310892"><ele>174.0</ele><time>2026-03-31T17:00:04.925Z</time></trkpt><trkpt lat="45.59811041193729" lon="10.110988296356036"><ele>174.0</ele><time>2026-03-31T17:00:07.925Z</time></trkpt><trkpt lat="45.598035816686476" lon="10.111002552049342"><ele>174.0</ele><time>2026-03-31T17:00:10.925Z</time></trkpt><trkpt lat="45.597955238168666" lon="10.110977868583008"><ele>174.0</ele><time>2026-03-31T17:00:13.925Z</time></trkpt><trkpt lat="45.59789105578868" lon="10.110950136587087"><ele>174.0</ele><time>2026-03-31T17:00:16.925Z</time></trkpt><trkpt lat="45.59783443474866" lon="10.110845864316643"><ele>174.5</ele><time>2026-03-31T17:00:19.925Z</time></trkpt><trkpt lat="45.59776800692405" lon="10.110760798224932"><ele>175.0</ele><time>2026-03-31T17:00:22.925Z</time></trkpt><trkpt lat="45.59770189866519" lon="10.110741848984302"><ele>175.5</ele><time>2026-03-31T17:00:25.925Z</time></trkpt><trkpt lat="45.59767731235991" lon="10.110856206383492"><ele>176.0</ele><time>2026-03-31T17:00:29.924Z</time></trkpt><trkpt lat="45.597673387114696" lon="10.110971227035547"><ele>176.5</ele><time>2026-03-31T17:00:32.924Z</time></trkpt><trkpt lat="45.597609890110895" lon="10.111057725877462"><ele>177.0</ele><time>2026-03-31T17:00:35.924Z</time></trkpt><trkpt lat="45.5975626717971" lon="10.11113872254273"><ele>177.0</ele><time>2026-03-31T17:00:38.924Z</time></trkpt><trkpt lat="45.59751282595533" lon="10.111217621196795"><ele>177.0</ele><time>2026-03-31T17:00:41.924Z</time></trkpt><trkpt lat="45.59747458546095" lon="10.111300182242003"><ele>177.0</ele><time>2026-03-31T17:00:44.924Z</time></trkpt><trkpt lat="45.59738081703408" lon="10.111370740227008"><ele>177.0</ele><time>2026-03-31T17:00:48.924Z</time></trkpt><trkpt lat="45.59732390589136" lon="10.111449683856643"><ele>177.0</ele><time>2026-03-31T17:00:51.924Z</time></trkpt><trkpt lat="45.59728335742419" lon="10.11153891836718"><ele>177.0</ele><time>2026-03-31T17:00:54.924Z</time></trkpt><trkpt lat="45.59724914429485" lon="10.111634831600421"><ele>176.66666666666666</ele><time>2026-03-31T17:00:57.924Z</time></trkpt><trkpt lat="45.59722670920374" lon="10.111737617305472"><ele>176.33333333333334</ele><time>2026-03-31T17:01:00.924Z</time></trkpt><trkpt lat="45.597186758566814" lon="10.111828493632034"><ele>176.0</ele><time>2026-03-31T17:01:03.924Z</time></trkpt><trkpt lat="45.5971397695506" lon="10.111928135653082"><ele>175.66666666666669</ele><time>2026-03-31T17:01:07.924Z</time></trkpt><trkpt lat="45.5970777343997" lon="10.112003977751362"><ele>175.33333333333334</ele><time>2026-03-31T17:01:10.924Z</time></trkpt><trkpt lat="45.59701158755991" lon="10.112072654238885"><ele>175.0</ele><time>2026-03-31T17:01:13.924Z</time></trkpt><trkpt lat="45.59697062218973" lon="10.112147864946683"><ele>175.0</ele><time>2026-03-31T17:01:16.924Z</time></trkpt><trkpt lat="45.59692550452326" lon="10.11223471410172"><ele>175.0</ele><time>2026-03-31T17:01:19.924Z</time></trkpt><trkpt lat="45.596907208773594" lon="10.112338351605029"><ele>175.0</ele><time>2026-03-31T17:01:22.923Z</time></trkpt><trkpt lat="45.59689918185639" lon="10.11244214399719"><ele>175.0</ele><time>2026-03-31T17:01:25.923Z</time></trkpt><trkpt lat="45.596885600505566" lon="10.1125412931427"><ele>175.0</ele><time>2026-03-31T17:01:28.923Z</time></trkpt><trkpt lat="45.596865088310196" lon="10.112643044308768"><ele>175.0</ele><time>2026-03-31T17:01:31.923Z</time></trkpt><trkpt lat="45.59684561592744" lon="10.112749156118175"><ele>175.0</ele><time>2026-03-31T17:01:34.923Z</time></trkpt><trkpt lat="45.59683271816888" lon="10.112853712149219"><ele>174.71428571428572</ele><time>2026-03-31T17:01:37.923Z</time></trkpt><trkpt lat="45.596828873260186" lon="10.112949923400933"><ele>174.42857142857144</ele><time>2026-03-31T17:01:40.923Z</time></trkpt><trkpt lat="45.59681765118569" lon="10.113052912133098"><ele>174.14285714285714</ele><time>2026-03-31T17:01:43.923Z</time></trkpt><trkpt lat="45.59681370259627" lon="10.113152515339081"><ele>173.85714285714286</ele><time>2026-03-31T17:01:46.923Z</time></trkpt><trkpt lat="45.59679993409266" lon="10.11324973843184"><ele>173.57142857142858</ele><time>2026-03-31T17:01:49.923Z</time></trkpt><trkpt lat="45.596789862514015" lon="10.113338731731195"><ele>173.28571428571428</ele><time>2026-03-31T17:01:52.923Z</time></trkpt><trkpt lat="45.59677835400871" lon="10.11343214059103"><ele>173.0</ele><time>2026-03-31T17:01:55.922Z</time></trkpt><trkpt lat="45.59677884235777" lon="10.113528760831809"><ele>173.0</ele><time>2026-03-31T17:01:58.922Z</time></trkpt><trkpt lat="45.5967674243779" lon="10.113627181670694"><ele>173.0</ele><time>2026-03-31T17:02:01.922Z</time></trkpt><trkpt lat="45.59678017734748" lon="10.113716622206878"><ele>173.0</ele><time>2026-03-31T17:02:04.922Z</time></trkpt><trkpt lat="45.596791545471326" lon="10.113813669311646"><ele>173.0</ele><time>2026-03-31T17:02:07.922Z</time></trkpt><trkpt lat="45.59680870795469" lon="10.113907198442009"><ele>173.0</ele><time>2026-03-31T17:02:10.922Z</time></trkpt><trkpt lat="45.59681862670084" lon="10.113997276280758"><ele>173.0</ele><time>2026-03-31T17:02:13.922Z</time></trkpt><trkpt lat="45.596832681109085" lon="10.11409274728905"><ele>173.0</ele><time>2026-03-31T17:02:16.922Z</time></trkpt><trkpt lat="45.59683764711584" lon="10.114192109243692"><ele>172.85714285714286</ele><time>2026-03-31T17:02:19.922Z</time></trkpt><trkpt lat="45.59685615189395" lon="10.114286061924144"><ele>172.71428571428572</ele><time>2026-03-31T17:02:22.921Z</time></trkpt><trkpt lat="45.5968573492002" lon="10.114393556220774"><ele>172.57142857142858</ele><time>2026-03-31T17:02:25.921Z</time></trkpt><trkpt lat="45.5968737087499" lon="10.114487657333404"><ele>172.42857142857144</ele><time>2026-03-31T17:02:28.921Z</time></trkpt><trkpt lat="45.59688585332721" lon="10.114577333763158"><ele>172.28571428571428</ele><time>2026-03-31T17:02:31.921Z</time></trkpt><trkpt lat="45.59690231052255" lon="10.114675221624587"><ele>172.14285714285717</ele><time>2026-03-31T17:02:34.921Z</time></trkpt><trkpt lat="45.596909809648395" lon="10.114771774239344"><ele>172.0</ele><time>2026-03-31T17:02:37.921Z</time></trkpt><trkpt lat="45.59692240806632" lon="10.114865134976801"><ele>171.85714285714286</ele><time>2026-03-31T17:02:40.921Z</time></trkpt><trkpt lat="45.5969343171098" lon="10.114958134972435"><ele>171.71428571428572</ele><time>2026-03-31T17:02:43.921Z</time></trkpt><trkpt lat="45.596944184866274" lon="10.115055816617218"><ele>171.57142857142856</ele><time>2026-03-31T17:02:46.921Z</time></trkpt><trkpt lat="45.59697860954062" lon="10.115160225009237"><ele>171.42857142857144</ele><time>2026-03-31T17:02:50.921Z</time></trkpt><trkpt lat="45.59700409340722" lon="10.115255907923073"><ele>171.28571428571428</ele><time>2026-03-31T17:02:53.921Z</time></trkpt><trkpt lat="45.59701750521592" lon="10.115350053660082"><ele>171.14285714285714</ele><time>2026-03-31T17:02:56.921Z</time></trkpt><trkpt lat="45.59701465676837" lon="10.115464772080708"><ele>171.0</ele><time>2026-03-31T17:02:59.921Z</time></trkpt><trkpt lat="45.59702903631102" lon="10.115570464081637"><ele>171.16666666666666</ele><time>2026-03-31T17:03:02.921Z</time></trkpt><trkpt lat="45.59704537247749" lon="10.115682968826125"><ele>171.33333333333334</ele><time>2026-03-31T17:03:05.921Z</time></trkpt><trkpt lat="45.59707808023548" lon="10.115771463495808"><ele>171.5</ele><time>2026-03-31T17:03:08.921Z</time></trkpt><trkpt lat="45.597069490606934" lon="10.115866162201037"><ele>171.66666666666669</ele><time>2026-03-31T17:03:11.921Z</time></trkpt><trkpt lat="45.59706373505568" lon="10.115980491798227"><ele>171.83333333333334</ele><time>2026-03-31T17:03:14.921Z</time></trkpt><trkpt lat="45.59706758868094" lon="10.116102287374959"><ele>172.0</ele><time>2026-03-31T17:03:17.92Z</time></trkpt><trkpt lat="45.5970761208741" lon="10.116221378238865"><ele>172.00000000000003</ele><time>2026-03-31T17:03:20.92Z</time></trkpt><trkpt lat="45.59709522842021" lon="10.116326555898493"><ele>172.0</ele><time>2026-03-31T17:03:23.92Z</time></trkpt><trkpt lat="45.59710909696911" lon="10.116432024126052"><ele>172.0</ele><time>2026-03-31T17:03:26.92Z</time></trkpt><trkpt lat="45.59712113870851" lon="10.11652692423877"><ele>172.0</ele><time>2026-03-31T17:03:29.92Z</time></trkpt><trkpt lat="45.59713806555259" lon="10.116621786475838"><ele>172.0</ele><time>2026-03-31T17:03:32.92Z</time></trkpt><trkpt lat="45.597153235984294" lon="10.116712603120272"><ele>172.00000000000003</ele><time>2026-03-31T17:03:35.92Z</time></trkpt><trkpt lat="45.59715140537495" lon="10.116820439138937"><ele>172.0</ele><time>2026-03-31T17:03:38.92Z</time></trkpt><trkpt lat="45.59712644139696" lon="10.116923491996184"><ele>171.85714285714286</ele><time>2026-03-31T17:03:41.92Z</time></trkpt><trkpt lat="45.59711418267001" lon="10.117042966006695"><ele>171.71428571428572</ele><time>2026-03-31T17:03:44.92Z</time></trkpt><trkpt lat="45.597119811553085" lon="10.117151328584777"><ele>171.57142857142856</ele><time>2026-03-31T17:03:47.92Z</time></trkpt><trkpt lat="45.59711465007504" lon="10.117241423945947"><ele>171.42857142857144</ele><time>2026-03-31T17:03:50.92Z</time></trkpt><trkpt lat="45.59711182647514" lon="10.11734475849359"><ele>171.28571428571428</ele><time>2026-03-31T17:03:53.92Z</time></trkpt><trkpt lat="45.597106063688685" lon="10.117446310792682"><ele>171.14285714285714</ele><time>2026-03-31T17:03:56.92Z</time></trkpt><trkpt lat="45.59710815281776" lon="10.117538936294265"><ele>171.0</ele><time>2026-03-31T17:03:59.92Z</time></trkpt><trkpt lat="45.5971035631917" lon="10.117633300108285"><ele>170.85714285714283</ele><time>2026-03-31T17:04:02.92Z</time></trkpt><trkpt lat="45.59710222482859" lon="10.117732088141798"><ele>170.71428571428572</ele><time>2026-03-31T17:04:05.919Z</time></trkpt><trkpt lat="45.597097635120555" lon="10.117828306352832"><ele>170.57142857142856</ele><time>2026-03-31T17:04:08.92Z</time></trkpt><trkpt lat="45.597088831545605" lon="10.117925225724855"><ele>170.42857142857142</ele><time>2026-03-31T17:04:11.919Z</time></trkpt><trkpt lat="45.59708083241228" lon="10.118032296427158"><ele>170.28571428571428</ele><time>2026-03-31T17:04:14.92Z</time></trkpt><trkpt lat="45.59707837989434" lon="10.118129774454863"><ele>170.14285714285714</ele><time>2026-03-31T17:04:17.92Z</time></trkpt><trkpt lat="45.59705784441106" lon="10.118232977002142"><ele>170.0</ele><time>2026-03-31T17:04:20.92Z</time></trkpt><trkpt lat="45.597037924478414" lon="10.118335085692081"><ele>169.85714285714286</ele><time>2026-03-31T17:04:23.92Z</time></trkpt><trkpt lat="45.59702389563968" lon="10.118433869430618"><ele>169.7142857142857</ele><time>2026-03-31T17:04:26.92Z</time></trkpt><trkpt lat="45.597012879497484" lon="10.118534356747931"><ele>169.57142857142856</ele><time>2026-03-31T17:04:29.919Z</time></trkpt><trkpt lat="45.59700452611345" lon="10.118632683298278"><ele>169.42857142857144</ele><time>2026-03-31T17:04:32.919Z</time></trkpt><trkpt lat="45.597003502377696" lon="10.118730899660168"><ele>169.28571428571428</ele><time>2026-03-31T17:04:35.919Z</time></trkpt><trkpt lat="45.59697633719359" lon="10.118834947863222"><ele>169.14285714285714</ele><time>2026-03-31T17:04:38.919Z</time></trkpt><trkpt lat="45.59697373488705" lon="10.118939033828477"><ele>169.0</ele><time>2026-03-31T17:04:41.919Z</time></trkpt><trkpt lat="45.59695531039052" lon="10.119033579231077"><ele>169.0</ele><time>2026-03-31T17:04:44.919Z</time></trkpt><trkpt lat="45.59694838875313" lon="10.119134608694287"><ele>169.0</ele><time>2026-03-31T17:04:47.919Z</time></trkpt><trkpt lat="45.596941920871494" lon="10.119231002512997"><ele>169.0</ele><time>2026-03-31T17:04:50.919Z</time></trkpt><trkpt lat="45.59693478605206" lon="10.119336864670002"><ele>169.0</ele><time>2026-03-31T17:04:53.919Z</time></trkpt><trkpt lat="45.59691648483278" lon="10.119440190595313"><ele>169.0</ele><time>2026-03-31T17:04:56.919Z</time></trkpt><trkpt lat="45.59690827221157" lon="10.119540106216531"><ele>169.0</ele><time>2026-03-31T17:04:59.919Z</time></trkpt><trkpt lat="45.596898185035144" lon="10.119648065303524"><ele>169.0</ele><time>2026-03-31T17:05:03.919Z</time></trkpt><trkpt lat="45.59690163935376" lon="10.119738800564805"><ele>169.0</ele><time>2026-03-31T17:05:06.919Z</time></trkpt><trkpt lat="45.59690067781319" lon="10.119837985299307"><ele>169.0</ele><time>2026-03-31T17:05:09.919Z</time></trkpt><trkpt lat="45.59689718471591" lon="10.119931912169427"><ele>169.0</ele><time>2026-03-31T17:05:12.919Z</time></trkpt><trkpt lat="45.59689134235374" lon="10.120032766837916"><ele>169.0</ele><time>2026-03-31T17:05:15.919Z</time></trkpt><trkpt lat="45.59689029603231" lon="10.120131994913491"><ele>169.0</ele><time>2026-03-31T17:05:18.919Z</time></trkpt><trkpt lat="45.596882108994656" lon="10.120223175300122"><ele>169.0</ele><time>2026-03-31T17:05:21.918Z</time></trkpt><trkpt lat="45.59687166341311" lon="10.120316450179606"><ele>169.0</ele><time>2026-03-31T17:05:24.918Z</time></trkpt><trkpt lat="45.59686793636913" lon="10.120409257765552"><ele>168.57142857142858</ele><time>2026-03-31T17:05:27.918Z</time></trkpt><trkpt lat="45.59685999146246" lon="10.120499520295931"><ele>168.14285714285714</ele><time>2026-03-31T17:05:30.918Z</time></trkpt><trkpt lat="45.59684841763985" lon="10.120618062972374"><ele>167.71428571428572</ele><time>2026-03-31T17:05:34.918Z</time></trkpt><trkpt lat="45.596853743768165" lon="10.120718770186492"><ele>167.28571428571428</ele><time>2026-03-31T17:05:37.918Z</time></trkpt><trkpt lat="45.59686902515472" lon="10.120812444905434"><ele>166.85714285714286</ele><time>2026-03-31T17:05:40.918Z</time></trkpt><trkpt lat="45.59685105390911" lon="10.120910999185998"><ele>166.42857142857142</ele><time>2026-03-31T17:05:43.918Z</time></trkpt><trkpt lat="45.59684922946496" lon="10.121018805865102"><ele>166.0</ele><time>2026-03-31T17:05:46.918Z</time></trkpt><trkpt lat="45.596843728448455" lon="10.121131066366852"><ele>165.85714285714286</ele><time>2026-03-31T17:05:49.918Z</time></trkpt><trkpt lat="45.59682768562323" lon="10.121252321291456"><ele>165.71428571428572</ele><time>2026-03-31T17:05:52.918Z</time></trkpt><trkpt lat="45.596805655001866" lon="10.12136278315144"><ele>165.57142857142858</ele><time>2026-03-31T17:05:55.918Z</time></trkpt><trkpt lat="45.59679129466136" lon="10.12145813092811"><ele>165.42857142857144</ele><time>2026-03-31T17:05:58.918Z</time></trkpt><trkpt lat="45.596768295793034" lon="10.12154997347424"><ele>165.28571428571428</ele><time>2026-03-31T17:06:01.918Z</time></trkpt><trkpt lat="45.59675255224127" lon="10.121641965289765"><ele>165.14285714285717</ele><time>2026-03-31T17:06:04.918Z</time></trkpt><trkpt lat="45.59673852356522" lon="10.121739957483221"><ele>165.0</ele><time>2026-03-31T17:06:07.917Z</time></trkpt><trkpt lat="45.596710081780074" lon="10.121837856963284"><ele>165.00000000000003</ele><time>2026-03-31T17:06:10.917Z</time></trkpt><trkpt lat="45.596689614882244" lon="10.121931958229657"><ele>165.0</ele><time>2026-03-31T17:06:13.917Z</time></trkpt><trkpt lat="45.5966629104491" lon="10.122027480857044"><ele>165.0</ele><time>2026-03-31T17:06:16.917Z</time></trkpt><trkpt lat="45.596651642564616" lon="10.122149302210861"><ele>165.0</ele><time>2026-03-31T17:06:20.917Z</time></trkpt><trkpt lat="45.59663998547629" lon="10.12225660983356"><ele>165.0</ele><time>2026-03-31T17:06:23.917Z</time></trkpt><trkpt lat="45.59662653507806" lon="10.12236313028311"><ele>165.00000000000003</ele><time>2026-03-31T17:06:26.917Z</time></trkpt><trkpt lat="45.59660854655294" lon="10.122454142142033"><ele>165.0</ele><time>2026-03-31T17:06:29.917Z</time></trkpt><trkpt lat="45.5965932912119" lon="10.122545194159237"><ele>165.16666666666666</ele><time>2026-03-31T17:06:32.917Z</time></trkpt><trkpt lat="45.59658397348471" lon="10.122643447425311"><ele>165.33333333333334</ele><time>2026-03-31T17:06:35.917Z</time></trkpt><trkpt lat="45.59658589140207" lon="10.122740073827645"><ele>165.5</ele><time>2026-03-31T17:06:38.917Z</time></trkpt><trkpt lat="45.5965788723735" lon="10.122854011986997"><ele>165.66666666666669</ele><time>2026-03-31T17:06:41.917Z</time></trkpt><trkpt lat="45.59657999004253" lon="10.12297821314354"><ele>165.83333333333334</ele><time>2026-03-31T17:06:44.917Z</time></trkpt><trkpt lat="45.59659180391824" lon="10.123087153604681"><ele>166.0</ele><time>2026-03-31T17:06:47.917Z</time></trkpt><trkpt lat="45.5965981020021" lon="10.123189886812257"><ele>166.28571428571428</ele><time>2026-03-31T17:06:50.917Z</time></trkpt><trkpt lat="45.596581014020785" lon="10.123298183022502"><ele>166.57142857142858</ele><time>2026-03-31T17:06:53.917Z</time></trkpt><trkpt lat="45.59658678324627" lon="10.123418790855492"><ele>166.85714285714286</ele><time>2026-03-31T17:06:57.917Z</time></trkpt><trkpt lat="45.596585395964176" lon="10.123515723324648"><ele>167.14285714285714</ele><time>2026-03-31T17:07:00.917Z</time></trkpt><trkpt lat="45.596587824319265" lon="10.123618792129017"><ele>167.42857142857144</ele><time>2026-03-31T17:07:03.916Z</time></trkpt><trkpt lat="45.59660546774052" lon="10.123723620759591"><ele>167.71428571428572</ele><time>2026-03-31T17:07:06.916Z</time></trkpt><trkpt lat="45.59660934281095" lon="10.123817799703666"><ele>168.0</ele><time>2026-03-31T17:07:09.916Z</time></trkpt><trkpt lat="45.59661537934071" lon="10.123925332467206"><ele>168.0</ele><time>2026-03-31T17:07:14.916Z</time></trkpt><trkpt lat="45.596630767596025" lon="10.124026799550379"><ele>168.0</ele><time>2026-03-31T17:07:18.916Z</time></trkpt><trkpt lat="45.59663692408097" lon="10.1241351849138"><ele>168.0</ele><time>2026-03-31T17:07:22.916Z</time></trkpt><trkpt lat="45.596651986559664" lon="10.124253668771592"><ele>168.0</ele><time>2026-03-31T17:07:26.916Z</time></trkpt><trkpt lat="45.59662369716333" lon="10.124383441636251"><ele>168.0</ele><time>2026-03-31T17:07:28.916Z</time></trkpt><trkpt lat="45.596646312999695" lon="10.124492077460403"><ele>168.0</ele><time>2026-03-31T17:07:31.916Z</time></trkpt><trkpt lat="45.59666674045064" lon="10.124608400506588"><ele>168.0</ele><time>2026-03-31T17:07:34.916Z</time></trkpt><trkpt lat="45.59667080760108" lon="10.124718484428211"><ele>168.0</ele><time>2026-03-31T17:07:37.916Z</time></trkpt><trkpt lat="45.5966461444725" lon="10.124816847722995"><ele>168.0</ele><time>2026-03-31T17:07:40.916Z</time></trkpt><trkpt lat="45.59659860111693" lon="10.124926087311357"><ele>168.0</ele><time>2026-03-31T17:07:43.916Z</time></trkpt><trkpt lat="45.59657908649993" lon="10.1250299573563"><ele>168.0</ele><time>2026-03-31T17:07:46.916Z</time></trkpt><trkpt lat="45.596566237814415" lon="10.125118555161503"><ele>168.0</ele><time>2026-03-31T17:07:49.916Z</time></trkpt><trkpt lat="45.596560630264726" lon="10.125229696075808"><ele>168.0</ele><time>2026-03-31T17:07:52.916Z</time></trkpt><trkpt lat="45.59656177116874" lon="10.125339524671897"><ele>168.0</ele><time>2026-03-31T17:07:55.916Z</time></trkpt><trkpt lat="45.596564564428505" lon="10.125451491206116"><ele>168.0</ele><time>2026-03-31T17:07:58.915Z</time></trkpt><trkpt lat="45.596555202804005" lon="10.125562560357363"><ele>168.0</ele><time>2026-03-31T17:08:01.915Z</time></trkpt><trkpt lat="45.596545699286324" lon="10.125666251686082"><ele>168.0</ele><time>2026-03-31T17:08:04.915Z</time></trkpt><trkpt lat="45.59654090508205" lon="10.125778828792406"><ele>168.0</ele><time>2026-03-31T17:08:07.915Z</time></trkpt><trkpt lat="45.59654003587994" lon="10.125875610297353"><ele>168.0</ele><time>2026-03-31T17:08:10.915Z</time></trkpt><trkpt lat="45.596542000166" lon="10.125983126180918"><ele>168.0</ele><time>2026-03-31T17:08:13.915Z</time></trkpt><trkpt lat="45.59653991249215" lon="10.126087496053522"><ele>168.0</ele><time>2026-03-31T17:08:16.915Z</time></trkpt><trkpt lat="45.59655716393335" lon="10.1261848479709"><ele>168.0</ele><time>2026-03-31T17:08:19.915Z</time></trkpt><trkpt lat="45.59654661271261" lon="10.126280275851318"><ele>168.0</ele><time>2026-03-31T17:08:22.915Z</time></trkpt><trkpt lat="45.59654285362365" lon="10.126376602125752"><ele>168.0</ele><time>2026-03-31T17:08:25.914Z</time></trkpt><trkpt lat="45.5965356488311" lon="10.126478743735317"><ele>168.0</ele><time>2026-03-31T17:08:28.914Z</time></trkpt><trkpt lat="45.5965429663139" lon="10.126577006068775"><ele>167.5</ele><time>2026-03-31T17:08:31.914Z</time></trkpt><trkpt lat="45.596536738553716" lon="10.126690996633648"><ele>167.0</ele><time>2026-03-31T17:08:34.914Z</time></trkpt><trkpt lat="45.596519442165665" lon="10.126808488014337"><ele>166.5</ele><time>2026-03-31T17:08:37.914Z</time></trkpt><trkpt lat="45.59649790277951" lon="10.126918176875709"><ele>166.0</ele><time>2026-03-31T17:08:40.914Z</time></trkpt><trkpt lat="45.596491791332674" lon="10.127031614211363"><ele>165.5</ele><time>2026-03-31T17:08:43.914Z</time></trkpt><trkpt lat="45.59648528717625" lon="10.127139156701686"><ele>165.0</ele><time>2026-03-31T17:08:46.914Z</time></trkpt><trkpt lat="45.596481371473146" lon="10.127242710545291"><ele>165.00000000000003</ele><time>2026-03-31T17:08:49.914Z</time></trkpt><trkpt lat="45.596478921020605" lon="10.127347023182097"><ele>165.0</ele><time>2026-03-31T17:08:52.914Z</time></trkpt><trkpt lat="45.59648841783964" lon="10.127450232694628"><ele>165.0</ele><time>2026-03-31T17:08:55.914Z</time></trkpt><trkpt lat="45.596499116496155" lon="10.127550047242469"><ele>165.0</ele><time>2026-03-31T17:08:58.914Z</time></trkpt><trkpt lat="45.59650360394167" lon="10.12764815386633"><ele>165.0</ele><time>2026-03-31T17:09:01.913Z</time></trkpt><trkpt lat="45.59650899837307" lon="10.127741605953085"><ele>165.00000000000003</ele><time>2026-03-31T17:09:04.913Z</time></trkpt><trkpt lat="45.59652357829274" lon="10.127834780797118"><ele>165.0</ele><time>2026-03-31T17:09:07.913Z</time></trkpt><trkpt lat="45.596542527173256" lon="10.127925356616274"><ele>164.71428571428572</ele><time>2026-03-31T17:09:10.913Z</time></trkpt><trkpt lat="45.59655905532669" lon="10.128042421897169"><ele>164.42857142857144</ele><time>2026-03-31T17:09:14.913Z</time></trkpt><trkpt lat="45.596574463438095" lon="10.128140065608784"><ele>164.14285714285717</ele><time>2026-03-31T17:09:17.913Z</time></trkpt><trkpt lat="45.596577538300544" lon="10.128240326877854"><ele>163.85714285714286</ele><time>2026-03-31T17:09:20.913Z</time></trkpt><trkpt lat="45.59659334220752" lon="10.128338414177477"><ele>163.57142857142856</ele><time>2026-03-31T17:09:23.913Z</time></trkpt><trkpt lat="45.59660720738928" lon="10.128431535246106"><ele>163.2857142857143</ele><time>2026-03-31T17:09:26.913Z</time></trkpt><trkpt lat="45.596620268884934" lon="10.128522219935306"><ele>163.0</ele><time>2026-03-31T17:09:29.913Z</time></trkpt><trkpt lat="45.59663837770914" lon="10.128612463024236"><ele>163.0</ele><time>2026-03-31T17:09:32.913Z</time></trkpt><trkpt lat="45.59664651476192" lon="10.128702519421784"><ele>163.0</ele><time>2026-03-31T17:09:35.913Z</time></trkpt><trkpt lat="45.59666475251797" lon="10.128796661090036"><ele>163.0</ele><time>2026-03-31T17:09:38.913Z</time></trkpt><trkpt lat="45.596696991366436" lon="10.128886139863194"><ele>163.0</ele><time>2026-03-31T17:09:41.913Z</time></trkpt><trkpt lat="45.59672797506481" lon="10.128975624260779"><ele>163.0</ele><time>2026-03-31T17:09:44.913Z</time></trkpt><trkpt lat="45.59675439358113" lon="10.129071005747107"><ele>163.0</ele><time>2026-03-31T17:09:47.913Z</time></trkpt><trkpt lat="45.59677257597739" lon="10.129164985231672"><ele>163.0</ele><time>2026-03-31T17:09:50.913Z</time></trkpt><trkpt lat="45.59678418964374" lon="10.12926735573433"><ele>163.0</ele><time>2026-03-31T17:09:53.912Z</time></trkpt><trkpt lat="45.596800625164754" lon="10.129366228002482"><ele>163.0</ele><time>2026-03-31T17:09:56.912Z</time></trkpt><trkpt lat="45.59680610919918" lon="10.12946389605327"><ele>163.0</ele><time>2026-03-31T17:09:59.912Z</time></trkpt><trkpt lat="45.59682939537392" lon="10.12955037523041"><ele>163.0</ele><time>2026-03-31T17:10:02.912Z</time></trkpt><trkpt lat="45.596820553097665" lon="10.129650856092978"><ele>163.0</ele><time>2026-03-31T17:10:05.912Z</time></trkpt><trkpt lat="45.596814353631274" lon="10.129747800409852"><ele>163.0</ele><time>2026-03-31T17:10:08.912Z</time></trkpt><trkpt lat="45.596805893806184" lon="10.129843571140983"><ele>163.0</ele><time>2026-03-31T17:10:11.912Z</time></trkpt><trkpt lat="45.596791318907414" lon="10.129934576772966"><ele>163.0</ele><time>2026-03-31T17:10:14.912Z</time></trkpt><trkpt lat="45.596796867351905" lon="10.130031198292045"><ele>163.0</ele><time>2026-03-31T17:10:17.912Z</time></trkpt><trkpt lat="45.596793701271636" lon="10.130126562940237"><ele>163.0</ele><time>2026-03-31T17:10:20.912Z</time></trkpt><trkpt lat="45.59678747858111" lon="10.130220079338779"><ele>163.0</ele><time>2026-03-31T17:10:23.911Z</time></trkpt><trkpt lat="45.59678572849028" lon="10.130315102988762"><ele>163.0</ele><time>2026-03-31T17:10:26.912Z</time></trkpt><trkpt lat="45.59678728895488" lon="10.130413560915311"><ele>163.0</ele><time>2026-03-31T17:10:29.912Z</time></trkpt><trkpt lat="45.59677105007684" lon="10.130510640958699"><ele>163.0</ele><time>2026-03-31T17:10:32.912Z</time></trkpt><trkpt lat="45.596762873879584" lon="10.130610023035539"><ele>163.0</ele><time>2026-03-31T17:10:35.912Z</time></trkpt><trkpt lat="45.596757756886426" lon="10.130705407102498"><ele>163.0</ele><time>2026-03-31T17:10:38.912Z</time></trkpt><trkpt lat="45.596759052374" lon="10.130796820198963"><ele>163.0</ele><time>2026-03-31T17:10:41.912Z</time></trkpt><trkpt lat="45.596770113177726" lon="10.130885830341148"><ele>163.0</ele><time>2026-03-31T17:10:44.912Z</time></trkpt><trkpt lat="45.59676658950768" lon="10.130979410009953"><ele>163.0</ele><time>2026-03-31T17:10:47.912Z</time></trkpt><trkpt lat="45.59677423161296" lon="10.131069189277815"><ele>163.0</ele><time>2026-03-31T17:10:50.912Z</time></trkpt><trkpt lat="45.596750036934836" lon="10.131162734531367"><ele>163.0</ele><time>2026-03-31T17:10:53.912Z</time></trkpt><trkpt lat="45.59672115690182" lon="10.131249930749837"><ele>163.14285714285714</ele><time>2026-03-31T17:10:56.912Z</time></trkpt><trkpt lat="45.596696402064914" lon="10.131341666162015"><ele>163.28571428571428</ele><time>2026-03-31T17:10:59.911Z</time></trkpt><trkpt lat="45.59667177484727" lon="10.131430674828477"><ele>163.42857142857142</ele><time>2026-03-31T17:11:02.911Z</time></trkpt><trkpt lat="45.59664630297397" lon="10.131530095105514"><ele>163.57142857142856</ele><time>2026-03-31T17:11:05.911Z</time></trkpt><trkpt lat="45.596638050484344" lon="10.131624984699371"><ele>163.71428571428572</ele><time>2026-03-31T17:11:08.911Z</time></trkpt><trkpt lat="45.59664162310392" lon="10.13172071341063"><ele>163.85714285714283</ele><time>2026-03-31T17:11:11.911Z</time></trkpt><trkpt lat="45.596603990871465" lon="10.131816746100267"><ele>164.0</ele><time>2026-03-31T17:11:15.911Z</time></trkpt><trkpt lat="45.59656799966255" lon="10.13189441382627"><ele>164.5</ele><time>2026-03-31T17:11:19.911Z</time></trkpt><trkpt lat="45.5965162307207" lon="10.13199411804135"><ele>165.0</ele><time>2026-03-31T17:11:22.911Z</time></trkpt><trkpt lat="45.596464144844674" lon="10.13207167444859"><ele>165.5</ele><time>2026-03-31T17:11:25.911Z</time></trkpt><trkpt lat="45.59639126384016" lon="10.13211281138739"><ele>166.0</ele><time>2026-03-31T17:11:28.911Z</time></trkpt><trkpt lat="45.59631998270323" lon="10.132093884950432"><ele>166.5</ele><time>2026-03-31T17:11:31.911Z</time></trkpt><trkpt lat="45.59625032012157" lon="10.132062211310302"><ele>167.0</ele><time>2026-03-31T17:11:34.911Z</time></trkpt><trkpt lat="45.59618980414945" lon="10.132004502072439"><ele>166.66666666666666</ele><time>2026-03-31T17:11:37.911Z</time></trkpt><trkpt lat="45.59612817960552" lon="10.131948766368344"><ele>166.33333333333331</ele><time>2026-03-31T17:11:40.911Z</time></trkpt><trkpt lat="45.59604988062082" lon="10.13190700687813"><ele>166.0</ele><time>2026-03-31T17:11:44.911Z</time></trkpt><trkpt lat="45.595989899197505" lon="10.131844141900993"><ele>165.66666666666666</ele><time>2026-03-31T17:11:47.911Z</time></trkpt><trkpt lat="45.59592416910819" lon="10.131791647013973"><ele>165.33333333333334</ele><time>2026-03-31T17:11:50.911Z</time></trkpt><trkpt lat="45.595857939852635" lon="10.13172010255175"><ele>165.0</ele><time>2026-03-31T17:11:53.91Z</time></trkpt><trkpt lat="45.59578960118192" lon="10.131658888785257"><ele>165.00000000000003</ele><time>2026-03-31T17:11:56.91Z</time></trkpt><trkpt lat="45.59573511096089" lon="10.131597211232137"><ele>165.0</ele><time>2026-03-31T17:11:59.91Z</time></trkpt><trkpt lat="45.59566971832997" lon="10.131558412109701"><ele>165.0</ele><time>2026-03-31T17:12:02.91Z</time></trkpt><trkpt lat="45.59560523370727" lon="10.13159715646983"><ele>165.0</ele><time>2026-03-31T17:12:05.91Z</time></trkpt><trkpt lat="45.595540480680356" lon="10.131620397235713"><ele>165.0</ele><time>2026-03-31T17:12:08.91Z</time></trkpt><trkpt lat="45.59546654445264" lon="10.13161590903458"><ele>165.00000000000003</ele><time>2026-03-31T17:12:11.91Z</time></trkpt><trkpt lat="45.59539800569655" lon="10.131600223647677"><ele>165.0</ele><time>2026-03-31T17:12:14.91Z</time></trkpt><trkpt lat="45.595320813832856" lon="10.131596373466493"><ele>164.2857142857143</ele><time>2026-03-31T17:12:17.91Z</time></trkpt><trkpt lat="45.59524791559071" lon="10.13158918341229"><ele>163.57142857142858</ele><time>2026-03-31T17:12:20.91Z</time></trkpt><trkpt lat="45.59517765951714" lon="10.131594513545842"><ele>162.85714285714286</ele><time>2026-03-31T17:12:23.91Z</time></trkpt><trkpt lat="45.59510175092588" lon="10.131592595364578"><ele>162.14285714285717</ele><time>2026-03-31T17:12:26.909Z</time></trkpt><trkpt lat="45.59503075905487" lon="10.131616694762771"><ele>161.42857142857144</ele><time>2026-03-31T17:12:29.909Z</time></trkpt><trkpt lat="45.59499215793215" lon="10.131691715517636"><ele>160.71428571428572</ele><time>2026-03-31T17:12:32.909Z</time></trkpt><trkpt lat="45.594967002719855" lon="10.131796586388418"><ele>160.0</ele><time>2026-03-31T17:12:36.909Z</time></trkpt><trkpt lat="45.59495526815625" lon="10.13188847631156"><ele>160.0</ele><time>2026-03-31T17:12:39.909Z</time></trkpt><trkpt lat="45.594952068851946" lon="10.131983577057644"><ele>160.0</ele><time>2026-03-31T17:12:42.909Z</time></trkpt><trkpt lat="45.59492997459647" lon="10.132074771829748"><ele>160.0</ele><time>2026-03-31T17:12:45.909Z</time></trkpt><trkpt lat="45.594904771040426" lon="10.132181496103104"><ele>160.0</ele><time>2026-03-31T17:12:49.909Z</time></trkpt><trkpt lat="45.594883967172585" lon="10.132294022120414"><ele>160.0</ele><time>2026-03-31T17:12:52.909Z</time></trkpt><trkpt lat="45.59485999951844" lon="10.132409883220612"><ele>160.0</ele><time>2026-03-31T17:12:55.908Z</time></trkpt><trkpt lat="45.59484577442852" lon="10.132519685363224"><ele>160.16666666666669</ele><time>2026-03-31T17:12:58.908Z</time></trkpt><trkpt lat="45.594841696766615" lon="10.132617044741203"><ele>160.33333333333334</ele><time>2026-03-31T17:13:01.908Z</time></trkpt><trkpt lat="45.59482887577527" lon="10.132712962079786"><ele>160.5</ele><time>2026-03-31T17:13:04.908Z</time></trkpt><trkpt lat="45.594794574169484" lon="10.132835709568726"><ele>160.66666666666666</ele><time>2026-03-31T17:13:08.908Z</time></trkpt><trkpt lat="45.59477496289698" lon="10.1329452872865"><ele>160.83333333333331</ele><time>2026-03-31T17:13:11.908Z</time></trkpt><trkpt lat="45.59475099240323" lon="10.133035648200874"><ele>161.0</ele><time>2026-03-31T17:13:14.908Z</time></trkpt><trkpt lat="45.59472876063088" lon="10.133137570499224"><ele>161.42857142857142</ele><time>2026-03-31T17:13:17.908Z</time></trkpt><trkpt lat="45.59471409926895" lon="10.133236532466352"><ele>161.85714285714286</ele><time>2026-03-31T17:13:20.908Z</time></trkpt><trkpt lat="45.594706885990966" lon="10.133330046519822"><ele>162.28571428571428</ele><time>2026-03-31T17:13:23.908Z</time></trkpt><trkpt lat="45.594711032126206" lon="10.133421121791603"><ele>162.71428571428572</ele><time>2026-03-31T17:13:26.908Z</time></trkpt><trkpt lat="45.594706989788655" lon="10.133525130515073"><ele>163.14285714285714</ele><time>2026-03-31T17:13:29.908Z</time></trkpt><trkpt lat="45.59468398746736" lon="10.133623486583108"><ele>163.57142857142856</ele><time>2026-03-31T17:13:32.908Z</time></trkpt><trkpt lat="45.59467138454346" lon="10.133718974524374"><ele>164.0</ele><time>2026-03-31T17:13:35.908Z</time></trkpt><trkpt lat="45.59466406076079" lon="10.133816885860096"><ele>163.99999999999997</ele><time>2026-03-31T17:13:38.908Z</time></trkpt><trkpt lat="45.59464050112393" lon="10.133942163129019"><ele>164.0</ele><time>2026-03-31T17:13:42.908Z</time></trkpt><trkpt lat="45.59460655460235" lon="10.134042638786818"><ele>164.0</ele><time>2026-03-31T17:13:45.908Z</time></trkpt><trkpt lat="45.59458664074551" lon="10.134132303406757"><ele>164.0</ele><time>2026-03-31T17:13:48.907Z</time></trkpt><trkpt lat="45.59457256095575" lon="10.13422806524511"><ele>164.0</ele><time>2026-03-31T17:13:51.907Z</time></trkpt><trkpt lat="45.59456191228276" lon="10.134325219213762"><ele>163.99999999999997</ele><time>2026-03-31T17:13:54.907Z</time></trkpt><trkpt lat="45.59454392687426" lon="10.134420754749344"><ele>164.0</ele><time>2026-03-31T17:13:57.907Z</time></trkpt><trkpt lat="45.59451926037154" lon="10.134517299385251"><ele>164.0</ele><time>2026-03-31T17:14:01.907Z</time></trkpt><trkpt lat="45.59455089275806" lon="10.134611194792633"><ele>164.0</ele><time>2026-03-31T17:14:32.907Z</time></trkpt></trkseg></trk></gpx>